Wetterdaten: aktuell Montag, 17.12.2018 10:50
Datum Zeit Temp. I. Temp 2m Temp 5cm Temp -10cm Feuchte I. Luftf 2m Luftdruck Regen Wind Richtung Richtung Sonnenschein ET UV Solar Taupunkt Windchill Windben Empfang
17.12.2018 10:50 23,1 C -0,9 C 2,2 C 2,8 C 52 % 92 % 1024,9 hPa 0,0 l/m 3,2 km/h (1 Bft) W-NW 292 0 min 0,000 mm 0,0 UV-I 135 W/m -2,0 C -0,9 C 6,4 km/h (2 Bft) 95,65 %
17.12.2018 10:49 23,1 C -1,0 C 2,2 C 2,8 C 52 % 92 % 1024,9 hPa 0,0 l/m 3,2 km/h (1 Bft) W-NW 292 0 min 0,000 mm 0,0 UV-I 134 W/m -2,1 C -1,0 C 4,8 km/h (1 Bft) 95,65 %
17.12.2018 10:48 23,1 C -1,0 C 2,2 C 2,8 C 52 % 92 % 1024,9 hPa 0,0 l/m 3,2 km/h (1 Bft) W-NW 292 0 min 0,000 mm 0,0 UV-I 135 W/m -2,1 C -1,0 C 4,8 km/h (1 Bft) 100,00 %
17.12.2018 10:47 23,1 C -1,1 C 1,7 C 2,8 C 52 % 92 % 1024,9 hPa 0,0 l/m 0,0 km/h (0 Bft) W-NW 292 0 min 0,000 mm 0,0 UV-I 137 W/m -2,2 C -1,1 C 3,2 km/h (1 Bft) 95,65 %
17.12.2018 10:46 23,1 C -1,1 C 1,7 C 2,8 C 53 % 92 % 1024,9 hPa 0,0 l/m 3,2 km/h (1 Bft) W-NW 292 0 min 0,000 mm 0,0 UV-I 137 W/m -2,2 C -1,1 C 4,8 km/h (1 Bft) 95,65 %
17.12.2018 10:45 23,1 C -1,1 C 2,2 C 2,8 C 52 % 92 % 1024,9 hPa 0,0 l/m 3,2 km/h (1 Bft) W-NW 292 0 min 0,000 mm 0,0 UV-I 137 W/m -2,2 C -1,1 C 4,8 km/h (1 Bft) 95,65 %
17.12.2018 10:44 23,1 C -1,2 C 1,7 C 2,8 C 52 % 92 % 1024,9 hPa 0,0 l/m 1,6 km/h (1 Bft) W-NW 292 0 min 0,000 mm 0,0 UV-I 137 W/m -2,3 C -1,2 C 3,2 km/h (1 Bft) 91,30 %
17.12.2018 10:43 23,1 C -1,2 C 1,7 C 2,8 C 52 % 92 % 1024,9 hPa 0,0 l/m 0,0 km/h (0 Bft) W-NW 292 0 min 0,000 mm 0,0 UV-I 134 W/m -2,3 C -1,2 C 1,6 km/h (1 Bft) 91,30 %
17.12.2018 10:42 23,1 C -1,2 C 1,7 C 2,8 C 52 % 92 % 1024,9 hPa 0,0 l/m 3,2 km/h (1 Bft) W-NW 292 0 min 0,000 mm 0,0 UV-I 128 W/m -2,3 C -1,2 C 4,8 km/h (1 Bft) 95,65 %
17.12.2018 10:41 23,1 C -1,2 C 1,7 C 2,8 C 52 % 92 % 1024,9 hPa 0,0 l/m 1,6 km/h (1 Bft) W-NW 292 0 min 0,000 mm 0,0 UV-I 128 W/m -2,3 C -1,2 C 3,2 km/h (1 Bft) 95,65 %
17.12.2018 10:40 23,1 C -1,2 C 1,7 C 2,8 C 52 % 92 % 1024,9 hPa 0,0 l/m 4,8 km/h (1 Bft) W-NW 292 0 min 0,000 mm 0,0 UV-I 130 W/m -2,3 C -1,2 C 6,4 km/h (2 Bft) 86,96 %
17.12.2018 10:39 23,1 C -1,3 C 1,7 C 2,8 C 52 % 92 % 1024,9 hPa 0,0 l/m 3,2 km/h (1 Bft) W-NW 292 0 min 0,000 mm 0,0 UV-I 128 W/m -2,4 C -1,3 C 6,4 km/h (2 Bft) 95,65 %
17.12.2018 10:38 23,1 C -1,3 C 1,1 C 2,8 C 52 % 92 % 1024,9 hPa 0,0 l/m 3,2 km/h (1 Bft) W-NW 292 0 min 0,000 mm 0,0 UV-I 128 W/m -2,4 C -1,3 C 4,8 km/h (1 Bft) 95,65 %
17.12.2018 10:37 23,1 C -1,3 C 1,1 C 2,8 C 52 % 92 % 1024,9 hPa 0,0 l/m 3,2 km/h (1 Bft) W-NW 292 0 min 0,000 mm 0,0 UV-I 127 W/m -2,4 C -1,3 C 4,8 km/h (1 Bft) 95,65 %
17.12.2018 10:36 23,1 C -1,3 C 1,1 C 2,8 C 52 % 92 % 1024,9 hPa 0,0 l/m 3,2 km/h (1 Bft) W-NW 292 0 min 0,000 mm 0,0 UV-I 121 W/m -2,4 C -1,3 C 6,4 km/h (2 Bft) 100,00 %
17.12.2018 10:35 23,1 C -1,3 C 1,1 C 2,8 C 52 % 92 % 1024,9 hPa 0,0 l/m 1,6 km/h (1 Bft) W-NW 292 0 min 0,000 mm 0,0 UV-I 118 W/m -2,4 C -1,3 C 3,2 km/h (1 Bft) 91,30 %
17.12.2018 10:34 23,1 C -1,3 C 1,1 C 2,8 C 52 % 92 % 1024,9 hPa 0,0 l/m 1,6 km/h (1 Bft) W-NW 292 0 min 0,000 mm 0,0 UV-I 116 W/m -2,4 C -1,3 C 3,2 km/h (1 Bft) 95,65 %
17.12.2018 10:33 23,1 C -1,4 C 1,1 C 2,8 C 52 % 92 % 1024,9 hPa 0,0 l/m 3,2 km/h (1 Bft) W-NW 292 0 min 0,000 mm 0,0 UV-I 114 W/m -2,5 C -1,4 C 6,4 km/h (2 Bft) 95,65 %
17.12.2018 10:32 23,1 C -1,4 C 1,1 C 2,8 C 52 % 92 % 1024,9 hPa 0,0 l/m 1,6 km/h (1 Bft) W-NW 292 0 min 0,000 mm 0,0 UV-I 113 W/m -2,5 C -1,4 C 4,8 km/h (1 Bft) 91,30 %
17.12.2018 10:31 23,1 C -1,4 C 1,1 C 2,8 C 52 % 92 % 1024,9 hPa 0,0 l/m 3,2 km/h (1 Bft) W-NW 292 0 min 0,000 mm 0,0 UV-I 116 W/m -2,5 C -1,4 C 4,8 km/h (1 Bft) 91,30 %
17.12.2018 10:30 23,1 C -1,4 C 1,1 C 2,8 C 52 % 92 % 1024,9 hPa 0,0 l/m 0,0 km/h (0 Bft) N 0 0 min 0,000 mm 0,0 UV-I 120 W/m -2,5 C -1,4 C 0,0 km/h (0 Bft) 100,00 %
17.12.2018 10:29 23,1 C -1,4 C 1,1 C 2,8 C 52 % 92 % 1024,9 hPa 0,0 l/m 0,0 km/h (0 Bft) W-NW 292 0 min 0,000 mm 0,0 UV-I 118 W/m -2,5 C -1,4 C 1,6 km/h (1 Bft) 82,61 %
17.12.2018 10:28 23,1 C -1,4 C 1,1 C 2,8 C 52 % 92 % 1024,9 hPa 0,0 l/m 3,2 km/h (1 Bft) W-NW 292 0 min 0,000 mm 0,0 UV-I 111 W/m -2,5 C -1,4 C 4,8 km/h (1 Bft) 95,65 %
17.12.2018 10:27 23,1 C -1,4 C 1,1 C 2,8 C 52 % 93 % 1024,9 hPa 0,0 l/m 1,6 km/h (1 Bft) W-NW 292 0 min 0,000 mm 0,0 UV-I 105 W/m -2,4 C -1,4 C 3,2 km/h (1 Bft) 91,30 %
17.12.2018 10:26 23,1 C -1,4 C 1,1 C 2,8 C 52 % 93 % 1024,9 hPa 0,0 l/m 3,2 km/h (1 Bft) W-NW 292 0 min 0,000 mm 0,0 UV-I 104 W/m -2,4 C -1,4 C 4,8 km/h (1 Bft) 91,30 %
17.12.2018 10:25 23,1 C -1,4 C 1,1 C 2,8 C 52 % 93 % 1024,9 hPa 0,0 l/m 3,2 km/h (1 Bft) W-NW 292 0 min 0,000 mm 0,0 UV-I 102 W/m -2,4 C -1,4 C 4,8 km/h (1 Bft) 95,65 %
17.12.2018 10:24 23,1 C -1,4 C 1,1 C 2,8 C 52 % 93 % 1024,9 hPa 0,0 l/m 3,2 km/h (1 Bft) W-NW 292 0 min 0,000 mm 0,0 UV-I 102 W/m -2,4 C -1,4 C 4,8 km/h (1 Bft) 95,65 %
17.12.2018 10:23 23,1 C -1,4 C 1,1 C 2,8 C 52 % 92 % 1024,9 hPa 0,0 l/m 0,0 km/h (0 Bft) W-NW 292 0 min 0,000 mm 0,0 UV-I 102 W/m -2,5 C -1,4 C 3,2 km/h (1 Bft) 86,96 %
17.12.2018 10:22 23,1 C -1,4 C 1,1 C 2,8 C 52 % 92 % 1024,9 hPa 0,0 l/m 3,2 km/h (1 Bft) W-NW 292 0 min 0,000 mm 0,0 UV-I 102 W/m -2,5 C -1,4 C 4,8 km/h (1 Bft) 86,96 %
17.12.2018 10:21 23,1 C -1,4 C 1,1 C 2,8 C 52 % 92 % 1024,9 hPa 0,0 l/m 3,2 km/h (1 Bft) W-NW 292 0 min 0,000 mm 0,0 UV-I 102 W/m -2,5 C -1,4 C 4,8 km/h (1 Bft) 100,00 %
17.12.2018 10:20 23,1 C -1,4 C 1,1 C 2,8 C 52 % 93 % 1024,9 hPa 0,0 l/m 1,6 km/h (1 Bft) W-NW 292 0 min 0,000 mm 0,0 UV-I 104 W/m -2,4 C -1,4 C 3,2 km/h (1 Bft) 86,96 %
17.12.2018 10:19 23,1 C -1,4 C 1,1 C 2,8 C 52 % 93 % 1024,9 hPa 0,0 l/m 3,2 km/h (1 Bft) W-NW 292 0 min 0,000 mm 0,0 UV-I 100 W/m -2,4 C -1,4 C 4,8 km/h (1 Bft) 95,65 %
17.12.2018 10:18 23,1 C -1,4 C 1,1 C 2,8 C 52 % 93 % 1024,9 hPa 0,0 l/m 4,8 km/h (1 Bft) W-NW 292 0 min 0,000 mm 0,0 UV-I 102 W/m -2,4 C -1,4 C 4,8 km/h (1 Bft) 91,30 %
17.12.2018 10:17 23,1 C -1,4 C 1,1 C 2,8 C 52 % 93 % 1024,9 hPa 0,0 l/m 4,8 km/h (1 Bft) W-NW 292 0 min 0,000 mm 0,0 UV-I 105 W/m -2,4 C -1,4 C 4,8 km/h (1 Bft) 91,30 %
17.12.2018 10:16 23,1 C -1,4 C 1,1 C 2,8 C 52 % 93 % 1024,9 hPa 0,0 l/m 1,6 km/h (1 Bft) W-NW 292 0 min 0,000 mm 0,0 UV-I 107 W/m -2,4 C -1,4 C 6,4 km/h (2 Bft) 86,96 %
17.12.2018 10:15 23,1 C -1,4 C 1,1 C 2,8 C 52 % 93 % 1024,9 hPa 0,0 l/m 3,2 km/h (1 Bft) W-NW 292 0 min 0,000 mm 0,0 UV-I 104 W/m -2,4 C -1,4 C 4,8 km/h (1 Bft) 95,65 %
17.12.2018 10:14 23,1 C -1,4 C 1,1 C 2,8 C 52 % 93 % 1024,7 hPa 0,0 l/m 1,6 km/h (1 Bft) W 270 0 min 0,000 mm 0,0 UV-I 102 W/m -2,4 C -1,4 C 3,2 km/h (1 Bft) 95,65 %
17.12.2018 10:13 23,1 C -1,4 C 1,1 C 2,8 C 52 % 93 % 1024,7 hPa 0,0 l/m 3,2 km/h (1 Bft) W 270 0 min 0,000 mm 0,0 UV-I 100 W/m -2,4 C -1,4 C 4,8 km/h (1 Bft) 91,30 %
17.12.2018 10:12 23,1 C -1,4 C 1,1 C 2,8 C 52 % 93 % 1024,7 hPa 0,0 l/m 3,2 km/h (1 Bft) W 270 0 min 0,000 mm 0,0 UV-I 95 W/m -2,4 C -1,4 C 4,8 km/h (1 Bft) 95,65 %
17.12.2018 10:11 23,1 C -1,5 C 0,6 C 2,8 C 52 % 93 % 1024,7 hPa 0,0 l/m 3,2 km/h (1 Bft) W 270 0 min 0,000 mm 0,0 UV-I 93 W/m -2,5 C -1,5 C 4,8 km/h (1 Bft) 91,30 %
17.12.2018 10:10 23,1 C -1,5 C 0,6 C 2,8 C 52 % 93 % 1024,7 hPa 0,0 l/m 3,2 km/h (1 Bft) W 270 0 min 0,000 mm 0,0 UV-I 91 W/m -2,5 C -1,5 C 4,8 km/h (1 Bft) 91,30 %
17.12.2018 10:09 23,1 C -1,5 C 0,6 C 2,8 C 52 % 93 % 1024,7 hPa 0,0 l/m 4,8 km/h (1 Bft) W 270 0 min 0,000 mm 0,0 UV-I 90 W/m -2,5 C -1,5 C 4,8 km/h (1 Bft) 95,65 %
17.12.2018 10:08 23,1 C -1,5 C 0,6 C 2,8 C 52 % 93 % 1024,7 hPa 0,0 l/m 1,6 km/h (1 Bft) W 270 0 min 0,000 mm 0,0 UV-I 84 W/m -2,5 C -1,5 C 4,8 km/h (1 Bft) 95,65 %
17.12.2018 10:07 23,1 C -1,5 C 0,6 C 2,8 C 52 % 93 % 1024,7 hPa 0,0 l/m 1,6 km/h (1 Bft) W 270 0 min 0,000 mm 0,0 UV-I 81 W/m -2,5 C -1,5 C 1,6 km/h (1 Bft) 91,30 %
17.12.2018 10:06 23,1 C -1,5 C 0,6 C 2,8 C 52 % 93 % 1024,7 hPa 0,0 l/m 3,2 km/h (1 Bft) W 270 0 min 0,000 mm 0,0 UV-I 83 W/m -2,5 C -1,5 C 4,8 km/h (1 Bft) 100,00 %
17.12.2018 10:05 23,1 C -1,5 C 0,6 C 2,8 C 52 % 93 % 1024,7 hPa 0,0 l/m 3,2 km/h (1 Bft) W 270 0 min 0,000 mm 0,0 UV-I 83 W/m -2,5 C -1,5 C 4,8 km/h (1 Bft) 91,30 %
17.12.2018 10:04 23,1 C -1,5 C 0,6 C 2,8 C 52 % 93 % 1024,7 hPa 0,0 l/m 1,6 km/h (1 Bft) W 270 0 min 0,000 mm 0,0 UV-I 84 W/m -2,5 C -1,5 C 4,8 km/h (1 Bft) 95,65 %
17.12.2018 10:03 23,1 C -1,5 C 0,6 C 2,8 C 52 % 93 % 1024,7 hPa 0,0 l/m 1,6 km/h (1 Bft) W 270 0 min 0,000 mm 0,0 UV-I 84 W/m -2,5 C -1,5 C 4,8 km/h (1 Bft) 91,30 %
17.12.2018 10:02 23,1 C -1,5 C 0,6 C 2,8 C 52 % 93 % 1024,7 hPa 0,0 l/m 1,6 km/h (1 Bft) W 270 0 min 0,000 mm 0,0 UV-I 88 W/m -2,5 C -1,5 C 3,2 km/h (1 Bft) 100,00 %
17.12.2018 10:01 23,1 C -1,6 C 0,6 C 2,8 C 52 % 93 % 1024,7 hPa 0,0 l/m 3,2 km/h (1 Bft) W 270 0 min 0,000 mm 0,0 UV-I 88 W/m -2,6 C -1,6 C 3,2 km/h (1 Bft) 91,30 %
17.12.2018 10:00 23,1 C -1,6 C 0,6 C 2,8 C 52 % 93 % 1024,7 hPa 0,0 l/m 3,2 km/h (1 Bft) W 270 0 min 0,025 mm 0,0 UV-I 88 W/m -2,6 C -1,6 C 3,2 km/h (1 Bft) 95,65 %
17.12.2018 09:59 23,1 C -1,6 C 0,6 C 2,8 C 52 % 93 % 1024,4 hPa 0,0 l/m 3,2 km/h (1 Bft) W 270 0 min 0,000 mm 0,0 UV-I 90 W/m -2,6 C -1,6 C 4,8 km/h (1 Bft) 91,30 %
17.12.2018 09:58 23,1 C -1,6 C 0,6 C 2,8 C 52 % 93 % 1024,4 hPa 0,0 l/m 3,2 km/h (1 Bft) W 270 0 min 0,000 mm 0,0 UV-I 90 W/m -2,6 C -1,6 C 4,8 km/h (1 Bft) 95,65 %
17.12.2018 09:57 23,1 C -1,6 C 0,6 C 2,8 C 52 % 93 % 1024,4 hPa 0,0 l/m 3,2 km/h (1 Bft) W 270 0 min 0,000 mm 0,0 UV-I 91 W/m -2,6 C -1,6 C 4,8 km/h (1 Bft) 86,96 %
17.12.2018 09:56 23,1 C -1,6 C 0,6 C 2,8 C 52 % 93 % 1024,4 hPa 0,0 l/m 3,2 km/h (1 Bft) W 270 0 min 0,000 mm 0,0 UV-I 97 W/m -2,6 C -1,6 C 4,8 km/h (1 Bft) 95,65 %
17.12.2018 09:55 23,1 C -1,6 C 0,6 C 2,8 C 52 % 93 % 1024,4 hPa 0,0 l/m 1,6 km/h (1 Bft) W 270 0 min 0,000 mm 0,0 UV-I 97 W/m -2,6 C -1,6 C 4,8 km/h (1 Bft) 86,96 %
17.12.2018 09:54 23,1 C -1,6 C 0,0 C 2,8 C 52 % 93 % 1024,4 hPa 0,0 l/m 3,2 km/h (1 Bft) W 270 0 min 0,000 mm 0,0 UV-I 95 W/m -2,6 C -1,6 C 4,8 km/h (1 Bft) 91,30 %
17.12.2018 09:53 23,1 C -1,6 C 0,0 C 2,8 C 52 % 93 % 1024,4 hPa 0,0 l/m 3,2 km/h (1 Bft) W 270 0 min 0,000 mm 0,0 UV-I 91 W/m -2,6 C -1,6 C 4,8 km/h (1 Bft) 95,65 %
17.12.2018 09:52 23,1 C -1,6 C 0,0 C 2,8 C 52 % 93 % 1024,4 hPa 0,0 l/m 0,0 km/h (0 Bft) W 270 0 min 0,000 mm 0,0 UV-I 90 W/m -2,6 C -1,6 C 1,6 km/h (1 Bft) 95,65 %
17.12.2018 09:51 23,1 C -1,6 C 0,0 C 2,8 C 52 % 93 % 1024,4 hPa 0,0 l/m 1,6 km/h (1 Bft) W 270 0 min 0,000 mm 0,0 UV-I 90 W/m -2,6 C -1,6 C 4,8 km/h (1 Bft) 86,96 %
17.12.2018 09:50 23,1 C -1,6 C 0,0 C 2,8 C 52 % 93 % 1024,4 hPa 0,0 l/m 3,2 km/h (1 Bft) W 270 0 min 0,000 mm 0,0 UV-I 90 W/m -2,6 C -1,6 C 3,2 km/h (1 Bft) 95,65 %
17.12.2018 09:49 23,1 C -1,6 C 0,0 C 2,8 C 52 % 93 % 1024,4 hPa 0,0 l/m 3,2 km/h (1 Bft) W 270 0 min 0,000 mm 0,0 UV-I 88 W/m -2,6 C -1,6 C 4,8 km/h (1 Bft) 95,65 %
17.12.2018 09:48 23,1 C -1,6 C 0,0 C 2,8 C 52 % 93 % 1024,4 hPa 0,0 l/m 1,6 km/h (1 Bft) W 270 0 min 0,000 mm 0,0 UV-I 88 W/m -2,6 C -1,6 C 4,8 km/h (1 Bft) 91,30 %
17.12.2018 09:47 23,1 C -1,6 C 0,0 C 2,8 C 52 % 93 % 1024,4 hPa 0,0 l/m 3,2 km/h (1 Bft) W 270 0 min 0,000 mm 0,0 UV-I 84 W/m -2,6 C -1,6 C 3,2 km/h (1 Bft) 100,00 %
17.12.2018 09:46 23,1 C -1,6 C 0,0 C 2,8 C 52 % 93 % 1024,4 hPa 0,0 l/m 3,2 km/h (1 Bft) W 270 0 min 0,000 mm 0,0 UV-I 79 W/m -2,6 C -1,6 C 4,8 km/h (1 Bft) 91,30 %
17.12.2018 09:45 23,1 C -1,6 C 0,0 C 2,8 C 52 % 93 % 1024,4 hPa 0,0 l/m 1,6 km/h (1 Bft) W 270 0 min 0,000 mm 0,0 UV-I 77 W/m -2,6 C -1,6 C 3,2 km/h (1 Bft) 91,30 %
17.12.2018 09:44 23,1 C -1,6 C 0,0 C 2,8 C 52 % 93 % 1024,3 hPa 0,0 l/m 0,0 km/h (0 Bft) W 270 0 min 0,000 mm 0,0 UV-I 74 W/m -2,6 C -1,6 C 1,6 km/h (1 Bft) 95,65 %
17.12.2018 09:43 23,1 C -1,6 C 0,0 C 2,8 C 52 % 94 % 1024,3 hPa 0,0 l/m 3,2 km/h (1 Bft) W 270 0 min 0,000 mm 0,0 UV-I 72 W/m -2,4 C -1,6 C 4,8 km/h (1 Bft) 95,65 %
17.12.2018 09:42 23,1 C -1,6 C 0,0 C 2,8 C 52 % 94 % 1024,3 hPa 0,0 l/m 3,2 km/h (1 Bft) W 270 0 min 0,000 mm 0,0 UV-I 72 W/m -2,4 C -1,6 C 4,8 km/h (1 Bft) 86,96 %
17.12.2018 09:41 23,1 C -1,6 C 0,0 C 2,8 C 52 % 94 % 1024,3 hPa 0,0 l/m 4,8 km/h (1 Bft) W 270 0 min 0,000 mm 0,0 UV-I 69 W/m -2,4 C -1,6 C 6,4 km/h (2 Bft) 100,00 %
17.12.2018 09:40 23,1 C -1,6 C 0,0 C 2,8 C 52 % 94 % 1024,3 hPa 0,0 l/m 4,8 km/h (1 Bft) W 270 0 min 0,000 mm 0,0 UV-I 67 W/m -2,4 C -1,6 C 6,4 km/h (2 Bft) 91,30 %
17.12.2018 09:39 23,1 C -1,6 C 0,0 C 2,8 C 52 % 94 % 1024,3 hPa 0,0 l/m 1,6 km/h (1 Bft) W 270 0 min 0,000 mm 0,0 UV-I 65 W/m -2,4 C -1,6 C 4,8 km/h (1 Bft) 95,65 %
17.12.2018 09:38 23,1 C -1,7 C 0,0 C 2,8 C 52 % 94 % 1024,3 hPa 0,0 l/m 1,6 km/h (1 Bft) W 270 0 min 0,000 mm 0,0 UV-I 65 W/m -2,5 C -1,7 C 3,2 km/h (1 Bft) 95,65 %
17.12.2018 09:37 23,1 C -1,7 C 0,0 C 2,8 C 52 % 94 % 1024,3 hPa 0,0 l/m 1,6 km/h (1 Bft) W 270 0 min 0,000 mm 0,0 UV-I 65 W/m -2,5 C -1,7 C 3,2 km/h (1 Bft) 95,65 %
17.12.2018 09:36 23,1 C -1,7 C 0,0 C 2,8 C 52 % 94 % 1024,3 hPa 0,0 l/m 0,0 km/h (0 Bft) N 0 0 min 0,000 mm 0,0 UV-I 65 W/m -2,5 C -1,7 C 0,0 km/h (0 Bft) 91,30 %
17.12.2018 09:35 23,1 C -1,7 C 0,0 C 2,8 C 52 % 94 % 1024,3 hPa 0,0 l/m 0,0 km/h (0 Bft) W 270 0 min 0,000 mm 0,0 UV-I 65 W/m -2,5 C -1,7 C 3,2 km/h (1 Bft) 95,65 %
17.12.2018 09:34 23,1 C -1,7 C 0,0 C 2,8 C 52 % 94 % 1024,3 hPa 0,0 l/m 3,2 km/h (1 Bft) W 270 0 min 0,000 mm 0,0 UV-I 65 W/m -2,5 C -1,7 C 4,8 km/h (1 Bft) 95,65 %
17.12.2018 09:33 23,1 C -1,7 C 0,0 C 2,8 C 52 % 94 % 1024,3 hPa 0,0 l/m 3,2 km/h (1 Bft) W 270 0 min 0,000 mm 0,0 UV-I 63 W/m -2,5 C -1,7 C 4,8 km/h (1 Bft) 91,30 %
17.12.2018 09:32 23,1 C -1,7 C 0,0 C 2,8 C 52 % 94 % 1024,3 hPa 0,0 l/m 1,6 km/h (1 Bft) W 270 0 min 0,000 mm 0,0 UV-I 63 W/m -2,5 C -1,7 C 3,2 km/h (1 Bft) 95,65 %
17.12.2018 09:31 23,1 C -1,7 C 0,0 C 2,8 C 52 % 94 % 1024,3 hPa 0,0 l/m 1,6 km/h (1 Bft) W 270 0 min 0,000 mm 0,0 UV-I 63 W/m -2,5 C -1,7 C 3,2 km/h (1 Bft) 91,30 %
17.12.2018 09:30 23,1 C -1,7 C 0,0 C 2,8 C 52 % 94 % 1024,3 hPa 0,0 l/m 3,2 km/h (1 Bft) W 270 0 min 0,000 mm 0,0 UV-I 65 W/m -2,5 C -1,7 C 4,8 km/h (1 Bft) 95,65 %
17.12.2018 09:29 23,1 C -1,7 C -0,6 C 2,8 C 52 % 94 % 1023,9 hPa 0,0 l/m 3,2 km/h (1 Bft) W 270 0 min 0,000 mm 0,0 UV-I 65 W/m -2,5 C -1,7 C 6,4 km/h (2 Bft) 95,65 %
17.12.2018 09:28 23,1 C -1,7 C 0,0 C 2,8 C 52 % 94 % 1023,9 hPa 0,0 l/m 3,2 km/h (1 Bft) W 270 0 min 0,000 mm 0,0 UV-I 63 W/m -2,5 C -1,7 C 4,8 km/h (1 Bft) 91,30 %
17.12.2018 09:27 23,1 C -1,7 C 0,0 C 2,8 C 52 % 94 % 1023,9 hPa 0,0 l/m 1,6 km/h (1 Bft) W 270 0 min 0,000 mm 0,0 UV-I 62 W/m -2,5 C -1,7 C 4,8 km/h (1 Bft) 91,30 %
17.12.2018 09:26 23,1 C -1,7 C 0,0 C 2,8 C 52 % 94 % 1023,9 hPa 0,0 l/m 3,2 km/h (1 Bft) W 270 0 min 0,000 mm 0,0 UV-I 62 W/m -2,5 C -1,7 C 4,8 km/h (1 Bft) 100,00 %
17.12.2018 09:25 23,1 C -1,7 C 0,0 C 2,8 C 52 % 94 % 1023,9 hPa 0,0 l/m 4,8 km/h (1 Bft) W 270 0 min 0,000 mm 0,0 UV-I 62 W/m -2,5 C -1,7 C 6,4 km/h (2 Bft) 91,30 %
17.12.2018 09:24 23,1 C -1,8 C 0,0 C 2,8 C 52 % 94 % 1023,9 hPa 0,0 l/m 4,8 km/h (1 Bft) W 270 0 min 0,000 mm 0,0 UV-I 63 W/m -2,6 C -1,8 C 4,8 km/h (1 Bft) 91,30 %
17.12.2018 09:23 23,1 C -1,8 C -0,6 C 2,8 C 52 % 94 % 1023,9 hPa 0,0 l/m 4,8 km/h (1 Bft) W 270 0 min 0,000 mm 0,0 UV-I 60 W/m -2,6 C -1,8 C 4,8 km/h (1 Bft) 95,65 %
17.12.2018 09:22 23,1 C -1,8 C -0,6 C 2,8 C 52 % 94 % 1023,9 hPa 0,0 l/m 4,8 km/h (1 Bft) W 270 0 min 0,000 mm 0,0 UV-I 58 W/m -2,6 C -1,8 C 6,4 km/h (2 Bft) 95,65 %
17.12.2018 09:21 23,1 C -1,8 C -0,6 C 2,8 C 52 % 94 % 1023,9 hPa 0,0 l/m 1,6 km/h (1 Bft) W 270 0 min 0,000 mm 0,0 UV-I 56 W/m -2,6 C -1,8 C 4,8 km/h (1 Bft) 91,30 %
17.12.2018 09:20 23,1 C -1,8 C -0,6 C 2,8 C 52 % 94 % 1023,9 hPa 0,0 l/m 1,6 km/h (1 Bft) W 270 0 min 0,000 mm 0,0 UV-I 54 W/m -2,6 C -1,8 C 3,2 km/h (1 Bft) 95,65 %
17.12.2018 09:19 23,1 C -1,8 C -0,6 C 2,8 C 52 % 94 % 1023,9 hPa 0,0 l/m 3,2 km/h (1 Bft) W 270 0 min 0,000 mm 0,0 UV-I 54 W/m -2,6 C -1,8 C 4,8 km/h (1 Bft) 95,65 %
17.12.2018 09:18 23,1 C -1,8 C 0,0 C 2,8 C 52 % 94 % 1023,9 hPa 0,0 l/m 3,2 km/h (1 Bft) W 270 0 min 0,000 mm 0,0 UV-I 54 W/m -2,6 C -1,8 C 6,4 km/h (2 Bft) 91,30 %
17.12.2018 09:17 23,1 C -1,8 C 0,0 C 2,8 C 52 % 94 % 1023,9 hPa 0,0 l/m 3,2 km/h (1 Bft) W 270 0 min 0,000 mm 0,0 UV-I 54 W/m -2,6 C -1,8 C 4,8 km/h (1 Bft) 91,30 %
17.12.2018 09:16 23,1 C -1,8 C -0,6 C 2,8 C 52 % 94 % 1023,9 hPa 0,0 l/m 1,6 km/h (1 Bft) W 270 0 min 0,000 mm 0,0 UV-I 54 W/m -2,6 C -1,8 C 3,2 km/h (1 Bft) 95,65 %
17.12.2018 09:15 23,1 C -1,8 C -0,6 C 2,8 C 52 % 94 % 1023,9 hPa 0,0 l/m 1,6 km/h (1 Bft) W 270 0 min 0,000 mm 0,0 UV-I 58 W/m -2,6 C -1,8 C 3,2 km/h (1 Bft) 86,96 %
17.12.2018 09:14 23,1 C -1,8 C -0,6 C 2,8 C 53 % 94 % 1023,8 hPa 0,0 l/m 3,2 km/h (1 Bft) W 270 0 min 0,000 mm 0,0 UV-I 56 W/m -2,6 C -1,8 C 6,4 km/h (2 Bft) 86,96 %
17.12.2018 09:13 23,1 C -1,8 C -0,6 C 2,8 C 52 % 94 % 1023,8 hPa 0,0 l/m 3,2 km/h (1 Bft) W 270 0 min 0,000 mm 0,0 UV-I 56 W/m -2,6 C -1,8 C 6,4 km/h (2 Bft) 95,65 %
17.12.2018 09:12 23,1 C -1,8 C -0,6 C 2,8 C 52 % 94 % 1023,8 hPa 0,0 l/m 4,8 km/h (1 Bft) W 270 0 min 0,000 mm 0,0 UV-I 54 W/m -2,6 C -1,8 C 4,8 km/h (1 Bft) 91,30 %
17.12.2018 09:11 23,1 C -1,8 C -0,6 C 2,8 C 52 % 94 % 1023,8 hPa 0,0 l/m 1,6 km/h (1 Bft) W 270 0 min 0,000 mm 0,0 UV-I 54 W/m -2,6 C -1,8 C 4,8 km/h (1 Bft) 91,30 %
17.12.2018 09:10 23,1 C -1,8 C -0,6 C 2,8 C 52 % 94 % 1023,8 hPa 0,0 l/m 1,6 km/h (1 Bft) W 270 0 min 0,000 mm 0,0 UV-I 54 W/m -2,6 C -1,8 C 3,2 km/h (1 Bft) 95,65 %
17.12.2018 09:09 23,1 C -1,9 C -0,6 C 2,8 C 52 % 94 % 1023,8 hPa 0,0 l/m 3,2 km/h (1 Bft) W 270 0 min 0,000 mm 0,0 UV-I 54 W/m -2,7 C -1,9 C 6,4 km/h (2 Bft) 91,30 %
17.12.2018 09:08 23,1 C -1,9 C -0,6 C 2,8 C 52 % 94 % 1023,8 hPa 0,0 l/m 3,2 km/h (1 Bft) W 270 0 min 0,000 mm 0,0 UV-I 53 W/m -2,7 C -1,9 C 4,8 km/h (1 Bft) 86,96 %
17.12.2018 09:07 23,1 C -1,9 C -0,6 C 2,8 C 52 % 94 % 1023,8 hPa 0,0 l/m 3,2 km/h (1 Bft) W 270 0 min 0,000 mm 0,0 UV-I 51 W/m -2,7 C -1,9 C 4,8 km/h (1 Bft) 95,65 %
17.12.2018 09:06 23,1 C -1,9 C -0,6 C 2,8 C 53 % 94 % 1023,8 hPa 0,0 l/m 0,0 km/h (0 Bft) W 270 0 min 0,000 mm 0,0 UV-I 49 W/m -2,7 C -1,9 C 1,6 km/h (1 Bft) 86,96 %
17.12.2018 09:05 23,1 C -1,9 C -0,6 C 2,8 C 52 % 94 % 1023,8 hPa 0,0 l/m 0,0 km/h (0 Bft) N 0 0 min 0,000 mm 0,0 UV-I 46 W/m -2,7 C -1,9 C 0,0 km/h (0 Bft) 95,65 %
17.12.2018 09:04 23,1 C -1,9 C -0,6 C 2,8 C 52 % 94 % 1023,8 hPa 0,0 l/m 0,0 km/h (0 Bft) W 270 0 min 0,000 mm 0,0 UV-I 46 W/m -2,7 C -1,9 C 3,2 km/h (1 Bft) 91,30 %
17.12.2018 09:03 23,1 C -1,9 C -0,6 C 2,8 C 52 % 94 % 1023,8 hPa 0,0 l/m 1,6 km/h (1 Bft) W 270 0 min 0,000 mm 0,0 UV-I 44 W/m -2,7 C -1,9 C 3,2 km/h (1 Bft) 91,30 %
17.12.2018 09:02 23,1 C -1,9 C -0,6 C 2,8 C 52 % 94 % 1023,8 hPa 0,0 l/m 1,6 km/h (1 Bft) W 270 0 min 0,000 mm 0,0 UV-I 42 W/m -2,7 C -1,9 C 3,2 km/h (1 Bft) 91,30 %
17.12.2018 09:01 23,1 C -1,9 C -0,6 C 2,8 C 52 % 94 % 1023,8 hPa 0,0 l/m 0,0 km/h (0 Bft) W 270 0 min 0,000 mm 0,0 UV-I 40 W/m -2,7 C -1,9 C 1,6 km/h (1 Bft) 95,65 %
17.12.2018 09:00 23,1 C -1,9 C -0,6 C 2,8 C 52 % 94 % 1023,8 hPa 0,0 l/m 0,0 km/h (0 Bft) W 270 0 min 0,000 mm 0,0 UV-I 40 W/m -2,7 C -1,9 C 3,2 km/h (1 Bft) 91,30 %
17.12.2018 08:59 23,1 C -1,9 C -0,6 C 2,8 C 52 % 94 % 1023,5 hPa 0,0 l/m 0,0 km/h (0 Bft) W 270 0 min 0,000 mm 0,0 UV-I 39 W/m -2,7 C -1,9 C 1,6 km/h (1 Bft) 91,30 %
17.12.2018 08:58 23,1 C -1,9 C -0,6 C 2,8 C 52 % 94 % 1023,5 hPa 0,0 l/m 3,2 km/h (1 Bft) W 270 0 min 0,000 mm 0,0 UV-I 37 W/m -2,7 C -1,9 C 3,2 km/h (1 Bft) 95,65 %
17.12.2018 08:57 23,0 C -1,9 C -0,6 C 2,8 C 52 % 94 % 1023,5 hPa 0,0 l/m 3,2 km/h (1 Bft) W 270 0 min 0,000 mm 0,0 UV-I 33 W/m -2,7 C -1,9 C 4,8 km/h (1 Bft) 82,61 %
17.12.2018 08:56 23,0 C -1,9 C -0,6 C 2,8 C 52 % 94 % 1023,5 hPa 0,0 l/m 1,6 km/h (1 Bft) W 270 0 min 0,000 mm 0,0 UV-I 32 W/m -2,7 C -1,9 C 4,8 km/h (1 Bft) 95,65 %
17.12.2018 08:55 23,0 C -1,9 C -0,6 C 2,8 C 52 % 94 % 1023,5 hPa 0,0 l/m 1,6 km/h (1 Bft) W 270 0 min 0,000 mm 0,0 UV-I 30 W/m -2,7 C -1,9 C 4,8 km/h (1 Bft) 91,30 %
17.12.2018 08:54 23,0 C -2,0 C -0,6 C 2,8 C 52 % 94 % 1023,5 hPa 0,0 l/m 1,6 km/h (1 Bft) W 270 0 min 0,000 mm 0,0 UV-I 30 W/m -2,8 C -2,0 C 4,8 km/h (1 Bft) 95,65 %
17.12.2018 08:53 23,0 C -2,0 C -0,6 C 2,8 C 52 % 94 % 1023,5 hPa 0,0 l/m 0,0 km/h (0 Bft) N 0 0 min 0,000 mm 0,0 UV-I 30 W/m -2,8 C -2,0 C 0,0 km/h (0 Bft) 86,96 %
17.12.2018 08:52 23,0 C -2,0 C -0,6 C 2,8 C 52 % 94 % 1023,5 hPa 0,0 l/m 0,0 km/h (0 Bft) N 0 0 min 0,000 mm 0,0 UV-I 28 W/m -2,8 C -2,0 C 0,0 km/h (0 Bft) 95,65 %
17.12.2018 08:51 23,0 C -2,0 C -1,1 C 2,8 C 52 % 94 % 1023,5 hPa 0,0 l/m 1,6 km/h (1 Bft) W 270 0 min 0,000 mm 0,0 UV-I 26 W/m -2,8 C -2,0 C 3,2 km/h (1 Bft) 91,30 %
17.12.2018 08:50 23,0 C -2,0 C -1,1 C 2,8 C 52 % 94 % 1023,5 hPa 0,0 l/m 0,0 km/h (0 Bft) W 270 0 min 0,000 mm 0,0 UV-I 26 W/m -2,8 C -2,0 C 1,6 km/h (1 Bft) 95,65 %
17.12.2018 08:49 23,0 C -2,0 C -1,1 C 2,8 C 52 % 94 % 1023,5 hPa 0,0 l/m 1,6 km/h (1 Bft) W 270 0 min 0,000 mm 0,0 UV-I 26 W/m -2,8 C -2,0 C 3,2 km/h (1 Bft) 95,65 %
17.12.2018 08:48 23,0 C -2,0 C -1,1 C 2,8 C 52 % 94 % 1023,5 hPa 0,0 l/m 3,2 km/h (1 Bft) W 270 0 min 0,000 mm 0,0 UV-I 26 W/m -2,8 C -2,0 C 4,8 km/h (1 Bft) 91,30 %
17.12.2018 08:47 23,0 C -2,0 C -1,1 C 2,8 C 52 % 94 % 1023,5 hPa 0,0 l/m 1,6 km/h (1 Bft) W 270 0 min 0,000 mm 0,0 UV-I 26 W/m -2,8 C -2,0 C 3,2 km/h (1 Bft) 86,96 %
17.12.2018 08:46 23,0 C -2,1 C -1,1 C 2,8 C 52 % 94 % 1023,5 hPa 0,0 l/m 1,6 km/h (1 Bft) W 270 0 min 0,000 mm 0,0 UV-I 25 W/m -2,9 C -2,1 C 3,2 km/h (1 Bft) 95,65 %
17.12.2018 08:45 23,0 C -2,1 C -1,1 C 2,8 C 52 % 94 % 1023,5 hPa 0,0 l/m 1,6 km/h (1 Bft) W 270 0 min 0,000 mm 0,0 UV-I 25 W/m -2,9 C -2,1 C 4,8 km/h (1 Bft) 95,65 %
17.12.2018 08:44 23,0 C -2,1 C -1,1 C 2,8 C 52 % 94 % 1023,3 hPa 0,0 l/m 1,6 km/h (1 Bft) W 270 0 min 0,000 mm 0,0 UV-I 23 W/m -2,9 C -2,1 C 4,8 km/h (1 Bft) 86,96 %
17.12.2018 08:43 23,0 C -2,1 C -1,1 C 2,8 C 52 % 94 % 1023,3 hPa 0,0 l/m 1,6 km/h (1 Bft) W 270 0 min 0,000 mm 0,0 UV-I 23 W/m -2,9 C -2,1 C 3,2 km/h (1 Bft) 100,00 %
17.12.2018 08:42 23,0 C -2,1 C -1,1 C 2,8 C 52 % 94 % 1023,3 hPa 0,0 l/m 0,0 km/h (0 Bft) W 270 0 min 0,000 mm 0,0 UV-I 21 W/m -2,9 C -2,1 C 1,6 km/h (1 Bft) 91,30 %
17.12.2018 08:41 23,0 C -2,1 C -1,1 C 2,8 C 52 % 94 % 1023,3 hPa 0,0 l/m 1,6 km/h (1 Bft) W 270 0 min 0,000 mm 0,0 UV-I 21 W/m -2,9 C -2,1 C 3,2 km/h (1 Bft) 95,65 %
17.12.2018 08:40 23,0 C -2,1 C -1,1 C 2,8 C 53 % 94 % 1023,3 hPa 0,0 l/m 1,6 km/h (1 Bft) W 270 0 min 0,000 mm 0,0 UV-I 21 W/m -2,9 C -2,1 C 3,2 km/h (1 Bft) 95,65 %
17.12.2018 08:39 23,0 C -2,1 C -1,1 C 2,8 C 52 % 94 % 1023,3 hPa 0,0 l/m 3,2 km/h (1 Bft) W 270 0 min 0,000 mm 0,0 UV-I 19 W/m -2,9 C -2,1 C 3,2 km/h (1 Bft) 91,30 %
17.12.2018 08:38 23,0 C -2,1 C -1,1 C 2,8 C 52 % 94 % 1023,3 hPa 0,0 l/m 1,6 km/h (1 Bft) W 270 0 min 0,000 mm 0,0 UV-I 18 W/m -2,9 C -2,1 C 3,2 km/h (1 Bft) 91,30 %
17.12.2018 08:37 23,0 C -2,1 C -1,1 C 2,8 C 52 % 94 % 1023,3 hPa 0,0 l/m 0,0 km/h (0 Bft) N 0 0 min 0,000 mm 0,0 UV-I 18 W/m -2,9 C -2,1 C 0,0 km/h (0 Bft) 100,00 %
17.12.2018 08:36 23,0 C -2,1 C -1,1 C 2,8 C 52 % 94 % 1023,3 hPa 0,0 l/m 0,0 km/h (0 Bft) N 0 0 min 0,000 mm 0,0 UV-I 18 W/m -2,9 C -2,1 C 0,0 km/h (0 Bft) 91,30 %
17.12.2018 08:35 23,0 C -2,1 C -1,1 C 2,8 C 52 % 94 % 1023,3 hPa 0,0 l/m 0,0 km/h (0 Bft) N 0 0 min 0,000 mm 0,0 UV-I 18 W/m -2,9 C -2,1 C 0,0 km/h (0 Bft) 95,65 %
17.12.2018 08:34 23,0 C -2,1 C -1,1 C 2,8 C 52 % 93 % 1023,3 hPa 0,0 l/m 0,0 km/h (0 Bft) W 270 0 min 0,000 mm 0,0 UV-I 16 W/m -3,1 C -2,1 C 1,6 km/h (1 Bft) 86,96 %
17.12.2018 08:33 23,0 C -2,1 C -1,1 C 2,8 C 52 % 93 % 1023,3 hPa 0,0 l/m 0,0 km/h (0 Bft) W 270 0 min 0,000 mm 0,0 UV-I 14 W/m -3,1 C -2,1 C 1,6 km/h (1 Bft) 100,00 %
17.12.2018 08:32 23,0 C -2,1 C -1,1 C 2,8 C 52 % 93 % 1023,3 hPa 0,0 l/m 0,0 km/h (0 Bft) N 0 0 min 0,000 mm 0,0 UV-I 14 W/m -3,1 C -2,1 C 0,0 km/h (0 Bft) 86,96 %
17.12.2018 08:31 23,1 C -2,1 C -1,1 C 2,8 C 52 % 93 % 1023,3 hPa 0,0 l/m 0,0 km/h (0 Bft) W 270 0 min 0,000 mm 0,0 UV-I 14 W/m -3,1 C -2,1 C 3,2 km/h (1 Bft) 91,30 %
17.12.2018 08:30 23,1 C -2,1 C -1,1 C 2,8 C 52 % 93 % 1023,3 hPa 0,0 l/m 3,2 km/h (1 Bft) W 270 0 min 0,000 mm 0,0 UV-I 14 W/m -3,1 C -2,1 C 3,2 km/h (1 Bft) 100,00 %
17.12.2018 08:29 23,1 C -2,1 C -1,1 C 2,8 C 52 % 93 % 1023,2 hPa 0,0 l/m 0,0 km/h (0 Bft) W 270 0 min 0,000 mm 0,0 UV-I 14 W/m -3,1 C -2,1 C 3,2 km/h (1 Bft) 91,30 %
17.12.2018 08:28 23,1 C -2,1 C -1,1 C 2,8 C 52 % 93 % 1023,2 hPa 0,0 l/m 0,0 km/h (0 Bft) N 0 0 min 0,000 mm 0,0 UV-I 16 W/m -3,1 C -2,1 C 0,0 km/h (0 Bft) 95,65 %
17.12.2018 08:27 23,1 C -2,1 C -1,1 C 2,8 C 52 % 93 % 1023,2 hPa 0,0 l/m 0,0 km/h (0 Bft) N 0 0 min 0,000 mm 0,0 UV-I 16 W/m -3,1 C -2,1 C 0,0 km/h (0 Bft) 95,65 %
17.12.2018 08:26 23,1 C -2,2 C -1,1 C 2,8 C 52 % 93 % 1023,2 hPa 0,0 l/m 0,0 km/h (0 Bft) W 270 0 min 0,000 mm 0,0 UV-I 16 W/m -3,2 C -2,2 C 1,6 km/h (1 Bft) 95,65 %
17.12.2018 08:25 23,1 C -2,2 C -1,1 C 2,8 C 52 % 93 % 1023,2 hPa 0,0 l/m 0,0 km/h (0 Bft) N 0 0 min 0,000 mm 0,0 UV-I 14 W/m -3,2 C -2,2 C 0,0 km/h (0 Bft) 91,30 %
17.12.2018 08:24 23,1 C -2,2 C -1,1 C 2,8 C 52 % 93 % 1023,2 hPa 0,0 l/m 0,0 km/h (0 Bft) N 0 0 min 0,000 mm 0,0 UV-I 14 W/m -3,2 C -2,2 C 0,0 km/h (0 Bft) 100,00 %
17.12.2018 08:23 23,1 C -2,2 C -1,1 C 2,8 C 52 % 93 % 1023,2 hPa 0,0 l/m 0,0 km/h (0 Bft) N 0 0 min 0,000 mm 0,0 UV-I 14 W/m -3,2 C -2,2 C 0,0 km/h (0 Bft) 91,30 %
17.12.2018 08:22 23,1 C -2,2 C -1,1 C 2,8 C 52 % 93 % 1023,2 hPa 0,0 l/m 0,0 km/h (0 Bft) N 0 0 min 0,000 mm 0,0 UV-I 14 W/m -3,2 C -2,2 C 0,0 km/h (0 Bft) 95,65 %
17.12.2018 08:21 23,1 C -2,2 C -1,1 C 2,8 C 52 % 93 % 1023,2 hPa 0,0 l/m 0,0 km/h (0 Bft) N 0 0 min 0,000 mm 0,0 UV-I 14 W/m -3,2 C -2,2 C 0,0 km/h (0 Bft) 95,65 %
17.12.2018 08:20 23,1 C -2,2 C -1,1 C 2,8 C 52 % 93 % 1023,2 hPa 0,0 l/m 0,0 km/h (0 Bft) W 270 0 min 0,000 mm 0,0 UV-I 14 W/m -3,2 C -2,2 C 3,2 km/h (1 Bft) 91,30 %
17.12.2018 08:19 23,1 C -2,2 C -1,1 C 2,8 C 52 % 93 % 1023,2 hPa 0,0 l/m 3,2 km/h (1 Bft) W 270 0 min 0,000 mm 0,0 UV-I 16 W/m -3,2 C -2,2 C 4,8 km/h (1 Bft) 91,30 %
17.12.2018 08:18 23,1 C -2,2 C -1,1 C 2,8 C 52 % 93 % 1023,2 hPa 0,0 l/m 1,6 km/h (1 Bft) W 270 0 min 0,000 mm 0,0 UV-I 14 W/m -3,2 C -2,2 C 3,2 km/h (1 Bft) 100,00 %
17.12.2018 08:17 23,1 C -2,2 C -1,1 C 2,8 C 52 % 93 % 1023,2 hPa 0,0 l/m 0,0 km/h (0 Bft) W 270 0 min 0,000 mm 0,0 UV-I 14 W/m -3,2 C -2,2 C 3,2 km/h (1 Bft) 91,30 %
17.12.2018 08:16 23,1 C -2,2 C -1,1 C 2,8 C 52 % 93 % 1023,2 hPa 0,0 l/m 0,0 km/h (0 Bft) N 0 0 min 0,000 mm 0,0 UV-I 12 W/m -3,2 C -2,2 C 0,0 km/h (0 Bft) 91,30 %
17.12.2018 08:15 23,1 C -2,2 C -1,1 C 2,8 C 52 % 93 % 1023,2 hPa 0,0 l/m 0,0 km/h (0 Bft) N 0 0 min 0,000 mm 0,0 UV-I 12 W/m -3,2 C -2,2 C 0,0 km/h (0 Bft) 100,00 %
17.12.2018 08:14 23,1 C -2,2 C -1,1 C 2,8 C 52 % 93 % 1022,8 hPa 0,0 l/m 0,0 km/h (0 Bft) W 270 0 min 0,000 mm 0,0 UV-I 12 W/m -3,2 C -2,2 C 1,6 km/h (1 Bft) 91,30 %
17.12.2018 08:13 23,1 C -2,2 C -1,1 C 2,8 C 52 % 93 % 1022,8 hPa 0,0 l/m 1,6 km/h (1 Bft) W 270 0 min 0,000 mm 0,0 UV-I 11 W/m -3,2 C -2,2 C 3,2 km/h (1 Bft) 91,30 %
17.12.2018 08:12 23,1 C -2,2 C -1,1 C 2,8 C 52 % 93 % 1022,8 hPa 0,0 l/m 1,6 km/h (1 Bft) W 270 0 min 0,000 mm 0,0 UV-I 9 W/m -3,2 C -2,2 C 3,2 km/h (1 Bft) 95,65 %
17.12.2018 08:11 23,1 C -2,2 C -1,1 C 2,8 C 52 % 93 % 1022,8 hPa 0,0 l/m 1,6 km/h (1 Bft) W 270 0 min 0,000 mm 0,0 UV-I 9 W/m -3,2 C -2,2 C 3,2 km/h (1 Bft) 95,65 %
17.12.2018 08:10 23,1 C -2,2 C -1,1 C 2,8 C 52 % 93 % 1022,8 hPa 0,0 l/m 0,0 km/h (0 Bft) N 0 0 min 0,000 mm 0,0 UV-I 7 W/m -3,2 C -2,2 C 0,0 km/h (0 Bft) 86,96 %
17.12.2018 08:09 23,0 C -2,3 C -1,7 C 2,8 C 52 % 93 % 1022,8 hPa 0,0 l/m 0,0 km/h (0 Bft) N 0 0 min 0,000 mm 0,0 UV-I 7 W/m -3,3 C -2,3 C 0,0 km/h (0 Bft) 100,00 %
17.12.2018 08:08 23,0 C -2,3 C -1,7 C 2,8 C 52 % 93 % 1022,8 hPa 0,0 l/m 0,0 km/h (0 Bft) N 0 0 min 0,000 mm 0,0 UV-I 7 W/m -3,3 C -2,3 C 0,0 km/h (0 Bft) 91,30 %
17.12.2018 08:07 23,0 C -2,3 C -1,7 C 2,8 C 52 % 93 % 1022,8 hPa 0,0 l/m 0,0 km/h (0 Bft) N 0 0 min 0,000 mm 0,0 UV-I 7 W/m -3,3 C -2,3 C 0,0 km/h (0 Bft) 95,65 %
17.12.2018 08:06 23,0 C -2,3 C -1,7 C 2,8 C 52 % 93 % 1022,8 hPa 0,0 l/m 0,0 km/h (0 Bft) N 0 0 min 0,000 mm 0,0 UV-I 5 W/m -3,3 C -2,3 C 0,0 km/h (0 Bft) 95,65 %
17.12.2018 08:05 23,0 C -2,3 C -1,7 C 2,8 C 52 % 93 % 1022,8 hPa 0,0 l/m 0,0 km/h (0 Bft) N 0 0 min 0,000 mm 0,0 UV-I 5 W/m -3,3 C -2,3 C 0,0 km/h (0 Bft) 91,30 %
17.12.2018 08:04 23,0 C -2,3 C -1,7 C 2,8 C 52 % 93 % 1022,8 hPa 0,0 l/m 0,0 km/h (0 Bft) N 0 0 min 0,000 mm 0,0 UV-I 5 W/m -3,3 C -2,3 C 0,0 km/h (0 Bft) 95,65 %
17.12.2018 08:03 23,0 C -2,3 C -1,7 C 2,8 C 52 % 93 % 1022,8 hPa 0,0 l/m 0,0 km/h (0 Bft) N 0 0 min 0,000 mm 0,0 UV-I 5 W/m -3,3 C -2,3 C 0,0 km/h (0 Bft) 100,00 %
17.12.2018 08:02 23,0 C -2,3 C -1,7 C 2,8 C 52 % 93 % 1022,8 hPa 0,0 l/m 1,6 km/h (1 Bft) W 270 0 min 0,000 mm 0,0 UV-I 5 W/m -3,3 C -2,3 C 3,2 km/h (1 Bft) 91,30 %
17.12.2018 08:01 23,1 C -2,3 C -1,7 C 2,8 C 52 % 93 % 1022,8 hPa 0,0 l/m 1,6 km/h (1 Bft) W 270 0 min 0,000 mm 0,0 UV-I 5 W/m -3,3 C -2,3 C 4,8 km/h (1 Bft) 95,65 %
17.12.2018 08:00 23,1 C -2,3 C -1,7 C 2,8 C 52 % 93 % 1022,8 hPa 0,0 l/m 3,2 km/h (1 Bft) W 270 0 min 0,000 mm 0,0 UV-I 5 W/m -3,3 C -2,3 C 4,8 km/h (1 Bft) 95,65 %
17.12.2018 07:59 23,1 C -2,3 C -1,7 C 2,8 C 52 % 93 % 1022,5 hPa 0,0 l/m 4,8 km/h (1 Bft) W 270 0 min 0,000 mm 0,0 UV-I 5 W/m -3,3 C -2,3 C 6,4 km/h (2 Bft) 91,30 %
17.12.2018 07:58 23,1 C -2,3 C -1,7 C 2,8 C 52 % 93 % 1022,5 hPa 0,0 l/m 4,8 km/h (1 Bft) W 270 0 min 0,000 mm 0,0 UV-I 0 W/m -3,3 C -2,3 C 4,8 km/h (1 Bft) 95,65 %
17.12.2018 07:57 23,1 C -2,3 C -1,7 C 2,8 C 52 % 93 % 1022,5 hPa 0,0 l/m 1,6 km/h (1 Bft) W 270 0 min 0,000 mm 0,0 UV-I 0 W/m -3,3 C -2,3 C 4,8 km/h (1 Bft) 95,65 %
17.12.2018 07:56 23,1 C -2,3 C -1,7 C 2,8 C 52 % 93 % 1022,5 hPa 0,0 l/m 0,0 km/h (0 Bft) N 0 0 min 0,000 mm 0,0 UV-I 0 W/m -3,3 C -2,3 C 0,0 km/h (0 Bft) 95,65 %
17.12.2018 07:55 23,1 C -2,3 C -1,7 C 2,8 C 52 % 93 % 1022,5 hPa 0,0 l/m 0,0 km/h (0 Bft) N 0 0 min 0,000 mm 0,0 UV-I 0 W/m -3,3 C -2,3 C 0,0 km/h (0 Bft) 86,96 %
17.12.2018 07:54 23,1 C -2,3 C -1,7 C 2,8 C 52 % 93 % 1022,5 hPa 0,0 l/m 3,2 km/h (1 Bft) W 270 0 min 0,000 mm 0,0 UV-I 0 W/m -3,3 C -2,3 C 4,8 km/h (1 Bft) 100,00 %
17.12.2018 07:53 23,1 C -2,3 C -1,7 C 2,8 C 52 % 93 % 1022,5 hPa 0,0 l/m 3,2 km/h (1 Bft) W 270 0 min 0,000 mm 0,0 UV-I 0 W/m -3,3 C -2,3 C 3,2 km/h (1 Bft) 86,96 %
17.12.2018 07:52 23,1 C -2,3 C -1,7 C 2,8 C 52 % 93 % 1022,5 hPa 0,0 l/m 6,4 km/h (2 Bft) W 270 0 min 0,000 mm 0,0 UV-I 0 W/m -3,3 C -2,3 C 9,7 km/h (2 Bft) 91,30 %
17.12.2018 07:51 23,1 C -2,3 C -1,7 C 2,8 C 52 % 93 % 1022,5 hPa 0,0 l/m 1,6 km/h (1 Bft) W 270 0 min 0,000 mm 0,0 UV-I 0 W/m -3,3 C -2,3 C 4,8 km/h (1 Bft) 91,30 %
17.12.2018 07:50 23,1 C -2,3 C -1,7 C 2,8 C 52 % 93 % 1022,5 hPa 0,0 l/m 1,6 km/h (1 Bft) W 270 0 min 0,000 mm 0,0 UV-I 0 W/m -3,3 C -2,3 C 3,2 km/h (1 Bft) 91,30 %
17.12.2018 07:49 23,1 C -2,3 C -1,7 C 2,8 C 52 % 93 % 1022,5 hPa 0,0 l/m 0,0 km/h (0 Bft) W 270 0 min 0,000 mm 0,0 UV-I 0 W/m -3,3 C -2,3 C 3,2 km/h (1 Bft) 95,65 %
17.12.2018 07:48 23,1 C -2,3 C -1,7 C 2,8 C 52 % 93 % 1022,5 hPa 0,0 l/m 0,0 km/h (0 Bft) N 0 0 min 0,000 mm 0,0 UV-I 0 W/m -3,3 C -2,3 C 0,0 km/h (0 Bft) 91,30 %
17.12.2018 07:47 23,1 C -2,3 C -1,7 C 2,8 C 51 % 93 % 1022,5 hPa 0,0 l/m 3,2 km/h (1 Bft) W 270 0 min 0,000 mm 0,0 UV-I 0 W/m -3,3 C -2,3 C 4,8 km/h (1 Bft) 100,00 %
17.12.2018 07:46 23,1 C -2,3 C -1,7 C 2,8 C 51 % 93 % 1022,5 hPa 0,0 l/m 3,2 km/h (1 Bft) W 270 0 min 0,000 mm 0,0 UV-I 0 W/m -3,3 C -2,3 C 6,4 km/h (2 Bft) 86,96 %
17.12.2018 07:45 23,1 C -2,3 C -1,7 C 2,8 C 51 % 93 % 1022,5 hPa 0,0 l/m 4,8 km/h (1 Bft) W 270 0 min 0,000 mm 0,0 UV-I 0 W/m -3,3 C -2,3 C 6,4 km/h (2 Bft) 91,30 %
17.12.2018 07:44 23,1 C -2,3 C -1,7 C 2,8 C 51 % 93 % 1022,4 hPa 0,0 l/m 0,0 km/h (0 Bft) W 270 0 min 0,000 mm 0,0 UV-I 0 W/m -3,3 C -2,3 C 3,2 km/h (1 Bft) 91,30 %
17.12.2018 07:43 23,1 C -2,3 C -1,7 C 2,8 C 51 % 93 % 1022,4 hPa 0,0 l/m 1,6 km/h (1 Bft) W 270 0 min 0,000 mm 0,0 UV-I 0 W/m -3,3 C -2,3 C 4,8 km/h (1 Bft) 95,65 %
17.12.2018 07:42 23,1 C -2,3 C -1,7 C 2,8 C 51 % 93 % 1022,4 hPa 0,0 l/m 3,2 km/h (1 Bft) W 270 0 min 0,000 mm 0,0 UV-I 0 W/m -3,3 C -2,3 C 9,7 km/h (2 Bft) 86,96 %
17.12.2018 07:41 23,1 C -2,3 C -1,7 C 2,8 C 51 % 93 % 1022,4 hPa 0,0 l/m 6,4 km/h (2 Bft) W 270 0 min 0,000 mm 0,0 UV-I 0 W/m -3,3 C -2,3 C 9,7 km/h (2 Bft) 100,00 %
17.12.2018 07:40 23,1 C -2,3 C -1,7 C 2,8 C 51 % 93 % 1022,4 hPa 0,0 l/m 1,6 km/h (1 Bft) W 270 0 min 0,000 mm 0,0 UV-I 0 W/m -3,3 C -2,3 C 6,4 km/h (2 Bft) 86,96 %
17.12.2018 07:39 23,1 C -2,3 C -1,7 C 2,8 C 51 % 93 % 1022,4 hPa 0,0 l/m 1,6 km/h (1 Bft) W 270 0 min 0,000 mm 0,0 UV-I 0 W/m -3,3 C -2,3 C 4,8 km/h (1 Bft) 91,30 %
17.12.2018 07:38 23,1 C -2,3 C -1,7 C 2,8 C 52 % 92 % 1022,4 hPa 0,0 l/m 3,2 km/h (1 Bft) W 270 0 min 0,000 mm 0,0 UV-I 0 W/m -3,4 C -2,3 C 4,8 km/h (1 Bft) 95,65 %
17.12.2018 07:37 23,1 C -2,3 C -1,7 C 2,8 C 51 % 93 % 1022,4 hPa 0,0 l/m 0,0 km/h (0 Bft) N 0 0 min 0,000 mm 0,0 UV-I 0 W/m -3,3 C -2,3 C 0,0 km/h (0 Bft) 91,30 %
17.12.2018 07:36 23,1 C -2,3 C -1,7 C 2,8 C 51 % 93 % 1022,4 hPa 0,0 l/m 0,0 km/h (0 Bft) W 270 0 min 0,000 mm 0,0 UV-I 0 W/m -3,3 C -2,3 C 1,6 km/h (1 Bft) 86,96 %
17.12.2018 07:35 23,1 C -2,4 C -1,7 C 2,8 C 51 % 93 % 1022,4 hPa 0,0 l/m 1,6 km/h (1 Bft) W 270 0 min 0,000 mm 0,0 UV-I 0 W/m -3,4 C -2,4 C 3,2 km/h (1 Bft) 95,65 %
17.12.2018 07:34 23,1 C -2,4 C -1,7 C 2,8 C 51 % 93 % 1022,4 hPa 0,0 l/m 3,2 km/h (1 Bft) W 270 0 min 0,000 mm 0,0 UV-I 0 W/m -3,4 C -2,4 C 6,4 km/h (2 Bft) 86,96 %
17.12.2018 07:33 23,1 C -2,4 C -1,7 C 2,8 C 51 % 93 % 1022,4 hPa 0,0 l/m 3,2 km/h (1 Bft) W 270 0 min 0,000 mm 0,0 UV-I 0 W/m -3,4 C -2,4 C 6,4 km/h (2 Bft) 91,30 %
17.12.2018 07:32 23,1 C -2,4 C -1,7 C 2,8 C 51 % 92 % 1022,4 hPa 0,0 l/m 4,8 km/h (1 Bft) W 270 0 min 0,000 mm 0,0 UV-I 0 W/m -3,5 C -2,4 C 6,4 km/h (2 Bft) 95,65 %
17.12.2018 07:31 23,1 C -2,4 C -1,7 C 2,8 C 51 % 92 % 1022,4 hPa 0,0 l/m 3,2 km/h (1 Bft) W 270 0 min 0,000 mm 0,0 UV-I 0 W/m -3,5 C -2,4 C 4,8 km/h (1 Bft) 95,65 %
17.12.2018 07:30 23,1 C -2,4 C -1,7 C 2,8 C 51 % 92 % 1022,4 hPa 0,0 l/m 1,6 km/h (1 Bft) W 270 0 min 0,000 mm 0,0 UV-I 0 W/m -3,5 C -2,4 C 3,2 km/h (1 Bft) 86,96 %
17.12.2018 07:29 23,1 C -2,4 C -1,7 C 2,8 C 51 % 92 % 1022,3 hPa 0,0 l/m 3,2 km/h (1 Bft) W 270 0 min 0,000 mm 0,0 UV-I 0 W/m -3,5 C -2,4 C 4,8 km/h (1 Bft) 91,30 %
17.12.2018 07:28 23,1 C -2,4 C -1,7 C 2,8 C 51 % 92 % 1022,3 hPa 0,0 l/m 4,8 km/h (1 Bft) W 270 0 min 0,000 mm 0,0 UV-I 0 W/m -3,5 C -2,4 C 6,4 km/h (2 Bft) 95,65 %
17.12.2018 07:27 23,1 C -2,4 C -1,7 C 2,8 C 51 % 92 % 1022,3 hPa 0,0 l/m 1,6 km/h (1 Bft) W 270 0 min 0,000 mm 0,0 UV-I 0 W/m -3,5 C -2,4 C 3,2 km/h (1 Bft) 91,30 %
17.12.2018 07:26 23,1 C -2,4 C -1,7 C 2,8 C 51 % 92 % 1022,3 hPa 0,0 l/m 3,2 km/h (1 Bft) W 270 0 min 0,000 mm 0,0 UV-I 0 W/m -3,5 C -2,4 C 4,8 km/h (1 Bft) 100,00 %
17.12.2018 07:25 23,2 C -2,4 C -1,7 C 2,8 C 52 % 92 % 1022,3 hPa 0,0 l/m 3,2 km/h (1 Bft) W 270 0 min 0,000 mm 0,0 UV-I 0 W/m -3,5 C -2,4 C 4,8 km/h (1 Bft) 86,96 %
17.12.2018 07:24 23,2 C -2,4 C -1,7 C 2,8 C 51 % 92 % 1022,3 hPa 0,0 l/m 3,2 km/h (1 Bft) W 270 0 min 0,000 mm 0,0 UV-I 0 W/m -3,5 C -2,4 C 4,8 km/h (1 Bft) 95,65 %
17.12.2018 07:23 23,2 C -2,4 C -1,7 C 2,8 C 51 % 92 % 1022,3 hPa 0,0 l/m 3,2 km/h (1 Bft) W 270 0 min 0,000 mm 0,0 UV-I 0 W/m -3,5 C -2,4 C 4,8 km/h (1 Bft) 95,65 %
17.12.2018 07:22 23,2 C -2,4 C -1,7 C 2,8 C 51 % 92 % 1022,3 hPa 0,0 l/m 3,2 km/h (1 Bft) W 270 0 min 0,000 mm 0,0 UV-I 0 W/m -3,5 C -2,4 C 6,4 km/h (2 Bft) 95,65 %
17.12.2018 07:21 23,2 C -2,4 C -1,7 C 2,8 C 51 % 92 % 1022,3 hPa 0,0 l/m 0,0 km/h (0 Bft) W 270 0 min 0,000 mm 0,0 UV-I 0 W/m -3,5 C -2,4 C 3,2 km/h (1 Bft) 91,30 %
17.12.2018 07:20 23,2 C -2,3 C -1,7 C 2,8 C 51 % 92 % 1022,3 hPa 0,0 l/m 0,0 km/h (0 Bft) N 0 0 min 0,000 mm 0,0 UV-I 0 W/m -3,4 C -2,3 C 0,0 km/h (0 Bft) 100,00 %
17.12.2018 07:19 23,2 C -2,3 C -1,7 C 2,8 C 51 % 92 % 1022,3 hPa 0,0 l/m 0,0 km/h (0 Bft) N 0 0 min 0,000 mm 0,0 UV-I 0 W/m -3,4 C -2,3 C 0,0 km/h (0 Bft) 95,65 %
17.12.2018 07:18 23,2 C -2,3 C -1,7 C 2,8 C 51 % 92 % 1022,3 hPa 0,0 l/m 0,0 km/h (0 Bft) N 0 0 min 0,000 mm 0,0 UV-I 0 W/m -3,4 C -2,3 C 0,0 km/h (0 Bft) 95,65 %
17.12.2018 07:17 23,2 C -2,3 C -1,7 C 2,8 C 51 % 92 % 1022,3 hPa 0,0 l/m 1,6 km/h (1 Bft) W 270 0 min 0,000 mm 0,0 UV-I 0 W/m -3,4 C -2,3 C 4,8 km/h (1 Bft) 100,00 %
17.12.2018 07:16 23,2 C -2,3 C -1,7 C 2,8 C 51 % 92 % 1022,3 hPa 0,0 l/m 0,0 km/h (0 Bft) N 0 0 min 0,000 mm 0,0 UV-I 0 W/m -3,4 C -2,3 C 0,0 km/h (0 Bft) 95,65 %
17.12.2018 07:15 23,2 C -2,3 C -1,7 C 2,8 C 51 % 92 % 1022,3 hPa 0,0 l/m 0,0 km/h (0 Bft) W 270 0 min 0,000 mm 0,0 UV-I 0 W/m -3,4 C -2,3 C 3,2 km/h (1 Bft) 91,30 %
17.12.2018 07:14 23,3 C -2,3 C -1,7 C 2,8 C 51 % 92 % 1022,2 hPa 0,0 l/m 3,2 km/h (1 Bft) W 270 0 min 0,000 mm 0,0 UV-I 0 W/m -3,4 C -2,3 C 4,8 km/h (1 Bft) 100,00 %
17.12.2018 07:13 23,3 C -2,3 C -1,7 C 2,8 C 51 % 92 % 1022,2 hPa 0,0 l/m 1,6 km/h (1 Bft) W 270 0 min 0,000 mm 0,0 UV-I 0 W/m -3,4 C -2,3 C 3,2 km/h (1 Bft) 91,30 %
17.12.2018 07:12 23,3 C -2,3 C -1,7 C 2,8 C 51 % 92 % 1022,2 hPa 0,0 l/m 1,6 km/h (1 Bft) W 270 0 min 0,000 mm 0,0 UV-I 0 W/m -3,4 C -2,3 C 3,2 km/h (1 Bft) 91,30 %
17.12.2018 07:11 23,3 C -2,3 C -1,7 C 2,8 C 51 % 92 % 1022,2 hPa 0,0 l/m 1,6 km/h (1 Bft) W 270 0 min 0,000 mm 0,0 UV-I 0 W/m -3,4 C -2,3 C 3,2 km/h (1 Bft) 95,65 %
17.12.2018 07:10 23,3 C -2,3 C -1,7 C 2,8 C 51 % 92 % 1022,2 hPa 0,0 l/m 0,0 km/h (0 Bft) W 270 0 min 0,000 mm 0,0 UV-I 0 W/m -3,4 C -2,3 C 3,2 km/h (1 Bft) 95,65 %
17.12.2018 07:09 23,3 C -2,3 C -1,7 C 2,8 C 51 % 92 % 1022,2 hPa 0,0 l/m 0,0 km/h (0 Bft) W 270 0 min 0,000 mm 0,0 UV-I 0 W/m -3,4 C -2,3 C 3,2 km/h (1 Bft) 95,65 %
17.12.2018 07:08 23,3 C -2,3 C -1,7 C 2,8 C 51 % 92 % 1022,2 hPa 0,0 l/m 0,0 km/h (0 Bft) W 270 0 min 0,000 mm 0,0 UV-I 0 W/m -3,4 C -2,3 C 1,6 km/h (1 Bft) 95,65 %
17.12.2018 07:07 23,3 C -2,3 C -1,7 C 2,8 C 51 % 92 % 1022,2 hPa 0,0 l/m 3,2 km/h (1 Bft) W 270 0 min 0,000 mm 0,0 UV-I 0 W/m -3,4 C -2,3 C 4,8 km/h (1 Bft) 95,65 %
17.12.2018 07:06 23,4 C -2,3 C -1,7 C 2,8 C 51 % 92 % 1022,2 hPa 0,0 l/m 3,2 km/h (1 Bft) W 270 0 min 0,000 mm 0,0 UV-I 0 W/m -3,4 C -2,3 C 4,8 km/h (1 Bft) 86,96 %
17.12.2018 07:05 23,4 C -2,3 C -1,7 C 2,8 C 51 % 92 % 1022,2 hPa 0,0 l/m 4,8 km/h (1 Bft) W 270 0 min 0,000 mm 0,0 UV-I 0 W/m -3,4 C -2,3 C 6,4 km/h (2 Bft) 100,00 %
17.12.2018 07:04 23,4 C -2,3 C -1,7 C 2,8 C 51 % 92 % 1022,2 hPa 0,0 l/m 1,6 km/h (1 Bft) W 270 0 min 0,000 mm 0,0 UV-I 0 W/m -3,4 C -2,3 C 3,2 km/h (1 Bft) 91,30 %
17.12.2018 07:03 23,4 C -2,4 C -1,7 C 2,8 C 51 % 92 % 1022,2 hPa 0,0 l/m 1,6 km/h (1 Bft) W 270 0 min 0,000 mm 0,0 UV-I 0 W/m -3,5 C -2,4 C 3,2 km/h (1 Bft) 95,65 %
17.12.2018 07:02 23,4 C -2,4 C -1,7 C 2,8 C 51 % 92 % 1022,2 hPa 0,0 l/m 0,0 km/h (0 Bft) W 270 0 min 0,000 mm 0,0 UV-I 0 W/m -3,5 C -2,4 C 1,6 km/h (1 Bft) 86,96 %
17.12.2018 07:01 23,4 C -2,4 C -1,7 C 2,8 C 51 % 92 % 1022,2 hPa 0,0 l/m 1,6 km/h (1 Bft) W 270 0 min 0,000 mm 0,0 UV-I 0 W/m -3,5 C -2,4 C 3,2 km/h (1 Bft) 100,00 %
17.12.2018 07:00 23,5 C -2,4 C -1,7 C 2,8 C 51 % 92 % 1022,2 hPa 0,0 l/m 3,2 km/h (1 Bft) W 270 0 min 0,000 mm 0,0 UV-I 0 W/m -3,5 C -2,4 C 3,2 km/h (1 Bft) 91,30 %
17.12.2018 06:59 23,5 C -2,4 C -1,7 C 2,8 C 51 % 91 % 1022,0 hPa 0,0 l/m 3,2 km/h (1 Bft) W 270 0 min 0,000 mm 0,0 UV-I 0 W/m -3,7 C -2,4 C 4,8 km/h (1 Bft) 95,65 %
17.12.2018 06:58 23,5 C -2,4 C -1,7 C 2,8 C 52 % 91 % 1022,0 hPa 0,0 l/m 1,6 km/h (1 Bft) W 270 0 min 0,000 mm 0,0 UV-I 0 W/m -3,7 C -2,4 C 3,2 km/h (1 Bft) 95,65 %
17.12.2018 06:57 23,5 C -2,4 C -1,7 C 2,8 C 52 % 91 % 1022,0 hPa 0,0 l/m 1,6 km/h (1 Bft) W 270 0 min 0,000 mm 0,0 UV-I 0 W/m -3,7 C -2,4 C 3,2 km/h (1 Bft) 91,30 %
17.12.2018 06:56 23,5 C -2,4 C -1,7 C 2,8 C 52 % 91 % 1022,0 hPa 0,0 l/m 3,2 km/h (1 Bft) W 270 0 min 0,000 mm 0,0 UV-I 0 W/m -3,7 C -2,4 C 4,8 km/h (1 Bft) 91,30 %
17.12.2018 06:55 23,5 C -2,4 C -1,7 C 2,8 C 53 % 91 % 1022,0 hPa 0,0 l/m 3,2 km/h (1 Bft) W 270 0 min 0,000 mm 0,0 UV-I 0 W/m -3,7 C -2,4 C 4,8 km/h (1 Bft) 95,65 %
17.12.2018 06:54 23,5 C -2,4 C -1,7 C 2,8 C 51 % 91 % 1022,0 hPa 0,0 l/m 4,8 km/h (1 Bft) W 270 0 min 0,000 mm 0,0 UV-I 0 W/m -3,7 C -2,4 C 6,4 km/h (2 Bft) 95,65 %
17.12.2018 06:53 23,5 C -2,4 C -1,7 C 2,8 C 51 % 91 % 1022,0 hPa 0,0 l/m 3,2 km/h (1 Bft) W-SW 247 0 min 0,000 mm 0,0 UV-I 0 W/m -3,7 C -2,4 C 4,8 km/h (1 Bft) 91,30 %
17.12.2018 06:52 23,5 C -2,4 C -1,7 C 2,8 C 51 % 91 % 1022,0 hPa 0,0 l/m 3,2 km/h (1 Bft) W-SW 247 0 min 0,000 mm 0,0 UV-I 0 W/m -3,7 C -2,4 C 4,8 km/h (1 Bft) 100,00 %
17.12.2018 06:51 23,5 C -2,4 C -1,7 C 2,8 C 51 % 91 % 1022,0 hPa 0,0 l/m 3,2 km/h (1 Bft) W-SW 247 0 min 0,000 mm 0,0 UV-I 0 W/m -3,7 C -2,4 C 4,8 km/h (1 Bft) 91,30 %
17.12.2018 06:50 23,6 C -2,4 C -1,7 C 2,8 C 51 % 91 % 1022,0 hPa 0,0 l/m 0,0 km/h (0 Bft) N 0 0 min 0,000 mm 0,0 UV-I 0 W/m -3,7 C -2,4 C 0,0 km/h (0 Bft) 86,96 %
17.12.2018 06:49 23,6 C -2,4 C -1,7 C 2,8 C 51 % 91 % 1022,0 hPa 0,0 l/m 0,0 km/h (0 Bft) N 0 0 min 0,000 mm 0,0 UV-I 0 W/m -3,7 C -2,4 C 0,0 km/h (0 Bft) 100,00 %
17.12.2018 06:48 23,6 C -2,4 C -1,7 C 2,8 C 52 % 91 % 1022,0 hPa 0,0 l/m 1,6 km/h (1 Bft) W-SW 247 0 min 0,000 mm 0,0 UV-I 0 W/m -3,7 C -2,4 C 3,2 km/h (1 Bft) 95,65 %
17.12.2018 06:47 23,6 C -2,4 C -1,7 C 2,8 C 51 % 91 % 1022,0 hPa 0,0 l/m 1,6 km/h (1 Bft) W-SW 247 0 min 0,000 mm 0,0 UV-I 0 W/m -3,7 C -2,4 C 3,2 km/h (1 Bft) 91,30 %
17.12.2018 06:46 23,6 C -2,4 C -1,7 C 2,8 C 51 % 91 % 1022,0 hPa 0,0 l/m 1,6 km/h (1 Bft) W-SW 247 0 min 0,000 mm 0,0 UV-I 0 W/m -3,7 C -2,4 C 3,2 km/h (1 Bft) 100,00 %
17.12.2018 06:45 23,6 C -2,4 C -1,7 C 2,8 C 51 % 91 % 1022,0 hPa 0,0 l/m 0,0 km/h (0 Bft) N 0 0 min 0,000 mm 0,0 UV-I 0 W/m -3,7 C -2,4 C 0,0 km/h (0 Bft) 95,65 %
17.12.2018 06:44 23,6 C -2,4 C -1,7 C 2,8 C 51 % 91 % 1021,8 hPa 0,0 l/m 0,0 km/h (0 Bft) N 0 0 min 0,000 mm 0,0 UV-I 0 W/m -3,7 C -2,4 C 0,0 km/h (0 Bft) 95,65 %
17.12.2018 06:43 23,6 C -2,4 C -1,7 C 2,8 C 52 % 91 % 1021,8 hPa 0,0 l/m 0,0 km/h (0 Bft) N 0 0 min 0,000 mm 0,0 UV-I 0 W/m -3,7 C -2,4 C 0,0 km/h (0 Bft) 95,65 %
17.12.2018 06:42 23,6 C -2,4 C -1,7 C 2,8 C 52 % 91 % 1021,8 hPa 0,0 l/m 0,0 km/h (0 Bft) W-SW 247 0 min 0,000 mm 0,0 UV-I 0 W/m -3,7 C -2,4 C 1,6 km/h (1 Bft) 91,30 %
17.12.2018 06:41 23,6 C -2,4 C -1,7 C 2,8 C 52 % 91 % 1021,8 hPa 0,0 l/m 0,0 km/h (0 Bft) W-SW 247 0 min 0,000 mm 0,0 UV-I 0 W/m -3,7 C -2,4 C 3,2 km/h (1 Bft) 95,65 %
17.12.2018 06:40 23,6 C -2,4 C -1,7 C 2,8 C 52 % 91 % 1021,8 hPa 0,0 l/m 1,6 km/h (1 Bft) W-SW 247 0 min 0,000 mm 0,0 UV-I 0 W/m -3,7 C -2,4 C 3,2 km/h (1 Bft) 95,65 %
17.12.2018 06:39 23,6 C -2,4 C -1,7 C 2,8 C 52 % 91 % 1021,8 hPa 0,0 l/m 1,6 km/h (1 Bft) W-SW 247 0 min 0,000 mm 0,0 UV-I 0 W/m -3,7 C -2,4 C 4,8 km/h (1 Bft) 95,65 %
17.12.2018 06:38 23,6 C -2,4 C -1,7 C 2,8 C 52 % 91 % 1021,8 hPa 0,0 l/m 3,2 km/h (1 Bft) W-SW 247 0 min 0,000 mm 0,0 UV-I 0 W/m -3,7 C -2,4 C 4,8 km/h (1 Bft) 95,65 %
17.12.2018 06:37 23,6 C -2,4 C -1,7 C 2,8 C 52 % 91 % 1021,8 hPa 0,0 l/m 3,2 km/h (1 Bft) W-SW 247 0 min 0,000 mm 0,0 UV-I 0 W/m -3,7 C -2,4 C 4,8 km/h (1 Bft) 100,00 %
17.12.2018 06:36 23,7 C -2,4 C -1,7 C 2,8 C 52 % 91 % 1021,8 hPa 0,0 l/m 3,2 km/h (1 Bft) W-SW 247 0 min 0,000 mm 0,0 UV-I 0 W/m -3,7 C -2,4 C 4,8 km/h (1 Bft) 95,65 %
17.12.2018 06:35 23,7 C -2,4 C -1,7 C 2,8 C 52 % 91 % 1021,8 hPa 0,0 l/m 3,2 km/h (1 Bft) W-SW 247 0 min 0,000 mm 0,0 UV-I 0 W/m -3,7 C -2,4 C 3,2 km/h (1 Bft) 95,65 %
17.12.2018 06:34 23,7 C -2,4 C -1,7 C 2,8 C 52 % 91 % 1021,8 hPa 0,0 l/m 1,6 km/h (1 Bft) W-SW 247 0 min 0,000 mm 0,0 UV-I 0 W/m -3,7 C -2,4 C 4,8 km/h (1 Bft) 100,00 %
17.12.2018 06:33 23,7 C -2,4 C -1,7 C 2,8 C 52 % 91 % 1021,8 hPa 0,0 l/m 1,6 km/h (1 Bft) W-SW 247 0 min 0,000 mm 0,0 UV-I 0 W/m -3,7 C -2,4 C 4,8 km/h (1 Bft) 91,30 %
17.12.2018 06:32 23,7 C -2,4 C -1,7 C 2,8 C 52 % 91 % 1021,8 hPa 0,0 l/m 3,2 km/h (1 Bft) W-SW 247 0 min 0,000 mm 0,0 UV-I 0 W/m -3,7 C -2,4 C 3,2 km/h (1 Bft) 86,96 %
17.12.2018 06:31 23,7 C -2,4 C -1,7 C 2,8 C 52 % 91 % 1021,8 hPa 0,0 l/m 1,6 km/h (1 Bft) W-SW 247 0 min 0,000 mm 0,0 UV-I 0 W/m -3,7 C -2,4 C 3,2 km/h (1 Bft) 100,00 %
17.12.2018 06:30 23,7 C -2,4 C -1,7 C 2,8 C 52 % 91 % 1021,8 hPa 0,0 l/m 0,0 km/h (0 Bft) W-SW 247 0 min 0,000 mm 0,0 UV-I 0 W/m -3,7 C -2,4 C 1,6 km/h (1 Bft) 86,96 %
17.12.2018 06:29 23,7 C -2,4 C -1,7 C 2,8 C 52 % 91 % 1021,7 hPa 0,0 l/m 0,0 km/h (0 Bft) N 0 0 min 0,000 mm 0,0 UV-I 0 W/m -3,7 C -2,4 C 0,0 km/h (0 Bft) 95,65 %
17.12.2018 06:28 23,7 C -2,4 C -1,7 C 2,8 C 52 % 91 % 1021,7 hPa 0,0 l/m 1,6 km/h (1 Bft) W-SW 247 0 min 0,000 mm 0,0 UV-I 0 W/m -3,7 C -2,4 C 3,2 km/h (1 Bft) 91,30 %
17.12.2018 06:27 23,7 C -2,4 C -1,7 C 2,8 C 52 % 91 % 1021,7 hPa 0,0 l/m 0,0 km/h (0 Bft) W-SW 247 0 min 0,000 mm 0,0 UV-I 0 W/m -3,7 C -2,4 C 1,6 km/h (1 Bft) 95,65 %
17.12.2018 06:26 23,7 C -2,4 C -1,7 C 2,8 C 53 % 91 % 1021,7 hPa 0,0 l/m 0,0 km/h (0 Bft) N 0 0 min 0,000 mm 0,0 UV-I 0 W/m -3,7 C -2,4 C 0,0 km/h (0 Bft) 86,96 %
17.12.2018 06:25 23,7 C -2,4 C -1,7 C 2,8 C 53 % 91 % 1021,7 hPa 0,0 l/m 0,0 km/h (0 Bft) N 0 0 min 0,000 mm 0,0 UV-I 0 W/m -3,7 C -2,4 C 0,0 km/h (0 Bft) 95,65 %
17.12.2018 06:24 23,7 C -2,4 C -1,7 C 2,8 C 52 % 91 % 1021,7 hPa 0,0 l/m 0,0 km/h (0 Bft) N 0 0 min 0,000 mm 0,0 UV-I 0 W/m -3,7 C -2,4 C 0,0 km/h (0 Bft) 91,30 %
17.12.2018 06:23 23,7 C -2,4 C -1,7 C 2,8 C 53 % 91 % 1021,7 hPa 0,0 l/m 0,0 km/h (0 Bft) N 0 0 min 0,000 mm 0,0 UV-I 0 W/m -3,7 C -2,4 C 0,0 km/h (0 Bft) 91,30 %
17.12.2018 06:22 23,7 C -2,4 C -1,7 C 2,8 C 53 % 91 % 1021,7 hPa 0,0 l/m 0,0 km/h (0 Bft) N 0 0 min 0,000 mm 0,0 UV-I 0 W/m -3,7 C -2,4 C 0,0 km/h (0 Bft) 95,65 %
17.12.2018 06:21 23,7 C -2,4 C -1,7 C 2,8 C 53 % 91 % 1021,7 hPa 0,0 l/m 0,0 km/h (0 Bft) N 0 0 min 0,000 mm 0,0 UV-I 0 W/m -3,7 C -2,4 C 0,0 km/h (0 Bft) 91,30 %
17.12.2018 06:20 23,7 C -2,4 C -1,7 C 2,8 C 53 % 91 % 1021,7 hPa 0,0 l/m 0,0 km/h (0 Bft) N 0 0 min 0,000 mm 0,0 UV-I 0 W/m -3,7 C -2,4 C 0,0 km/h (0 Bft) 95,65 %
17.12.2018 06:19 23,7 C -2,4 C -1,7 C 2,8 C 53 % 91 % 1021,7 hPa 0,0 l/m 0,0 km/h (0 Bft) N 0 0 min 0,000 mm 0,0 UV-I 0 W/m -3,7 C -2,4 C 0,0 km/h (0 Bft) 95,65 %
17.12.2018 06:18 23,7 C -2,5 C -1,7 C 2,8 C 54 % 91 % 1021,7 hPa 0,0 l/m 0,0 km/h (0 Bft) N 0 0 min 0,000 mm 0,0 UV-I 0 W/m -3,8 C -2,5 C 0,0 km/h (0 Bft) 95,65 %
17.12.2018 06:17 23,7 C -2,4 C -1,7 C 2,8 C 54 % 91 % 1021,7 hPa 0,0 l/m 0,0 km/h (0 Bft) N 0 0 min 0,000 mm 0,0 UV-I 0 W/m -3,7 C -2,4 C 0,0 km/h (0 Bft) 86,96 %
17.12.2018 06:16 23,7 C -2,5 C -1,7 C 2,8 C 54 % 91 % 1021,7 hPa 0,0 l/m 0,0 km/h (0 Bft) N 0 0 min 0,000 mm 0,0 UV-I 0 W/m -3,8 C -2,5 C 0,0 km/h (0 Bft) 95,65 %
17.12.2018 06:15 23,7 C -2,5 C -1,7 C 2,8 C 54 % 91 % 1021,7 hPa 0,0 l/m 0,0 km/h (0 Bft) N 0 0 min 0,000 mm 0,0 UV-I 0 W/m -3,8 C -2,5 C 0,0 km/h (0 Bft) 95,65 %
17.12.2018 06:14 23,7 C -2,5 C -1,7 C 2,8 C 54 % 91 % 1021,4 hPa 0,0 l/m 0,0 km/h (0 Bft) W-SW 247 0 min 0,000 mm 0,0 UV-I 0 W/m -3,8 C -2,5 C 1,6 km/h (1 Bft) 95,65 %
17.12.2018 06:13 23,7 C -2,5 C -1,7 C 2,8 C 55 % 91 % 1021,4 hPa 0,0 l/m 0,0 km/h (0 Bft) W-SW 247 0 min 0,000 mm 0,0 UV-I 0 W/m -3,8 C -2,5 C 1,6 km/h (1 Bft) 86,96 %
17.12.2018 06:12 23,7 C -2,5 C -1,7 C 2,8 C 54 % 91 % 1021,4 hPa 0,0 l/m 0,0 km/h (0 Bft) N 0 0 min 0,000 mm 0,0 UV-I 0 W/m -3,8 C -2,5 C 0,0 km/h (0 Bft) 100,00 %
17.12.2018 06:11 23,7 C -2,5 C -1,7 C 2,8 C 54 % 91 % 1021,4 hPa 0,0 l/m 0,0 km/h (0 Bft) N 0 0 min 0,000 mm 0,0 UV-I 0 W/m -3,8 C -2,5 C 0,0 km/h (0 Bft) 91,30 %
17.12.2018 06:10 23,7 C -2,5 C -1,7 C 2,8 C 54 % 91 % 1021,4 hPa 0,0 l/m 0,0 km/h (0 Bft) N 0 0 min 0,000 mm 0,0 UV-I 0 W/m -3,8 C -2,5 C 0,0 km/h (0 Bft) 95,65 %
17.12.2018 06:09 23,7 C -2,5 C -1,7 C 2,8 C 54 % 91 % 1021,4 hPa 0,0 l/m 0,0 km/h (0 Bft) N 0 0 min 0,000 mm 0,0 UV-I 0 W/m -3,8 C -2,5 C 0,0 km/h (0 Bft) 100,00 %
17.12.2018 06:08 23,7 C -2,5 C -1,7 C 2,8 C 54 % 91 % 1021,4 hPa 0,0 l/m 0,0 km/h (0 Bft) N 0 0 min 0,000 mm 0,0 UV-I 0 W/m -3,8 C -2,5 C 0,0 km/h (0 Bft) 95,65 %
17.12.2018 06:07 23,7 C -2,5 C -1,7 C 2,8 C 54 % 91 % 1021,4 hPa 0,0 l/m 0,0 km/h (0 Bft) N 0 0 min 0,000 mm 0,0 UV-I 0 W/m -3,8 C -2,5 C 0,0 km/h (0 Bft) 95,65 %
17.12.2018 06:06 23,7 C -2,5 C -1,7 C 2,8 C 54 % 91 % 1021,4 hPa 0,0 l/m 0,0 km/h (0 Bft) N 0 0 min 0,000 mm 0,0 UV-I 0 W/m -3,8 C -2,5 C 0,0 km/h (0 Bft) 100,00 %
17.12.2018 06:05 23,7 C -2,5 C -1,7 C 2,8 C 54 % 91 % 1021,4 hPa 0,0 l/m 0,0 km/h (0 Bft) N 0 0 min 0,000 mm 0,0 UV-I 0 W/m -3,8 C -2,5 C 0,0 km/h (0 Bft) 86,96 %
17.12.2018 06:04 23,7 C -2,5 C -1,7 C 2,8 C 54 % 91 % 1021,4 hPa 0,0 l/m 0,0 km/h (0 Bft) N 0 0 min 0,000 mm 0,0 UV-I 0 W/m -3,8 C -2,5 C 0,0 km/h (0 Bft) 95,65 %
17.12.2018 06:03 23,7 C -2,5 C -1,7 C 2,8 C 54 % 91 % 1021,4 hPa 0,0 l/m 0,0 km/h (0 Bft) N 0 0 min 0,000 mm 0,0 UV-I 0 W/m -3,8 C -2,5 C 0,0 km/h (0 Bft) 100,00 %
17.12.2018 06:02 23,7 C -2,5 C -1,7 C 2,8 C 54 % 91 % 1021,4 hPa 0,0 l/m 0,0 km/h (0 Bft) N 0 0 min 0,000 mm 0,0 UV-I 0 W/m -3,8 C -2,5 C 0,0 km/h (0 Bft) 95,65 %
17.12.2018 06:01 23,7 C -2,5 C -1,7 C 2,8 C 54 % 91 % 1021,4 hPa 0,0 l/m 0,0 km/h (0 Bft) N 0 0 min 0,000 mm 0,0 UV-I 0 W/m -3,8 C -2,5 C 0,0 km/h (0 Bft) 95,65 %
17.12.2018 06:00 23,7 C -2,5 C -1,7 C 2,8 C 54 % 91 % 1021,4 hPa 0,0 l/m 0,0 km/h (0 Bft) W-SW 247 0 min 0,000 mm 0,0 UV-I 0 W/m -3,8 C -2,5 C 1,6 km/h (1 Bft) 95,65 %
17.12.2018 05:59 23,7 C -2,5 C -1,7 C 2,8 C 54 % 91 % 1021,3 hPa 0,0 l/m 0,0 km/h (0 Bft) N 0 0 min 0,000 mm 0,0 UV-I 0 W/m -3,8 C -2,5 C 0,0 km/h (0 Bft) 95,65 %
17.12.2018 05:58 23,7 C -2,5 C -1,7 C 2,8 C 54 % 91 % 1021,3 hPa 0,0 l/m 1,6 km/h (1 Bft) W-SW 247 0 min 0,000 mm 0,0 UV-I 0 W/m -3,8 C -2,5 C 3,2 km/h (1 Bft) 91,30 %
17.12.2018 05:57 23,7 C -2,5 C -1,7 C 2,8 C 54 % 91 % 1021,3 hPa 0,0 l/m 1,6 km/h (1 Bft) W-SW 247 0 min 0,000 mm 0,0 UV-I 0 W/m -3,8 C -2,5 C 3,2 km/h (1 Bft) 100,00 %
17.12.2018 05:56 23,7 C -2,5 C -1,7 C 2,8 C 54 % 91 % 1021,3 hPa 0,0 l/m 0,0 km/h (0 Bft) N 0 0 min 0,000 mm 0,0 UV-I 0 W/m -3,8 C -2,5 C 0,0 km/h (0 Bft) 91,30 %
17.12.2018 05:55 23,7 C -2,5 C -1,7 C 2,8 C 54 % 91 % 1021,3 hPa 0,0 l/m 0,0 km/h (0 Bft) N 0 0 min 0,000 mm 0,0 UV-I 0 W/m -3,8 C -2,5 C 0,0 km/h (0 Bft) 91,30 %
17.12.2018 05:54 23,7 C -2,5 C -1,7 C 2,8 C 54 % 91 % 1021,3 hPa 0,0 l/m 0,0 km/h (0 Bft) N 0 0 min 0,000 mm 0,0 UV-I 0 W/m -3,8 C -2,5 C 0,0 km/h (0 Bft) 95,65 %
17.12.2018 05:53 23,7 C -2,5 C -1,7 C 2,8 C 54 % 91 % 1021,3 hPa 0,0 l/m 0,0 km/h (0 Bft) N 0 0 min 0,000 mm 0,0 UV-I 0 W/m -3,8 C -2,5 C 0,0 km/h (0 Bft) 95,65 %
17.12.2018 05:52 23,7 C -2,5 C -1,7 C 2,8 C 54 % 91 % 1021,3 hPa 0,0 l/m 0,0 km/h (0 Bft) W-SW 247 0 min 0,000 mm 0,0 UV-I 0 W/m -3,8 C -2,5 C 1,6 km/h (1 Bft) 95,65 %
17.12.2018 05:51 23,7 C -2,5 C -1,7 C 2,8 C 54 % 91 % 1021,3 hPa 0,0 l/m 1,6 km/h (1 Bft) W-SW 247 0 min 0,000 mm 0,0 UV-I 0 W/m -3,8 C -2,5 C 3,2 km/h (1 Bft) 100,00 %
17.12.2018 05:50 23,7 C -2,5 C -1,7 C 2,8 C 54 % 91 % 1021,3 hPa 0,0 l/m 0,0 km/h (0 Bft) N 0 0 min 0,000 mm 0,0 UV-I 0 W/m -3,8 C -2,5 C 0,0 km/h (0 Bft) 95,65 %
17.12.2018 05:49 23,7 C -2,5 C -1,7 C 2,8 C 54 % 91 % 1021,3 hPa 0,0 l/m 0,0 km/h (0 Bft) N 0 0 min 0,000 mm 0,0 UV-I 0 W/m -3,8 C -2,5 C 0,0 km/h (0 Bft) 95,65 %
17.12.2018 05:48 23,7 C -2,5 C -1,7 C 2,8 C 54 % 91 % 1021,3 hPa 0,0 l/m 0,0 km/h (0 Bft) N 0 0 min 0,000 mm 0,0 UV-I 0 W/m -3,8 C -2,5 C 0,0 km/h (0 Bft) 100,00 %
17.12.2018 05:47 23,7 C -2,5 C -1,7 C 2,8 C 54 % 91 % 1021,3 hPa 0,0 l/m 0,0 km/h (0 Bft) N 0 0 min 0,000 mm 0,0 UV-I 0 W/m -3,8 C -2,5 C 0,0 km/h (0 Bft) 95,65 %
17.12.2018 05:46 23,7 C -2,5 C -1,7 C 2,8 C 54 % 91 % 1021,3 hPa 0,0 l/m 0,0 km/h (0 Bft) N 0 0 min 0,000 mm 0,0 UV-I 0 W/m -3,8 C -2,5 C 0,0 km/h (0 Bft) 91,30 %
17.12.2018 05:45 23,7 C -2,6 C -1,7 C 2,8 C 54 % 91 % 1021,3 hPa 0,0 l/m 0,0 km/h (0 Bft) N 0 0 min 0,000 mm 0,0 UV-I 0 W/m -3,9 C -2,6 C 0,0 km/h (0 Bft) 100,00 %
17.12.2018 05:44 23,7 C -2,6 C -1,7 C 2,8 C 54 % 91 % 1021,2 hPa 0,0 l/m 0,0 km/h (0 Bft) W-SW 247 0 min 0,000 mm 0,0 UV-I 0 W/m -3,9 C -2,6 C 1,6 km/h (1 Bft) 95,65 %
17.12.2018 05:43 23,7 C -2,6 C -1,7 C 2,8 C 54 % 91 % 1021,2 hPa 0,0 l/m 0,0 km/h (0 Bft) W-SW 247 0 min 0,000 mm 0,0 UV-I 0 W/m -3,9 C -2,6 C 1,6 km/h (1 Bft) 95,65 %
17.12.2018 05:42 23,7 C -2,6 C -1,7 C 2,8 C 54 % 91 % 1021,2 hPa 0,0 l/m 0,0 km/h (0 Bft) N 0 0 min 0,000 mm 0,0 UV-I 0 W/m -3,9 C -2,6 C 0,0 km/h (0 Bft) 100,00 %
17.12.2018 05:41 23,7 C -2,6 C -1,7 C 2,8 C 54 % 91 % 1021,2 hPa 0,0 l/m 0,0 km/h (0 Bft) W-SW 247 0 min 0,000 mm 0,0 UV-I 0 W/m -3,9 C -2,6 C 3,2 km/h (1 Bft) 95,65 %
17.12.2018 05:40 23,7 C -2,6 C -1,7 C 2,8 C 54 % 91 % 1021,2 hPa 0,0 l/m 0,0 km/h (0 Bft) W-SW 247 0 min 0,000 mm 0,0 UV-I 0 W/m -3,9 C -2,6 C 1,6 km/h (1 Bft) 95,65 %
17.12.2018 05:39 23,7 C -2,6 C -1,7 C 2,8 C 54 % 91 % 1021,2 hPa 0,0 l/m 0,0 km/h (0 Bft) N 0 0 min 0,000 mm 0,0 UV-I 0 W/m -3,9 C -2,6 C 0,0 km/h (0 Bft) 95,65 %
17.12.2018 05:38 23,7 C -2,6 C -1,7 C 2,8 C 54 % 91 % 1021,2 hPa 0,0 l/m 0,0 km/h (0 Bft) N 0 0 min 0,000 mm 0,0 UV-I 0 W/m -3,9 C -2,6 C 0,0 km/h (0 Bft) 95,65 %
17.12.2018 05:37 23,7 C -2,6 C -1,7 C 2,8 C 54 % 91 % 1021,2 hPa 0,0 l/m 0,0 km/h (0 Bft) N 0 0 min 0,000 mm 0,0 UV-I 0 W/m -3,9 C -2,6 C 0,0 km/h (0 Bft) 95,65 %
17.12.2018 05:36 23,7 C -2,6 C -1,7 C 2,8 C 54 % 91 % 1021,2 hPa 0,0 l/m 0,0 km/h (0 Bft) N 0 0 min 0,000 mm 0,0 UV-I 0 W/m -3,9 C -2,6 C 0,0 km/h (0 Bft) 100,00 %
17.12.2018 05:35 23,7 C -2,6 C -1,7 C 2,8 C 54 % 91 % 1021,2 hPa 0,0 l/m 0,0 km/h (0 Bft) N 0 0 min 0,000 mm 0,0 UV-I 0 W/m -3,9 C -2,6 C 0,0 km/h (0 Bft) 95,65 %
17.12.2018 05:34 23,7 C -2,6 C -1,7 C 2,8 C 54 % 91 % 1021,2 hPa 0,0 l/m 0,0 km/h (0 Bft) N 0 0 min 0,000 mm 0,0 UV-I 0 W/m -3,9 C -2,6 C 0,0 km/h (0 Bft) 91,30 %
17.12.2018 05:33 23,7 C -2,6 C -1,7 C 2,8 C 54 % 91 % 1021,2 hPa 0,0 l/m 0,0 km/h (0 Bft) N 0 0 min 0,000 mm 0,0 UV-I 0 W/m -3,9 C -2,6 C 0,0 km/h (0 Bft) 95,65 %
17.12.2018 05:32 23,7 C -2,6 C -1,7 C 2,8 C 54 % 91 % 1021,2 hPa 0,0 l/m 0,0 km/h (0 Bft) N 0 0 min 0,000 mm 0,0 UV-I 0 W/m -3,9 C -2,6 C 0,0 km/h (0 Bft) 95,65 %
17.12.2018 05:31 23,7 C -2,6 C -1,7 C 2,8 C 54 % 91 % 1021,2 hPa 0,0 l/m 0,0 km/h (0 Bft) N 0 0 min 0,000 mm 0,0 UV-I 0 W/m -3,9 C -2,6 C 0,0 km/h (0 Bft) 95,65 %
17.12.2018 05:30 23,7 C -2,6 C -1,7 C 2,8 C 54 % 91 % 1021,2 hPa 0,0 l/m 0,0 km/h (0 Bft) N 0 0 min 0,000 mm 0,0 UV-I 0 W/m -3,9 C -2,6 C 0,0 km/h (0 Bft) 95,65 %
17.12.2018 05:29 23,7 C -2,6 C -1,7 C 2,8 C 54 % 91 % 1021,1 hPa 0,0 l/m 0,0 km/h (0 Bft) N 0 0 min 0,000 mm 0,0 UV-I 0 W/m -3,9 C -2,6 C 0,0 km/h (0 Bft) 95,65 %
17.12.2018 05:28 23,7 C -2,6 C -1,7 C 2,8 C 54 % 91 % 1021,1 hPa 0,0 l/m 0,0 km/h (0 Bft) N 0 0 min 0,000 mm 0,0 UV-I 0 W/m -3,9 C -2,6 C 0,0 km/h (0 Bft) 95,65 %
17.12.2018 05:27 23,7 C -2,6 C -1,7 C 2,8 C 54 % 91 % 1021,1 hPa 0,0 l/m 0,0 km/h (0 Bft) N 0 0 min 0,000 mm 0,0 UV-I 0 W/m -3,9 C -2,6 C 0,0 km/h (0 Bft) 95,65 %
17.12.2018 05:26 23,7 C -2,6 C -1,7 C 2,8 C 54 % 91 % 1021,1 hPa 0,0 l/m 0,0 km/h (0 Bft) N 0 0 min 0,000 mm 0,0 UV-I 0 W/m -3,9 C -2,6 C 0,0 km/h (0 Bft) 100,00 %
17.12.2018 05:25 23,7 C -2,6 C -1,7 C 2,8 C 54 % 91 % 1021,1 hPa 0,0 l/m 0,0 km/h (0 Bft) N 0 0 min 0,000 mm 0,0 UV-I 0 W/m -3,9 C -2,6 C 0,0 km/h (0 Bft) 95,65 %
17.12.2018 05:24 23,7 C -2,6 C -1,7 C 2,8 C 54 % 91 % 1021,1 hPa 0,0 l/m 0,0 km/h (0 Bft) N 0 0 min 0,000 mm 0,0 UV-I 0 W/m -3,9 C -2,6 C 0,0 km/h (0 Bft) 91,30 %
17.12.2018 05:23 23,7 C -2,6 C -1,7 C 2,8 C 54 % 91 % 1021,1 hPa 0,0 l/m 0,0 km/h (0 Bft) N 0 0 min 0,000 mm 0,0 UV-I 0 W/m -3,9 C -2,6 C 0,0 km/h (0 Bft) 100,00 %
17.12.2018 05:22 23,7 C -2,6 C -1,7 C 2,8 C 55 % 91 % 1021,1 hPa 0,0 l/m 0,0 km/h (0 Bft) N 0 0 min 0,000 mm 0,0 UV-I 0 W/m -3,9 C -2,6 C 0,0 km/h (0 Bft) 95,65 %
17.12.2018 05:21 23,7 C -2,6 C -1,7 C 2,8 C 54 % 91 % 1021,1 hPa 0,0 l/m 0,0 km/h (0 Bft) N 0 0 min 0,000 mm 0,0 UV-I 0 W/m -3,9 C -2,6 C 0,0 km/h (0 Bft) 95,65 %
17.12.2018 05:20 23,7 C -2,6 C -1,7 C 2,8 C 54 % 91 % 1021,1 hPa 0,0 l/m 0,0 km/h (0 Bft) N 0 0 min 0,000 mm 0,0 UV-I 0 W/m -3,9 C -2,6 C 0,0 km/h (0 Bft) 100,00 %
17.12.2018 05:19 23,7 C -2,6 C -1,7 C 2,8 C 55 % 91 % 1021,1 hPa 0,0 l/m 0,0 km/h (0 Bft) N 0 0 min 0,000 mm 0,0 UV-I 0 W/m -3,9 C -2,6 C 0,0 km/h (0 Bft) 95,65 %
17.12.2018 05:18 23,7 C -2,6 C -1,7 C 2,8 C 54 % 91 % 1021,1 hPa 0,0 l/m 0,0 km/h (0 Bft) N 0 0 min 0,000 mm 0,0 UV-I 0 W/m -3,9 C -2,6 C 0,0 km/h (0 Bft) 95,65 %
17.12.2018 05:17 23,7 C -2,6 C -1,7 C 2,8 C 54 % 91 % 1021,1 hPa 0,0 l/m 0,0 km/h (0 Bft) N 0 0 min 0,000 mm 0,0 UV-I 0 W/m -3,9 C -2,6 C 0,0 km/h (0 Bft) 100,00 %
17.12.2018 05:16 23,7 C -2,6 C -1,7 C 2,8 C 55 % 91 % 1021,1 hPa 0,0 l/m 0,0 km/h (0 Bft) N 0 0 min 0,000 mm 0,0 UV-I 0 W/m -3,9 C -2,6 C 0,0 km/h (0 Bft) 95,65 %
17.12.2018 05:15 23,7 C -2,6 C -1,7 C 2,8 C 55 % 91 % 1021,1 hPa 0,0 l/m 0,0 km/h (0 Bft) N 0 0 min 0,000 mm 0,0 UV-I 0 W/m -3,9 C -2,6 C 0,0 km/h (0 Bft) 95,65 %
17.12.2018 05:14 23,7 C -2,6 C -1,7 C 2,8 C 55 % 91 % 1020,9 hPa 0,0 l/m 0,0 km/h (0 Bft) W-SW 247 0 min 0,000 mm 0,0 UV-I 0 W/m -3,9 C -2,6 C 1,6 km/h (1 Bft) 95,65 %
17.12.2018 05:13 23,7 C -2,6 C -1,7 C 2,8 C 54 % 91 % 1020,9 hPa 0,0 l/m 0,0 km/h (0 Bft) N 0 0 min 0,000 mm 0,0 UV-I 0 W/m -3,9 C -2,6 C 0,0 km/h (0 Bft) 95,65 %
17.12.2018 05:12 23,7 C -2,6 C -1,7 C 2,8 C 55 % 91 % 1020,9 hPa 0,0 l/m 0,0 km/h (0 Bft) N 0 0 min 0,000 mm 0,0 UV-I 0 W/m -3,9 C -2,6 C 0,0 km/h (0 Bft) 91,30 %
17.12.2018 05:11 23,7 C -2,6 C -1,7 C 2,8 C 55 % 91 % 1020,9 hPa 0,0 l/m 0,0 km/h (0 Bft) N 0 0 min 0,000 mm 0,0 UV-I 0 W/m -3,9 C -2,6 C 0,0 km/h (0 Bft) 95,65 %
17.12.2018 05:10 23,7 C -2,6 C -1,7 C 2,8 C 55 % 91 % 1020,9 hPa 0,0 l/m 0,0 km/h (0 Bft) N 0 0 min 0,000 mm 0,0 UV-I 0 W/m -3,9 C -2,6 C 0,0 km/h (0 Bft) 91,30 %
17.12.2018 05:09 23,7 C -2,6 C -1,7 C 2,8 C 54 % 92 % 1020,9 hPa 0,0 l/m 1,6 km/h (1 Bft) W-SW 247 0 min 0,000 mm 0,0 UV-I 0 W/m -3,7 C -2,6 C 4,8 km/h (1 Bft) 95,65 %
17.12.2018 05:08 23,7 C -2,6 C -1,7 C 2,8 C 55 % 92 % 1020,9 hPa 0,0 l/m 1,6 km/h (1 Bft) W-SW 247 0 min 0,000 mm 0,0 UV-I 0 W/m -3,7 C -2,6 C 4,8 km/h (1 Bft) 91,30 %
17.12.2018 05:07 23,7 C -2,6 C -1,7 C 2,8 C 55 % 92 % 1020,9 hPa 0,0 l/m 1,6 km/h (1 Bft) W-SW 247 0 min 0,000 mm 0,0 UV-I 0 W/m -3,7 C -2,6 C 4,8 km/h (1 Bft) 91,30 %
17.12.2018 05:06 23,7 C -2,6 C -1,7 C 2,8 C 55 % 92 % 1020,9 hPa 0,0 l/m 1,6 km/h (1 Bft) W-SW 247 0 min 0,000 mm 0,0 UV-I 0 W/m -3,7 C -2,6 C 4,8 km/h (1 Bft) 86,96 %
17.12.2018 05:05 23,7 C -2,6 C -1,7 C 2,8 C 55 % 92 % 1020,9 hPa 0,0 l/m 0,0 km/h (0 Bft) N 0 0 min 0,000 mm 0,0 UV-I 0 W/m -3,7 C -2,6 C 0,0 km/h (0 Bft) 100,00 %
17.12.2018 05:04 23,7 C -2,6 C -1,7 C 2,8 C 55 % 92 % 1020,9 hPa 0,0 l/m 0,0 km/h (0 Bft) W-SW 247 0 min 0,000 mm 0,0 UV-I 0 W/m -3,7 C -2,6 C 1,6 km/h (1 Bft) 91,30 %
17.12.2018 05:03 23,7 C -2,6 C -1,7 C 2,8 C 54 % 92 % 1020,9 hPa 0,0 l/m 0,0 km/h (0 Bft) N 0 0 min 0,000 mm 0,0 UV-I 0 W/m -3,7 C -2,6 C 0,0 km/h (0 Bft) 95,65 %
17.12.2018 05:02 23,7 C -2,6 C -1,7 C 2,8 C 55 % 92 % 1020,9 hPa 0,0 l/m 0,0 km/h (0 Bft) W-SW 247 0 min 0,000 mm 0,0 UV-I 0 W/m -3,7 C -2,6 C 1,6 km/h (1 Bft) 95,65 %
17.12.2018 05:01 23,7 C -2,6 C -1,7 C 2,8 C 55 % 92 % 1020,9 hPa 0,0 l/m 1,6 km/h (1 Bft) W-SW 247 0 min 0,000 mm 0,0 UV-I 0 W/m -3,7 C -2,6 C 3,2 km/h (1 Bft) 91,30 %
17.12.2018 05:00 23,7 C -2,6 C -1,7 C 2,8 C 55 % 92 % 1020,9 hPa 0,0 l/m 3,2 km/h (1 Bft) W-SW 247 0 min 0,000 mm 0,0 UV-I 0 W/m -3,7 C -2,6 C 4,8 km/h (1 Bft) 91,30 %
17.12.2018 04:59 23,7 C -2,6 C -1,7 C 2,8 C 55 % 92 % 1020,8 hPa 0,0 l/m 0,0 km/h (0 Bft) W-SW 247 0 min 0,000 mm 0,0 UV-I 0 W/m -3,7 C -2,6 C 3,2 km/h (1 Bft) 95,65 %
17.12.2018 04:58 23,7 C -2,6 C -1,7 C 2,8 C 55 % 92 % 1020,8 hPa 0,0 l/m 0,0 km/h (0 Bft) W-SW 247 0 min 0,000 mm 0,0 UV-I 0 W/m -3,7 C -2,6 C 1,6 km/h (1 Bft) 95,65 %
17.12.2018 04:57 23,7 C -2,6 C -1,7 C 2,8 C 55 % 92 % 1020,8 hPa 0,0 l/m 0,0 km/h (0 Bft) W-SW 247 0 min 0,000 mm 0,0 UV-I 0 W/m -3,7 C -2,6 C 1,6 km/h (1 Bft) 91,30 %
17.12.2018 04:56 23,7 C -2,6 C -1,7 C 2,8 C 55 % 92 % 1020,8 hPa 0,0 l/m 1,6 km/h (1 Bft) W-SW 247 0 min 0,000 mm 0,0 UV-I 0 W/m -3,7 C -2,6 C 3,2 km/h (1 Bft) 95,65 %
17.12.2018 04:55 23,7 C -2,6 C -1,7 C 2,8 C 55 % 92 % 1020,8 hPa 0,0 l/m 1,6 km/h (1 Bft) W-SW 247 0 min 0,000 mm 0,0 UV-I 0 W/m -3,7 C -2,6 C 3,2 km/h (1 Bft) 91,30 %
17.12.2018 04:54 23,7 C -2,6 C -1,7 C 2,8 C 55 % 92 % 1020,8 hPa 0,0 l/m 3,2 km/h (1 Bft) W-SW 247 0 min 0,000 mm 0,0 UV-I 0 W/m -3,7 C -2,6 C 4,8 km/h (1 Bft) 95,65 %
17.12.2018 04:53 23,7 C -2,6 C -1,7 C 2,8 C 55 % 92 % 1020,8 hPa 0,0 l/m 1,6 km/h (1 Bft) W-SW 247 0 min 0,000 mm 0,0 UV-I 0 W/m -3,7 C -2,6 C 4,8 km/h (1 Bft) 91,30 %
17.12.2018 04:52 23,7 C -2,6 C -1,7 C 2,8 C 55 % 92 % 1020,8 hPa 0,0 l/m 1,6 km/h (1 Bft) W-SW 247 0 min 0,000 mm 0,0 UV-I 0 W/m -3,7 C -2,6 C 3,2 km/h (1 Bft) 86,96 %
17.12.2018 04:51 23,7 C -2,6 C -1,7 C 2,8 C 55 % 92 % 1020,8 hPa 0,0 l/m 1,6 km/h (1 Bft) W-SW 247 0 min 0,000 mm 0,0 UV-I 0 W/m -3,7 C -2,6 C 4,8 km/h (1 Bft) 91,30 %
17.12.2018 04:50 23,7 C -2,6 C -1,7 C 2,8 C 55 % 92 % 1020,8 hPa 0,0 l/m 3,2 km/h (1 Bft) W-SW 247 0 min 0,000 mm 0,0 UV-I 0 W/m -3,7 C -2,6 C 4,8 km/h (1 Bft) 100,00 %
17.12.2018 04:49 23,7 C -2,6 C -1,7 C 2,8 C 55 % 92 % 1020,8 hPa 0,0 l/m 3,2 km/h (1 Bft) W-SW 247 0 min 0,000 mm 0,0 UV-I 0 W/m -3,7 C -2,6 C 4,8 km/h (1 Bft) 91,30 %
17.12.2018 04:48 23,7 C -2,6 C -1,7 C 2,8 C 55 % 92 % 1020,8 hPa 0,0 l/m 4,8 km/h (1 Bft) W-SW 247 0 min 0,000 mm 0,0 UV-I 0 W/m -3,7 C -2,6 C 6,4 km/h (2 Bft) 95,65 %
17.12.2018 04:47 23,7 C -2,6 C -1,7 C 2,8 C 55 % 92 % 1020,8 hPa 0,0 l/m 4,8 km/h (1 Bft) W-SW 247 0 min 0,000 mm 0,0 UV-I 0 W/m -3,7 C -2,6 C 4,8 km/h (1 Bft) 95,65 %
17.12.2018 04:46 23,7 C -2,6 C -1,7 C 2,8 C 55 % 92 % 1020,8 hPa 0,0 l/m 4,8 km/h (1 Bft) W-SW 247 0 min 0,000 mm 0,0 UV-I 0 W/m -3,7 C -2,6 C 6,4 km/h (2 Bft) 100,00 %
17.12.2018 04:45 23,7 C -2,6 C -1,7 C 2,8 C 55 % 92 % 1020,8 hPa 0,0 l/m 3,2 km/h (1 Bft) W-SW 247 0 min 0,000 mm 0,0 UV-I 0 W/m -3,7 C -2,6 C 4,8 km/h (1 Bft) 95,65 %
17.12.2018 04:44 23,7 C -2,6 C -1,7 C 2,8 C 55 % 92 % 1020,7 hPa 0,0 l/m 3,2 km/h (1 Bft) W-SW 247 0 min 0,000 mm 0,0 UV-I 0 W/m -3,7 C -2,6 C 4,8 km/h (1 Bft) 95,65 %
17.12.2018 04:43 23,7 C -2,7 C -1,7 C 2,8 C 55 % 92 % 1020,7 hPa 0,0 l/m 0,0 km/h (0 Bft) N 0 0 min 0,000 mm 0,0 UV-I 0 W/m -3,8 C -2,7 C 0,0 km/h (0 Bft) 100,00 %
17.12.2018 04:42 23,7 C -2,7 C -1,7 C 2,8 C 55 % 92 % 1020,7 hPa 0,0 l/m 1,6 km/h (1 Bft) W-SW 247 0 min 0,000 mm 0,0 UV-I 0 W/m -3,8 C -2,7 C 1,6 km/h (1 Bft) 91,30 %
17.12.2018 04:41 23,7 C -2,7 C -1,7 C 2,8 C 55 % 92 % 1020,7 hPa 0,0 l/m 1,6 km/h (1 Bft) W-SW 247 0 min 0,000 mm 0,0 UV-I 0 W/m -3,8 C -2,7 C 3,2 km/h (1 Bft) 95,65 %
17.12.2018 04:40 23,7 C -2,7 C -1,7 C 2,8 C 55 % 92 % 1020,7 hPa 0,0 l/m 3,2 km/h (1 Bft) W-SW 247 0 min 0,000 mm 0,0 UV-I 0 W/m -3,8 C -2,7 C 4,8 km/h (1 Bft) 100,00 %
17.12.2018 04:39 23,7 C -2,7 C -1,7 C 2,8 C 55 % 92 % 1020,7 hPa 0,0 l/m 4,8 km/h (1 Bft) W-SW 247 0 min 0,000 mm 0,0 UV-I 0 W/m -3,8 C -2,7 C 6,4 km/h (2 Bft) 95,65 %
17.12.2018 04:38 23,7 C -2,7 C -1,7 C 2,8 C 55 % 92 % 1020,7 hPa 0,0 l/m 3,2 km/h (1 Bft) W-SW 247 0 min 0,000 mm 0,0 UV-I 0 W/m -3,8 C -2,7 C 4,8 km/h (1 Bft) 95,65 %
17.12.2018 04:37 23,7 C -2,7 C -1,7 C 2,8 C 55 % 92 % 1020,7 hPa 0,0 l/m 3,2 km/h (1 Bft) W-SW 247 0 min 0,000 mm 0,0 UV-I 0 W/m -3,8 C -2,7 C 4,8 km/h (1 Bft) 100,00 %
17.12.2018 04:36 23,7 C -2,7 C -1,7 C 2,8 C 55 % 92 % 1020,7 hPa 0,0 l/m 3,2 km/h (1 Bft) W-SW 247 0 min 0,000 mm 0,0 UV-I 0 W/m -3,8 C -2,7 C 4,8 km/h (1 Bft) 91,30 %
17.12.2018 04:35 23,7 C -2,7 C -1,7 C 2,8 C 55 % 92 % 1020,7 hPa 0,0 l/m 1,6 km/h (1 Bft) W-SW 247 0 min 0,000 mm 0,0 UV-I 0 W/m -3,8 C -2,7 C 4,8 km/h (1 Bft) 95,65 %
17.12.2018 04:34 23,7 C -2,7 C -1,7 C 2,8 C 55 % 92 % 1020,7 hPa 0,0 l/m 0,0 km/h (0 Bft) SO 135 0 min 0,000 mm 0,0 UV-I 0 W/m -3,8 C -2,7 C 1,6 km/h (1 Bft) 100,00 %
17.12.2018 04:33 23,7 C -2,7 C -1,7 C 2,8 C 55 % 92 % 1020,7 hPa 0,0 l/m 1,6 km/h (1 Bft) SO 135 0 min 0,000 mm 0,0 UV-I 0 W/m -3,8 C -2,7 C 3,2 km/h (1 Bft) 95,65 %
17.12.2018 04:32 23,7 C -2,7 C -1,7 C 2,8 C 55 % 92 % 1020,7 hPa 0,0 l/m 0,0 km/h (0 Bft) SO 135 0 min 0,000 mm 0,0 UV-I 0 W/m -3,8 C -2,7 C 1,6 km/h (1 Bft) 95,65 %
17.12.2018 04:31 23,7 C -2,7 C -1,7 C 2,8 C 55 % 92 % 1020,7 hPa 0,0 l/m 0,0 km/h (0 Bft) SO 135 0 min 0,000 mm 0,0 UV-I 0 W/m -3,8 C -2,7 C 1,6 km/h (1 Bft) 95,65 %
17.12.2018 04:30 23,7 C -2,7 C -1,7 C 2,8 C 55 % 92 % 1020,7 hPa 0,0 l/m 0,0 km/h (0 Bft) N 0 0 min 0,000 mm 0,0 UV-I 0 W/m -3,8 C -2,7 C 0,0 km/h (0 Bft) 95,65 %
17.12.2018 04:29 23,7 C -2,7 C -1,7 C 2,8 C 56 % 92 % 1020,4 hPa 0,0 l/m 0,0 km/h (0 Bft) N 0 0 min 0,000 mm 0,0 UV-I 0 W/m -3,8 C -2,7 C 0,0 km/h (0 Bft) 95,65 %
17.12.2018 04:28 23,7 C -2,7 C -1,7 C 2,8 C 55 % 92 % 1020,4 hPa 0,0 l/m 0,0 km/h (0 Bft) N 0 0 min 0,000 mm 0,0 UV-I 0 W/m -3,8 C -2,7 C 0,0 km/h (0 Bft) 100,00 %
17.12.2018 04:27 23,7 C -2,7 C -1,7 C 2,8 C 55 % 92 % 1020,4 hPa 0,0 l/m 0,0 km/h (0 Bft) SO 135 0 min 0,000 mm 0,0 UV-I 0 W/m -3,8 C -2,7 C 1,6 km/h (1 Bft) 91,30 %
17.12.2018 04:26 23,7 C -2,7 C -1,7 C 2,8 C 55 % 92 % 1020,4 hPa 0,0 l/m 3,2 km/h (1 Bft) SO 135 0 min 0,000 mm 0,0 UV-I 0 W/m -3,8 C -2,7 C 4,8 km/h (1 Bft) 95,65 %
17.12.2018 04:25 23,7 C -2,7 C -1,7 C 2,8 C 55 % 92 % 1020,4 hPa 0,0 l/m 0,0 km/h (0 Bft) SO 135 0 min 0,000 mm 0,0 UV-I 0 W/m -3,8 C -2,7 C 1,6 km/h (1 Bft) 100,00 %
17.12.2018 04:24 23,7 C -2,7 C -1,7 C 2,8 C 55 % 92 % 1020,4 hPa 0,0 l/m 0,0 km/h (0 Bft) N 0 0 min 0,000 mm 0,0 UV-I 0 W/m -3,8 C -2,7 C 0,0 km/h (0 Bft) 95,65 %
17.12.2018 04:23 23,7 C -2,8 C -1,7 C 2,8 C 55 % 92 % 1020,4 hPa 0,0 l/m 0,0 km/h (0 Bft) SO 135 0 min 0,000 mm 0,0 UV-I 0 W/m -3,9 C -2,8 C 1,6 km/h (1 Bft) 95,65 %
17.12.2018 04:22 23,7 C -2,8 C -1,7 C 2,8 C 55 % 92 % 1020,4 hPa 0,0 l/m 0,0 km/h (0 Bft) N 0 0 min 0,000 mm 0,0 UV-I 0 W/m -3,9 C -2,8 C 0,0 km/h (0 Bft) 100,00 %
17.12.2018 04:21 23,7 C -2,8 C -1,7 C 2,8 C 55 % 92 % 1020,4 hPa 0,0 l/m 1,6 km/h (1 Bft) SO 135 0 min 0,000 mm 0,0 UV-I 0 W/m -3,9 C -2,8 C 3,2 km/h (1 Bft) 95,65 %
17.12.2018 04:20 23,7 C -2,8 C -1,7 C 2,8 C 55 % 92 % 1020,4 hPa 0,0 l/m 1,6 km/h (1 Bft) SO 135 0 min 0,000 mm 0,0 UV-I 0 W/m -3,9 C -2,8 C 3,2 km/h (1 Bft) 95,65 %
17.12.2018 04:19 23,7 C -2,8 C -1,7 C 2,8 C 55 % 92 % 1020,4 hPa 0,0 l/m 0,0 km/h (0 Bft) SO 135 0 min 0,000 mm 0,0 UV-I 0 W/m -3,9 C -2,8 C 1,6 km/h (1 Bft) 95,65 %
17.12.2018 04:18 23,7 C -2,8 C -1,7 C 2,8 C 55 % 92 % 1020,4 hPa 0,0 l/m 3,2 km/h (1 Bft) SO 135 0 min 0,000 mm 0,0 UV-I 0 W/m -3,9 C -2,8 C 4,8 km/h (1 Bft) 95,65 %
17.12.2018 04:17 23,7 C -2,8 C -1,7 C 2,8 C 55 % 92 % 1020,4 hPa 0,0 l/m 3,2 km/h (1 Bft) SO 135 0 min 0,000 mm 0,0 UV-I 0 W/m -3,9 C -2,8 C 3,2 km/h (1 Bft) 95,65 %
17.12.2018 04:16 23,7 C -2,8 C -1,7 C 2,8 C 55 % 92 % 1020,4 hPa 0,0 l/m 3,2 km/h (1 Bft) SO 135 0 min 0,000 mm 0,0 UV-I 0 W/m -3,9 C -2,8 C 4,8 km/h (1 Bft) 100,00 %
17.12.2018 04:15 23,7 C -2,8 C -1,7 C 2,8 C 55 % 92 % 1020,4 hPa 0,0 l/m 0,0 km/h (0 Bft) SO 135 0 min 0,000 mm 0,0 UV-I 0 W/m -3,9 C -2,8 C 3,2 km/h (1 Bft) 95,65 %
17.12.2018 04:14 23,7 C -2,8 C -1,7 C 2,8 C 55 % 92 % 1020,6 hPa 0,0 l/m 0,0 km/h (0 Bft) SO 135 0 min 0,000 mm 0,0 UV-I 0 W/m -3,9 C -2,8 C 1,6 km/h (1 Bft) 95,65 %
17.12.2018 04:13 23,7 C -2,8 C -1,7 C 2,8 C 55 % 92 % 1020,6 hPa 0,0 l/m 1,6 km/h (1 Bft) SO 135 0 min 0,000 mm 0,0 UV-I 0 W/m -3,9 C -2,8 C 3,2 km/h (1 Bft) 100,00 %
17.12.2018 04:12 23,7 C -2,8 C -1,7 C 2,8 C 55 % 92 % 1020,6 hPa 0,0 l/m 1,6 km/h (1 Bft) SO 135 0 min 0,000 mm 0,0 UV-I 0 W/m -3,9 C -2,8 C 3,2 km/h (1 Bft) 95,65 %
17.12.2018 04:11 23,7 C -2,8 C -1,7 C 2,8 C 55 % 92 % 1020,6 hPa 0,0 l/m 1,6 km/h (1 Bft) SO 135 0 min 0,000 mm 0,0 UV-I 0 W/m -3,9 C -2,8 C 3,2 km/h (1 Bft) 95,65 %
17.12.2018 04:10 23,7 C -2,8 C -1,7 C 2,8 C 55 % 92 % 1020,6 hPa 0,0 l/m 1,6 km/h (1 Bft) SO 135 0 min 0,000 mm 0,0 UV-I 0 W/m -3,9 C -2,8 C 3,2 km/h (1 Bft) 95,65 %
17.12.2018 04:09 23,8 C -2,8 C -1,7 C 2,8 C 55 % 92 % 1020,6 hPa 0,0 l/m 3,2 km/h (1 Bft) SO 135 0 min 0,000 mm 0,0 UV-I 0 W/m -3,9 C -2,8 C 4,8 km/h (1 Bft) 95,65 %
17.12.2018 04:08 23,8 C -2,8 C -1,7 C 2,8 C 55 % 92 % 1020,6 hPa 0,0 l/m 3,2 km/h (1 Bft) SO 135 0 min 0,000 mm 0,0 UV-I 0 W/m -3,9 C -2,8 C 4,8 km/h (1 Bft) 91,30 %
17.12.2018 04:07 23,8 C -2,8 C -1,7 C 2,8 C 55 % 92 % 1020,6 hPa 0,0 l/m 3,2 km/h (1 Bft) SO 135 0 min 0,000 mm 0,0 UV-I 0 W/m -3,9 C -2,8 C 4,8 km/h (1 Bft) 100,00 %
17.12.2018 04:06 23,8 C -2,8 C -1,7 C 2,8 C 55 % 92 % 1020,6 hPa 0,0 l/m 3,2 km/h (1 Bft) SO 135 0 min 0,000 mm 0,0 UV-I 0 W/m -3,9 C -2,8 C 4,8 km/h (1 Bft) 95,65 %
17.12.2018 04:05 23,8 C -2,8 C -1,7 C 2,8 C 55 % 92 % 1020,6 hPa 0,0 l/m 0,0 km/h (0 Bft) SO 135 0 min 0,000 mm 0,0 UV-I 0 W/m -3,9 C -2,8 C 3,2 km/h (1 Bft) 95,65 %
17.12.2018 04:04 23,8 C -2,8 C -1,7 C 2,8 C 55 % 92 % 1020,6 hPa 0,0 l/m 0,0 km/h (0 Bft) SO 135 0 min 0,000 mm 0,0 UV-I 0 W/m -3,9 C -2,8 C 1,6 km/h (1 Bft) 95,65 %
17.12.2018 04:03 23,8 C -2,8 C -1,7 C 2,8 C 55 % 92 % 1020,6 hPa 0,0 l/m 0,0 km/h (0 Bft) SO 135 0 min 0,000 mm 0,0 UV-I 0 W/m -3,9 C -2,8 C 1,6 km/h (1 Bft) 95,65 %
17.12.2018 04:02 23,8 C -2,8 C -1,7 C 2,8 C 55 % 92 % 1020,6 hPa 0,0 l/m 1,6 km/h (1 Bft) SO 135 0 min 0,000 mm 0,0 UV-I 0 W/m -3,9 C -2,8 C 3,2 km/h (1 Bft) 95,65 %
17.12.2018 04:01 23,8 C -2,8 C -1,7 C 2,8 C 55 % 93 % 1020,6 hPa 0,0 l/m 0,0 km/h (0 Bft) SO 135 0 min 0,000 mm 0,0 UV-I 0 W/m -3,8 C -2,8 C 3,2 km/h (1 Bft) 91,30 %
17.12.2018 04:00 23,8 C -2,8 C -1,7 C 2,8 C 55 % 93 % 1020,6 hPa 0,0 l/m 3,2 km/h (1 Bft) SO 135 0 min 0,000 mm 0,0 UV-I 0 W/m -3,8 C -2,8 C 4,8 km/h (1 Bft) 100,00 %
17.12.2018 03:59 23,8 C -2,8 C -1,7 C 2,8 C 55 % 93 % 1020,3 hPa 0,0 l/m 0,0 km/h (0 Bft) SO 135 0 min 0,000 mm 0,0 UV-I 0 W/m -3,8 C -2,8 C 1,6 km/h (1 Bft) 95,65 %
17.12.2018 03:58 23,8 C -2,8 C -1,7 C 2,8 C 55 % 93 % 1020,3 hPa 0,0 l/m 1,6 km/h (1 Bft) SO 135 0 min 0,000 mm 0,0 UV-I 0 W/m -3,8 C -2,8 C 4,8 km/h (1 Bft) 95,65 %
17.12.2018 03:57 23,8 C -2,8 C -1,7 C 2,8 C 55 % 93 % 1020,3 hPa 0,0 l/m 3,2 km/h (1 Bft) SO 135 0 min 0,000 mm 0,0 UV-I 0 W/m -3,8 C -2,8 C 4,8 km/h (1 Bft) 100,00 %
17.12.2018 03:56 23,8 C -2,9 C -1,7 C 2,8 C 55 % 93 % 1020,3 hPa 0,0 l/m 1,6 km/h (1 Bft) SO 135 0 min 0,000 mm 0,0 UV-I 0 W/m -3,9 C -2,9 C 3,2 km/h (1 Bft) 95,65 %
17.12.2018 03:55 23,8 C -2,9 C -1,7 C 2,8 C 55 % 93 % 1020,3 hPa 0,0 l/m 1,6 km/h (1 Bft) SO 135 0 min 0,000 mm 0,0 UV-I 0 W/m -3,9 C -2,9 C 3,2 km/h (1 Bft) 95,65 %
17.12.2018 03:54 23,8 C -2,9 C -1,7 C 2,8 C 55 % 93 % 1020,3 hPa 0,0 l/m 1,6 km/h (1 Bft) SO 135 0 min 0,000 mm 0,0 UV-I 0 W/m -3,9 C -2,9 C 3,2 km/h (1 Bft) 95,65 %
17.12.2018 03:53 23,8 C -2,9 C -1,7 C 2,8 C 55 % 93 % 1020,3 hPa 0,0 l/m 1,6 km/h (1 Bft) SO 135 0 min 0,000 mm 0,0 UV-I 0 W/m -3,9 C -2,9 C 3,2 km/h (1 Bft) 95,65 %
17.12.2018 03:52 23,8 C -2,9 C -1,7 C 2,8 C 55 % 93 % 1020,3 hPa 0,0 l/m 3,2 km/h (1 Bft) SO 135 0 min 0,000 mm 0,0 UV-I 0 W/m -3,9 C -2,9 C 4,8 km/h (1 Bft) 91,30 %
17.12.2018 03:51 23,8 C -2,9 C -1,7 C 2,8 C 55 % 93 % 1020,3 hPa 0,0 l/m 0,0 km/h (0 Bft) SO 135 0 min 0,000 mm 0,0 UV-I 0 W/m -3,9 C -2,9 C 3,2 km/h (1 Bft) 95,65 %
17.12.2018 03:50 23,8 C -2,9 C -1,7 C 2,8 C 55 % 93 % 1020,3 hPa 0,0 l/m 0,0 km/h (0 Bft) SO 135 0 min 0,000 mm 0,0 UV-I 0 W/m -3,9 C -2,9 C 3,2 km/h (1 Bft) 91,30 %
17.12.2018 03:49 23,8 C -2,9 C -1,7 C 2,8 C 55 % 93 % 1020,3 hPa 0,0 l/m 1,6 km/h (1 Bft) SO 135 0 min 0,000 mm 0,0 UV-I 0 W/m -3,9 C -2,9 C 4,8 km/h (1 Bft) 95,65 %
17.12.2018 03:48 23,8 C -2,9 C -1,7 C 2,8 C 55 % 93 % 1020,3 hPa 0,0 l/m 3,2 km/h (1 Bft) SO 135 0 min 0,000 mm 0,0 UV-I 0 W/m -3,9 C -2,9 C 6,4 km/h (2 Bft) 95,65 %
17.12.2018 03:47 23,8 C -2,9 C -1,7 C 2,8 C 55 % 93 % 1020,3 hPa 0,0 l/m 1,6 km/h (1 Bft) SO 135 0 min 0,000 mm 0,0 UV-I 0 W/m -3,9 C -2,9 C 4,8 km/h (1 Bft) 95,65 %
17.12.2018 03:46 23,8 C -2,9 C -1,7 C 2,8 C 55 % 93 % 1020,3 hPa 0,0 l/m 3,2 km/h (1 Bft) SO 135 0 min 0,000 mm 0,0 UV-I 0 W/m -3,9 C -2,9 C 6,4 km/h (2 Bft) 82,61 %
17.12.2018 03:45 23,8 C -3,0 C -1,7 C 2,8 C 55 % 93 % 1020,3 hPa 0,0 l/m 0,0 km/h (0 Bft) SO 135 0 min 0,000 mm 0,0 UV-I 0 W/m -4,0 C -3,0 C 1,6 km/h (1 Bft) 100,00 %
17.12.2018 03:44 23,8 C -3,0 C -1,7 C 2,8 C 55 % 93 % 1020,3 hPa 0,0 l/m 3,2 km/h (1 Bft) SO 135 0 min 0,000 mm 0,0 UV-I 0 W/m -4,0 C -3,0 C 4,8 km/h (1 Bft) 86,96 %
17.12.2018 03:43 23,8 C -3,0 C -1,7 C 2,8 C 55 % 93 % 1020,3 hPa 0,0 l/m 0,0 km/h (0 Bft) SO 135 0 min 0,000 mm 0,0 UV-I 0 W/m -4,0 C -3,0 C 3,2 km/h (1 Bft) 91,30 %
17.12.2018 03:42 23,8 C -3,0 C -1,7 C 2,8 C 55 % 93 % 1020,3 hPa 0,0 l/m 0,0 km/h (0 Bft) N 0 0 min 0,000 mm 0,0 UV-I 0 W/m -4,0 C -3,0 C 0,0 km/h (0 Bft) 100,00 %
17.12.2018 03:41 23,8 C -3,0 C -1,7 C 2,8 C 55 % 93 % 1020,3 hPa 0,0 l/m 0,0 km/h (0 Bft) N 0 0 min 0,000 mm 0,0 UV-I 0 W/m -4,0 C -3,0 C 0,0 km/h (0 Bft) 91,30 %
17.12.2018 03:40 23,8 C -3,0 C -1,7 C 2,8 C 55 % 93 % 1020,3 hPa 0,0 l/m 0,0 km/h (0 Bft) N 0 0 min 0,000 mm 0,0 UV-I 0 W/m -4,0 C -3,0 C 0,0 km/h (0 Bft) 95,65 %
17.12.2018 03:39 23,8 C -3,0 C -1,7 C 2,8 C 55 % 93 % 1020,3 hPa 0,0 l/m 0,0 km/h (0 Bft) N 0 0 min 0,000 mm 0,0 UV-I 0 W/m -4,0 C -3,0 C 0,0 km/h (0 Bft) 91,30 %
17.12.2018 03:38 23,8 C -3,0 C -1,7 C 2,8 C 55 % 93 % 1020,3 hPa 0,0 l/m 0,0 km/h (0 Bft) N 0 0 min 0,000 mm 0,0 UV-I 0 W/m -4,0 C -3,0 C 0,0 km/h (0 Bft) 95,65 %
17.12.2018 03:37 23,8 C -3,1 C -1,7 C 2,8 C 55 % 93 % 1020,3 hPa 0,0 l/m 0,0 km/h (0 Bft) N 0 0 min 0,000 mm 0,0 UV-I 0 W/m -4,1 C -3,1 C 0,0 km/h (0 Bft) 95,65 %
17.12.2018 03:36 23,8 C -3,1 C -1,7 C 2,8 C 55 % 93 % 1020,3 hPa 0,0 l/m 0,0 km/h (0 Bft) N 0 0 min 0,000 mm 0,0 UV-I 0 W/m -4,1 C -3,1 C 0,0 km/h (0 Bft) 100,00 %
17.12.2018 03:35 23,8 C -3,1 C -1,7 C 2,8 C 55 % 93 % 1020,3 hPa 0,0 l/m 0,0 km/h (0 Bft) N 0 0 min 0,000 mm 0,0 UV-I 0 W/m -4,1 C -3,1 C 0,0 km/h (0 Bft) 91,30 %
17.12.2018 03:34 23,8 C -3,1 C -1,7 C 2,8 C 55 % 93 % 1020,3 hPa 0,0 l/m 0,0 km/h (0 Bft) N 0 0 min 0,000 mm 0,0 UV-I 0 W/m -4,1 C -3,1 C 0,0 km/h (0 Bft) 95,65 %
17.12.2018 03:33 23,8 C -3,1 C -1,7 C 2,8 C 55 % 93 % 1020,3 hPa 0,0 l/m 0,0 km/h (0 Bft) N 0 0 min 0,000 mm 0,0 UV-I 0 W/m -4,1 C -3,1 C 0,0 km/h (0 Bft) 91,30 %
17.12.2018 03:32 23,8 C -3,1 C -1,7 C 2,8 C 55 % 93 % 1020,3 hPa 0,0 l/m 0,0 km/h (0 Bft) N 0 0 min 0,000 mm 0,0 UV-I 0 W/m -4,1 C -3,1 C 0,0 km/h (0 Bft) 91,30 %
17.12.2018 03:31 23,8 C -3,1 C -1,7 C 2,8 C 55 % 93 % 1020,3 hPa 0,0 l/m 0,0 km/h (0 Bft) N 0 0 min 0,000 mm 0,0 UV-I 0 W/m -4,1 C -3,1 C 0,0 km/h (0 Bft) 95,65 %
17.12.2018 03:30 23,8 C -3,1 C -1,7 C 2,8 C 55 % 93 % 1020,3 hPa 0,0 l/m 0,0 km/h (0 Bft) N 0 0 min 0,000 mm 0,0 UV-I 0 W/m -4,1 C -3,1 C 0,0 km/h (0 Bft) 95,65 %
17.12.2018 03:29 23,8 C -3,1 C -1,7 C 2,8 C 55 % 93 % 1020,3 hPa 0,0 l/m 0,0 km/h (0 Bft) N 0 0 min 0,000 mm 0,0 UV-I 0 W/m -4,1 C -3,1 C 0,0 km/h (0 Bft) 91,30 %
17.12.2018 03:28 23,8 C -3,1 C -1,7 C 2,8 C 55 % 93 % 1020,3 hPa 0,0 l/m 0,0 km/h (0 Bft) N 0 0 min 0,000 mm 0,0 UV-I 0 W/m -4,1 C -3,1 C 0,0 km/h (0 Bft) 91,30 %
17.12.2018 03:27 23,8 C -3,1 C -1,7 C 2,8 C 55 % 93 % 1020,3 hPa 0,0 l/m 0,0 km/h (0 Bft) N 0 0 min 0,000 mm 0,0 UV-I 0 W/m -4,1 C -3,1 C 0,0 km/h (0 Bft) 100,00 %
17.12.2018 03:26 23,8 C -3,2 C -1,7 C 2,8 C 55 % 93 % 1020,3 hPa 0,0 l/m 0,0 km/h (0 Bft) N 0 0 min 0,000 mm 0,0 UV-I 0 W/m -4,2 C -3,2 C 0,0 km/h (0 Bft) 91,30 %
17.12.2018 03:25 23,8 C -3,2 C -1,7 C 2,8 C 55 % 93 % 1020,3 hPa 0,0 l/m 0,0 km/h (0 Bft) N 0 0 min 0,000 mm 0,0 UV-I 0 W/m -4,2 C -3,2 C 0,0 km/h (0 Bft) 95,65 %
17.12.2018 03:24 23,8 C -3,2 C -1,7 C 2,8 C 56 % 93 % 1020,3 hPa 0,0 l/m 1,6 km/h (1 Bft) SO 135 0 min 0,000 mm 0,0 UV-I 0 W/m -4,2 C -3,2 C 4,8 km/h (1 Bft) 100,00 %
17.12.2018 03:23 23,8 C -3,2 C -1,7 C 2,8 C 55 % 93 % 1020,3 hPa 0,0 l/m 1,6 km/h (1 Bft) SO 135 0 min 0,000 mm 0,0 UV-I 0 W/m -4,2 C -3,2 C 3,2 km/h (1 Bft) 95,65 %
17.12.2018 03:22 23,8 C -3,2 C -1,7 C 2,8 C 55 % 93 % 1020,3 hPa 0,0 l/m 0,0 km/h (0 Bft) SO 135 0 min 0,000 mm 0,0 UV-I 0 W/m -4,2 C -3,2 C 3,2 km/h (1 Bft) 95,65 %
17.12.2018 03:21 23,8 C -3,2 C -1,7 C 2,8 C 55 % 93 % 1020,3 hPa 0,0 l/m 0,0 km/h (0 Bft) N 0 0 min 0,000 mm 0,0 UV-I 0 W/m -4,2 C -3,2 C 0,0 km/h (0 Bft) 100,00 %
17.12.2018 03:20 23,8 C -3,2 C -2,2 C 2,8 C 55 % 93 % 1020,3 hPa 0,0 l/m 0,0 km/h (0 Bft) SO 135 0 min 0,000 mm 0,0 UV-I 0 W/m -4,2 C -3,2 C 1,6 km/h (1 Bft) 91,30 %
17.12.2018 03:19 23,8 C -3,2 C -2,2 C 2,8 C 55 % 93 % 1020,3 hPa 0,0 l/m 1,6 km/h (1 Bft) SO 135 0 min 0,000 mm 0,0 UV-I 0 W/m -4,2 C -3,2 C 1,6 km/h (1 Bft) 95,65 %
17.12.2018 03:18 23,8 C -3,2 C -2,2 C 2,8 C 55 % 93 % 1020,3 hPa 0,0 l/m 1,6 km/h (1 Bft) SO 135 0 min 0,000 mm 0,0 UV-I 0 W/m -4,2 C -3,2 C 3,2 km/h (1 Bft) 100,00 %
17.12.2018 03:17 23,8 C -3,3 C -2,2 C 2,8 C 55 % 92 % 1020,3 hPa 0,0 l/m 1,6 km/h (1 Bft) SO 135 0 min 0,000 mm 0,0 UV-I 0 W/m -4,4 C -3,3 C 3,2 km/h (1 Bft) 95,65 %
17.12.2018 03:16 23,8 C -3,3 C -1,7 C 2,8 C 55 % 93 % 1020,3 hPa 0,0 l/m 1,6 km/h (1 Bft) SO 135 0 min 0,000 mm 0,0 UV-I 0 W/m -4,3 C -3,3 C 3,2 km/h (1 Bft) 95,65 %
17.12.2018 03:15 23,8 C -3,3 C -1,7 C 2,8 C 55 % 92 % 1020,3 hPa 0,0 l/m 0,0 km/h (0 Bft) SO 135 0 min 0,000 mm 0,0 UV-I 0 W/m -4,4 C -3,3 C 1,6 km/h (1 Bft) 91,30 %
17.12.2018 03:14 23,8 C -3,3 C -1,7 C 2,8 C 55 % 92 % 1020,3 hPa 0,0 l/m 0,0 km/h (0 Bft) N 0 0 min 0,000 mm 0,0 UV-I 0 W/m -4,4 C -3,3 C 0,0 km/h (0 Bft) 100,00 %
17.12.2018 03:13 23,8 C -3,3 C -1,7 C 2,8 C 55 % 92 % 1020,3 hPa 0,0 l/m 0,0 km/h (0 Bft) N 0 0 min 0,000 mm 0,0 UV-I 0 W/m -4,4 C -3,3 C 0,0 km/h (0 Bft) 95,65 %
17.12.2018 03:12 23,8 C -3,4 C -1,7 C 2,8 C 55 % 92 % 1020,3 hPa 0,0 l/m 0,0 km/h (0 Bft) N 0 0 min 0,000 mm 0,0 UV-I 0 W/m -4,5 C -3,4 C 0,0 km/h (0 Bft) 95,65 %
17.12.2018 03:11 23,8 C -3,4 C -1,7 C 2,8 C 55 % 92 % 1020,3 hPa 0,0 l/m 0,0 km/h (0 Bft) N 0 0 min 0,000 mm 0,0 UV-I 0 W/m -4,5 C -3,4 C 0,0 km/h (0 Bft) 100,00 %
17.12.2018 03:10 23,8 C -3,4 C -1,7 C 2,8 C 55 % 92 % 1020,3 hPa 0,0 l/m 0,0 km/h (0 Bft) N 0 0 min 0,000 mm 0,0 UV-I 0 W/m -4,5 C -3,4 C 0,0 km/h (0 Bft) 95,65 %
17.12.2018 03:09 23,8 C -3,4 C -1,7 C 2,8 C 55 % 92 % 1020,3 hPa 0,0 l/m 0,0 km/h (0 Bft) N 0 0 min 0,000 mm 0,0 UV-I 0 W/m -4,5 C -3,4 C 0,0 km/h (0 Bft) 91,30 %
17.12.2018 03:08 23,8 C -3,4 C -1,7 C 2,8 C 55 % 92 % 1020,3 hPa 0,0 l/m 0,0 km/h (0 Bft) N 0 0 min 0,000 mm 0,0 UV-I 0 W/m -4,5 C -3,4 C 0,0 km/h (0 Bft) 100,00 %
17.12.2018 03:07 23,8 C -3,4 C -1,7 C 2,8 C 55 % 92 % 1020,3 hPa 0,0 l/m 0,0 km/h (0 Bft) N 0 0 min 0,000 mm 0,0 UV-I 0 W/m -4,5 C -3,4 C 0,0 km/h (0 Bft) 91,30 %
17.12.2018 03:06 23,8 C -3,4 C -1,7 C 2,8 C 55 % 92 % 1020,3 hPa 0,0 l/m 0,0 km/h (0 Bft) N 0 0 min 0,000 mm 0,0 UV-I 0 W/m -4,5 C -3,4 C 0,0 km/h (0 Bft) 95,65 %
17.12.2018 03:05 23,8 C -3,4 C -1,7 C 2,8 C 55 % 92 % 1020,3 hPa 0,0 l/m 0,0 km/h (0 Bft) N 0 0 min 0,000 mm 0,0 UV-I 0 W/m -4,5 C -3,4 C 0,0 km/h (0 Bft) 95,65 %
17.12.2018 03:04 23,8 C -3,4 C -1,7 C 2,8 C 55 % 92 % 1020,3 hPa 0,0 l/m 0,0 km/h (0 Bft) N 0 0 min 0,000 mm 0,0 UV-I 0 W/m -4,5 C -3,4 C 0,0 km/h (0 Bft) 86,96 %
17.12.2018 03:03 23,8 C -3,4 C -1,7 C 2,8 C 55 % 92 % 1020,3 hPa 0,0 l/m 0,0 km/h (0 Bft) N 0 0 min 0,000 mm 0,0 UV-I 0 W/m -4,5 C -3,4 C 0,0 km/h (0 Bft) 95,65 %
17.12.2018 03:02 23,8 C -3,4 C -1,7 C 2,8 C 55 % 92 % 1020,3 hPa 0,0 l/m 0,0 km/h (0 Bft) N 0 0 min 0,000 mm 0,0 UV-I 0 W/m -4,5 C -3,4 C 0,0 km/h (0 Bft) 100,00 %
17.12.2018 03:01 23,8 C -3,5 C -1,7 C 2,8 C 55 % 92 % 1020,3 hPa 0,0 l/m 0,0 km/h (0 Bft) N 0 0 min 0,000 mm 0,0 UV-I 0 W/m -4,6 C -3,5 C 0,0 km/h (0 Bft) 86,96 %
17.12.2018 03:00 23,8 C -3,5 C -1,7 C 2,8 C 55 % 92 % 1020,3 hPa 0,0 l/m 0,0 km/h (0 Bft) N 0 0 min 0,000 mm 0,0 UV-I 0 W/m -4,6 C -3,5 C 0,0 km/h (0 Bft) 95,65 %
17.12.2018 02:59 23,8 C -3,5 C -1,7 C 2,8 C 55 % 92 % 1020,4 hPa 0,0 l/m 0,0 km/h (0 Bft) N 0 0 min 0,000 mm 0,0 UV-I 0 W/m -4,6 C -3,5 C 0,0 km/h (0 Bft) 100,00 %
17.12.2018 02:58 23,8 C -3,5 C -1,7 C 2,8 C 55 % 92 % 1020,4 hPa 0,0 l/m 0,0 km/h (0 Bft) N 0 0 min 0,000 mm 0,0 UV-I 0 W/m -4,6 C -3,5 C 0,0 km/h (0 Bft) 91,30 %
17.12.2018 02:57 23,8 C -3,6 C -1,7 C 2,8 C 56 % 92 % 1020,4 hPa 0,0 l/m 0,0 km/h (0 Bft) N 0 0 min 0,000 mm 0,0 UV-I 0 W/m -4,7 C -3,6 C 0,0 km/h (0 Bft) 95,65 %
17.12.2018 02:56 23,8 C -3,6 C -2,2 C 2,8 C 55 % 92 % 1020,4 hPa 0,0 l/m 0,0 km/h (0 Bft) N 0 0 min 0,000 mm 0,0 UV-I 0 W/m -4,7 C -3,6 C 0,0 km/h (0 Bft) 95,65 %
17.12.2018 02:55 23,8 C -3,6 C -2,2 C 2,8 C 55 % 92 % 1020,4 hPa 0,0 l/m 0,0 km/h (0 Bft) N 0 0 min 0,000 mm 0,0 UV-I 0 W/m -4,7 C -3,6 C 0,0 km/h (0 Bft) 91,30 %
17.12.2018 02:54 23,8 C -3,6 C -2,2 C 2,8 C 55 % 92 % 1020,4 hPa 0,0 l/m 0,0 km/h (0 Bft) N 0 0 min 0,000 mm 0,0 UV-I 0 W/m -4,7 C -3,6 C 0,0 km/h (0 Bft) 95,65 %
17.12.2018 02:53 23,8 C -3,6 C -2,2 C 2,8 C 56 % 92 % 1020,4 hPa 0,0 l/m 0,0 km/h (0 Bft) N 0 0 min 0,000 mm 0,0 UV-I 0 W/m -4,7 C -3,6 C 0,0 km/h (0 Bft) 95,65 %
17.12.2018 02:52 23,8 C -3,6 C -2,2 C 2,8 C 55 % 91 % 1020,4 hPa 0,0 l/m 0,0 km/h (0 Bft) N 0 0 min 0,000 mm 0,0 UV-I 0 W/m -4,8 C -3,6 C 0,0 km/h (0 Bft) 95,65 %
17.12.2018 02:51 23,8 C -3,6 C -2,2 C 2,8 C 55 % 91 % 1020,4 hPa 0,0 l/m 0,0 km/h (0 Bft) N 0 0 min 0,000 mm 0,0 UV-I 0 W/m -4,8 C -3,6 C 0,0 km/h (0 Bft) 95,65 %
17.12.2018 02:50 23,8 C -3,6 C -2,2 C 2,8 C 56 % 91 % 1020,4 hPa 0,0 l/m 0,0 km/h (0 Bft) N 0 0 min 0,000 mm 0,0 UV-I 0 W/m -4,8 C -3,6 C 0,0 km/h (0 Bft) 100,00 %
17.12.2018 02:49 23,8 C -3,6 C -2,2 C 2,8 C 56 % 91 % 1020,4 hPa 0,0 l/m 0,0 km/h (0 Bft) N 0 0 min 0,000 mm 0,0 UV-I 0 W/m -4,8 C -3,6 C 0,0 km/h (0 Bft) 95,65 %
17.12.2018 02:48 23,8 C -3,6 C -2,2 C 2,8 C 56 % 91 % 1020,4 hPa 0,0 l/m 0,0 km/h (0 Bft) N 0 0 min 0,000 mm 0,0 UV-I 0 W/m -4,8 C -3,6 C 0,0 km/h (0 Bft) 91,30 %
17.12.2018 02:47 23,8 C -3,6 C -2,2 C 2,8 C 55 % 91 % 1020,4 hPa 0,0 l/m 0,0 km/h (0 Bft) N 0 0 min 0,000 mm 0,0 UV-I 0 W/m -4,8 C -3,6 C 0,0 km/h (0 Bft) 100,00 %
17.12.2018 02:46 23,8 C -3,7 C -2,2 C 2,8 C 56 % 91 % 1020,4 hPa 0,0 l/m 0,0 km/h (0 Bft) N 0 0 min 0,000 mm 0,0 UV-I 0 W/m -4,9 C -3,7 C 0,0 km/h (0 Bft) 95,65 %
17.12.2018 02:45 23,8 C -3,6 C -2,2 C 2,8 C 56 % 91 % 1020,4 hPa 0,0 l/m 0,0 km/h (0 Bft) N 0 0 min 0,000 mm 0,0 UV-I 0 W/m -4,8 C -3,6 C 0,0 km/h (0 Bft) 95,65 %
17.12.2018 02:44 23,9 C -3,7 C -2,2 C 2,8 C 56 % 91 % 1020,3 hPa 0,0 l/m 0,0 km/h (0 Bft) N 0 0 min 0,000 mm 0,0 UV-I 0 W/m -4,9 C -3,7 C 0,0 km/h (0 Bft) 100,00 %
17.12.2018 02:43 23,9 C -3,7 C -2,2 C 2,8 C 55 % 91 % 1020,3 hPa 0,0 l/m 0,0 km/h (0 Bft) N 0 0 min 0,000 mm 0,0 UV-I 0 W/m -4,9 C -3,7 C 0,0 km/h (0 Bft) 91,30 %
17.12.2018 02:42 23,9 C -3,7 C -2,2 C 2,8 C 56 % 91 % 1020,3 hPa 0,0 l/m 0,0 km/h (0 Bft) N 0 0 min 0,000 mm 0,0 UV-I 0 W/m -4,9 C -3,7 C 0,0 km/h (0 Bft) 91,30 %
17.12.2018 02:41 23,9 C -3,7 C -2,2 C 2,8 C 56 % 91 % 1020,3 hPa 0,0 l/m 0,0 km/h (0 Bft) N 0 0 min 0,000 mm 0,0 UV-I 0 W/m -4,9 C -3,7 C 0,0 km/h (0 Bft) 100,00 %
17.12.2018 02:40 23,9 C -3,7 C -2,2 C 2,8 C 56 % 91 % 1020,3 hPa 0,0 l/m 0,0 km/h (0 Bft) N 0 0 min 0,000 mm 0,0 UV-I 0 W/m -4,9 C -3,7 C 0,0 km/h (0 Bft) 95,65 %
17.12.2018 02:39 23,9 C -3,7 C -2,2 C 2,8 C 56 % 91 % 1020,3 hPa 0,0 l/m 0,0 km/h (0 Bft) N 0 0 min 0,000 mm 0,0 UV-I 0 W/m -4,9 C -3,7 C 0,0 km/h (0 Bft) 95,65 %
17.12.2018 02:38 23,9 C -3,7 C -2,2 C 2,8 C 56 % 91 % 1020,3 hPa 0,0 l/m 0,0 km/h (0 Bft) N 0 0 min 0,000 mm 0,0 UV-I 0 W/m -4,9 C -3,7 C 0,0 km/h (0 Bft) 95,65 %
17.12.2018 02:37 23,9 C -3,7 C -2,2 C 2,8 C 56 % 91 % 1020,3 hPa 0,0 l/m 0,0 km/h (0 Bft) N 0 0 min 0,000 mm 0,0 UV-I 0 W/m -4,9 C -3,7 C 0,0 km/h (0 Bft) 95,65 %
17.12.2018 02:36 23,9 C -3,7 C -2,8 C 2,8 C 56 % 91 % 1020,3 hPa 0,0 l/m 0,0 km/h (0 Bft) N 0 0 min 0,000 mm 0,0 UV-I 0 W/m -4,9 C -3,7 C 0,0 km/h (0 Bft) 95,65 %
17.12.2018 02:35 23,9 C -3,7 C -2,8 C 2,8 C 56 % 90 % 1020,3 hPa 0,0 l/m 0,0 km/h (0 Bft) N 0 0 min 0,000 mm 0,0 UV-I 0 W/m -5,1 C -3,7 C 0,0 km/h (0 Bft) 100,00 %
17.12.2018 02:34 23,9 C -3,7 C -2,8 C 2,8 C 56 % 90 % 1020,3 hPa 0,0 l/m 0,0 km/h (0 Bft) N 0 0 min 0,000 mm 0,0 UV-I 0 W/m -5,1 C -3,7 C 0,0 km/h (0 Bft) 95,65 %
17.12.2018 02:33 23,9 C -3,7 C -2,8 C 2,8 C 56 % 90 % 1020,3 hPa 0,0 l/m 0,0 km/h (0 Bft) N 0 0 min 0,000 mm 0,0 UV-I 0 W/m -5,1 C -3,7 C 0,0 km/h (0 Bft) 95,65 %
17.12.2018 02:32 23,9 C -3,7 C -2,8 C 2,8 C 56 % 90 % 1020,3 hPa 0,0 l/m 0,0 km/h (0 Bft) N 0 0 min 0,000 mm 0,0 UV-I 0 W/m -5,1 C -3,7 C 0,0 km/h (0 Bft) 95,65 %
17.12.2018 02:31 23,9 C -3,7 C -2,8 C 2,8 C 56 % 90 % 1020,3 hPa 0,0 l/m 0,0 km/h (0 Bft) N 0 0 min 0,000 mm 0,0 UV-I 0 W/m -5,1 C -3,7 C 0,0 km/h (0 Bft) 100,00 %
17.12.2018 02:30 23,9 C -3,7 C -2,8 C 2,8 C 56 % 90 % 1020,3 hPa 0,0 l/m 0,0 km/h (0 Bft) N 0 0 min 0,000 mm 0,0 UV-I 0 W/m -5,1 C -3,7 C 0,0 km/h (0 Bft) 95,65 %
17.12.2018 02:29 23,9 C -3,7 C -2,8 C 2,8 C 56 % 90 % 1020,3 hPa 0,0 l/m 0,0 km/h (0 Bft) N 0 0 min 0,000 mm 0,0 UV-I 0 W/m -5,1 C -3,7 C 0,0 km/h (0 Bft) 95,65 %
17.12.2018 02:28 23,9 C -3,7 C -2,8 C 2,8 C 56 % 90 % 1020,3 hPa 0,0 l/m 0,0 km/h (0 Bft) N 0 0 min 0,000 mm 0,0 UV-I 0 W/m -5,1 C -3,7 C 0,0 km/h (0 Bft) 95,65 %
17.12.2018 02:27 23,9 C -3,7 C -3,3 C 2,8 C 56 % 90 % 1020,3 hPa 0,0 l/m 0,0 km/h (0 Bft) N 0 0 min 0,000 mm 0,0 UV-I 0 W/m -5,1 C -3,7 C 0,0 km/h (0 Bft) 95,65 %
17.12.2018 02:26 23,9 C -3,7 C -3,3 C 2,8 C 56 % 90 % 1020,3 hPa 0,0 l/m 0,0 km/h (0 Bft) N 0 0 min 0,000 mm 0,0 UV-I 0 W/m -5,1 C -3,7 C 0,0 km/h (0 Bft) 91,30 %
17.12.2018 02:25 23,9 C -3,7 C -3,3 C 2,8 C 56 % 90 % 1020,3 hPa 0,0 l/m 0,0 km/h (0 Bft) SO 135 0 min 0,000 mm 0,0 UV-I 0 W/m -5,1 C -3,7 C 1,6 km/h (1 Bft) 95,65 %
17.12.2018 02:24 23,9 C -3,7 C -3,3 C 2,8 C 56 % 90 % 1020,3 hPa 0,0 l/m 1,6 km/h (1 Bft) SO 135 0 min 0,000 mm 0,0 UV-I 0 W/m -5,1 C -3,7 C 3,2 km/h (1 Bft) 95,65 %
17.12.2018 02:23 23,9 C -3,7 C -3,3 C 2,8 C 56 % 90 % 1020,3 hPa 0,0 l/m 1,6 km/h (1 Bft) SO 135 0 min 0,000 mm 0,0 UV-I 0 W/m -5,1 C -3,7 C 3,2 km/h (1 Bft) 91,30 %
17.12.2018 02:22 23,9 C -3,7 C -3,3 C 2,8 C 56 % 89 % 1020,3 hPa 0,0 l/m 1,6 km/h (1 Bft) SO 135 0 min 0,000 mm 0,0 UV-I 0 W/m -5,2 C -3,7 C 1,6 km/h (1 Bft) 95,65 %
17.12.2018 02:21 23,9 C -3,7 C -3,3 C 2,8 C 56 % 89 % 1020,3 hPa 0,0 l/m 0,0 km/h (0 Bft) N 0 0 min 0,000 mm 0,0 UV-I 0 W/m -5,2 C -3,7 C 0,0 km/h (0 Bft) 91,30 %
17.12.2018 02:20 23,9 C -3,7 C -3,3 C 2,8 C 56 % 89 % 1020,3 hPa 0,0 l/m 0,0 km/h (0 Bft) N 0 0 min 0,000 mm 0,0 UV-I 0 W/m -5,2 C -3,7 C 0,0 km/h (0 Bft) 95,65 %
17.12.2018 02:19 23,9 C -3,6 C -3,9 C 2,8 C 56 % 89 % 1020,3 hPa 0,0 l/m 0,0 km/h (0 Bft) N 0 0 min 0,000 mm 0,0 UV-I 0 W/m -5,1 C -3,6 C 0,0 km/h (0 Bft) 95,65 %
17.12.2018 02:18 23,9 C -3,6 C -3,9 C 2,8 C 56 % 89 % 1020,3 hPa 0,0 l/m 0,0 km/h (0 Bft) N 0 0 min 0,000 mm 0,0 UV-I 0 W/m -5,1 C -3,6 C 0,0 km/h (0 Bft) 95,65 %
17.12.2018 02:17 23,9 C -3,6 C -3,9 C 2,8 C 56 % 89 % 1020,3 hPa 0,0 l/m 0,0 km/h (0 Bft) N 0 0 min 0,000 mm 0,0 UV-I 0 W/m -5,1 C -3,6 C 0,0 km/h (0 Bft) 86,96 %
17.12.2018 02:16 23,9 C -3,6 C -3,9 C 2,8 C 56 % 89 % 1020,3 hPa 0,0 l/m 0,0 km/h (0 Bft) N 0 0 min 0,000 mm 0,0 UV-I 0 W/m -5,1 C -3,6 C 0,0 km/h (0 Bft) 100,00 %
17.12.2018 02:15 23,9 C -3,6 C -3,9 C 2,8 C 56 % 89 % 1020,3 hPa 0,0 l/m 0,0 km/h (0 Bft) N 0 0 min 0,000 mm 0,0 UV-I 0 W/m -5,1 C -3,6 C 0,0 km/h (0 Bft) 91,30 %
17.12.2018 02:14 23,9 C -3,6 C -3,9 C 2,8 C 56 % 89 % 1020,3 hPa 0,0 l/m 0,0 km/h (0 Bft) N 0 0 min 0,000 mm 0,0 UV-I 0 W/m -5,1 C -3,6 C 0,0 km/h (0 Bft) 91,30 %
17.12.2018 02:13 23,9 C -3,6 C -3,9 C 2,8 C 56 % 89 % 1020,3 hPa 0,0 l/m 0,0 km/h (0 Bft) N 0 0 min 0,000 mm 0,0 UV-I 0 W/m -5,1 C -3,6 C 0,0 km/h (0 Bft) 100,00 %
17.12.2018 02:12 23,9 C -3,6 C -4,4 C 2,8 C 57 % 89 % 1020,3 hPa 0,0 l/m 0,0 km/h (0 Bft) N 0 0 min 0,000 mm 0,0 UV-I 0 W/m -5,1 C -3,6 C 0,0 km/h (0 Bft) 91,30 %
17.12.2018 02:11 23,9 C -3,6 C -4,4 C 2,8 C 56 % 89 % 1020,3 hPa 0,0 l/m 0,0 km/h (0 Bft) N 0 0 min 0,000 mm 0,0 UV-I 0 W/m -5,1 C -3,6 C 0,0 km/h (0 Bft) 95,65 %
17.12.2018 02:10 23,9 C -3,6 C -4,4 C 2,8 C 56 % 89 % 1020,3 hPa 0,0 l/m 0,0 km/h (0 Bft) N 0 0 min 0,000 mm 0,0 UV-I 0 W/m -5,1 C -3,6 C 0,0 km/h (0 Bft) 91,30 %
17.12.2018 02:09 23,9 C -3,5 C -4,4 C 2,8 C 56 % 89 % 1020,3 hPa 0,0 l/m 0,0 km/h (0 Bft) N 0 0 min 0,000 mm 0,0 UV-I 0 W/m -5,0 C -3,5 C 0,0 km/h (0 Bft) 95,65 %
17.12.2018 02:08 23,9 C -3,5 C -4,4 C 2,8 C 56 % 89 % 1020,3 hPa 0,0 l/m 0,0 km/h (0 Bft) N 0 0 min 0,000 mm 0,0 UV-I 0 W/m -5,0 C -3,5 C 0,0 km/h (0 Bft) 86,96 %
17.12.2018 02:07 23,9 C -3,5 C -4,4 C 2,8 C 56 % 89 % 1020,3 hPa 0,0 l/m 0,0 km/h (0 Bft) N 0 0 min 0,000 mm 0,0 UV-I 0 W/m -5,0 C -3,5 C 0,0 km/h (0 Bft) 100,00 %
17.12.2018 02:06 23,9 C -3,5 C -4,4 C 2,8 C 56 % 89 % 1020,3 hPa 0,0 l/m 0,0 km/h (0 Bft) N 0 0 min 0,000 mm 0,0 UV-I 0 W/m -5,0 C -3,5 C 0,0 km/h (0 Bft) 91,30 %
17.12.2018 02:05 23,9 C -3,5 C -4,4 C 2,8 C 56 % 89 % 1020,3 hPa 0,0 l/m 0,0 km/h (0 Bft) N 0 0 min 0,000 mm 0,0 UV-I 0 W/m -5,0 C -3,5 C 0,0 km/h (0 Bft) 91,30 %
17.12.2018 02:04 23,9 C -3,4 C -4,4 C 2,8 C 56 % 89 % 1020,3 hPa 0,0 l/m 0,0 km/h (0 Bft) N 0 0 min 0,000 mm 0,0 UV-I 0 W/m -4,9 C -3,4 C 0,0 km/h (0 Bft) 95,65 %
17.12.2018 02:03 23,9 C -3,4 C -4,4 C 2,8 C 56 % 89 % 1020,3 hPa 0,0 l/m 0,0 km/h (0 Bft) N 0 0 min 0,000 mm 0,0 UV-I 0 W/m -4,9 C -3,4 C 0,0 km/h (0 Bft) 95,65 %
17.12.2018 02:02 23,9 C -3,4 C -4,4 C 2,8 C 56 % 89 % 1020,3 hPa 0,0 l/m 0,0 km/h (0 Bft) N 0 0 min 0,000 mm 0,0 UV-I 0 W/m -4,9 C -3,4 C 0,0 km/h (0 Bft) 95,65 %
17.12.2018 02:01 23,9 C -3,4 C -4,4 C 2,8 C 56 % 89 % 1020,3 hPa 0,0 l/m 0,0 km/h (0 Bft) N 0 0 min 0,000 mm 0,0 UV-I 0 W/m -4,9 C -3,4 C 0,0 km/h (0 Bft) 100,00 %
17.12.2018 02:00 23,9 C -3,4 C -4,4 C 2,8 C 56 % 89 % 1020,3 hPa 0,0 l/m 0,0 km/h (0 Bft) N 0 0 min 0,000 mm 0,0 UV-I 0 W/m -4,9 C -3,4 C 0,0 km/h (0 Bft) 82,61 %
17.12.2018 01:59 23,9 C -3,4 C -4,4 C 2,8 C 56 % 89 % 1020,3 hPa 0,0 l/m 0,0 km/h (0 Bft) N 0 0 min 0,000 mm 0,0 UV-I 0 W/m -4,9 C -3,4 C 0,0 km/h (0 Bft) 95,65 %
17.12.2018 01:58 23,9 C -3,4 C -4,4 C 2,8 C 56 % 88 % 1020,3 hPa 0,0 l/m 0,0 km/h (0 Bft) N 0 0 min 0,000 mm 0,0 UV-I 0 W/m -5,1 C -3,4 C 0,0 km/h (0 Bft) 100,00 %
17.12.2018 01:57 23,9 C -3,3 C -4,4 C 2,8 C 56 % 88 % 1020,3 hPa 0,0 l/m 0,0 km/h (0 Bft) N 0 0 min 0,000 mm 0,0 UV-I 0 W/m -5,0 C -3,3 C 0,0 km/h (0 Bft) 95,65 %
17.12.2018 01:56 23,9 C -3,3 C -4,4 C 2,8 C 56 % 88 % 1020,3 hPa 0,0 l/m 0,0 km/h (0 Bft) N 0 0 min 0,000 mm 0,0 UV-I 0 W/m -5,0 C -3,3 C 0,0 km/h (0 Bft) 95,65 %
17.12.2018 01:55 23,9 C -3,3 C -4,4 C 2,8 C 56 % 88 % 1020,3 hPa 0,0 l/m 0,0 km/h (0 Bft) N 0 0 min 0,000 mm 0,0 UV-I 0 W/m -5,0 C -3,3 C 0,0 km/h (0 Bft) 100,00 %
17.12.2018 01:54 23,9 C -3,3 C -4,4 C 2,8 C 56 % 88 % 1020,3 hPa 0,0 l/m 0,0 km/h (0 Bft) N 0 0 min 0,000 mm 0,0 UV-I 0 W/m -5,0 C -3,3 C 0,0 km/h (0 Bft) 95,65 %
17.12.2018 01:53 23,9 C -3,3 C -5,0 C 2,8 C 56 % 88 % 1020,3 hPa 0,0 l/m 0,0 km/h (0 Bft) N 0 0 min 0,000 mm 0,0 UV-I 0 W/m -5,0 C -3,3 C 0,0 km/h (0 Bft) 95,65 %
17.12.2018 01:52 23,9 C -3,3 C -5,0 C 2,8 C 56 % 88 % 1020,3 hPa 0,0 l/m 0,0 km/h (0 Bft) N 0 0 min 0,000 mm 0,0 UV-I 0 W/m -5,0 C -3,3 C 0,0 km/h (0 Bft) 100,00 %
17.12.2018 01:51 23,9 C -3,2 C -5,0 C 2,8 C 56 % 88 % 1020,3 hPa 0,0 l/m 0,0 km/h (0 Bft) N 0 0 min 0,000 mm 0,0 UV-I 0 W/m -4,9 C -3,2 C 0,0 km/h (0 Bft) 95,65 %
17.12.2018 01:50 23,9 C -3,2 C -5,0 C 2,8 C 56 % 88 % 1020,3 hPa 0,0 l/m 0,0 km/h (0 Bft) N 0 0 min 0,000 mm 0,0 UV-I 0 W/m -4,9 C -3,2 C 0,0 km/h (0 Bft) 95,65 %
17.12.2018 01:49 23,9 C -3,2 C -5,0 C 2,8 C 56 % 88 % 1020,3 hPa 0,0 l/m 0,0 km/h (0 Bft) N 0 0 min 0,000 mm 0,0 UV-I 0 W/m -4,9 C -3,2 C 0,0 km/h (0 Bft) 100,00 %
17.12.2018 01:48 23,9 C -3,2 C -5,0 C 2,8 C 56 % 88 % 1020,3 hPa 0,0 l/m 0,0 km/h (0 Bft) N 0 0 min 0,000 mm 0,0 UV-I 0 W/m -4,9 C -3,2 C 0,0 km/h (0 Bft) 91,30 %
17.12.2018 01:47 23,9 C -3,2 C -5,0 C 2,8 C 56 % 88 % 1020,3 hPa 0,0 l/m 0,0 km/h (0 Bft) N 0 0 min 0,000 mm 0,0 UV-I 0 W/m -4,9 C -3,2 C 0,0 km/h (0 Bft) 95,65 %
17.12.2018 01:46 23,9 C -3,1 C -5,0 C 2,8 C 56 % 88 % 1020,3 hPa 0,0 l/m 0,0 km/h (0 Bft) N 0 0 min 0,000 mm 0,0 UV-I 0 W/m -4,8 C -3,1 C 0,0 km/h (0 Bft) 91,30 %
17.12.2018 01:45 23,9 C -3,1 C -5,0 C 2,8 C 56 % 88 % 1020,3 hPa 0,0 l/m 0,0 km/h (0 Bft) N 0 0 min 0,000 mm 0,0 UV-I 0 W/m -4,8 C -3,1 C 0,0 km/h (0 Bft) 100,00 %
17.12.2018 01:44 23,9 C -3,1 C -5,0 C 2,8 C 56 % 88 % 1020,3 hPa 0,0 l/m 0,0 km/h (0 Bft) N 0 0 min 0,000 mm 0,0 UV-I 0 W/m -4,8 C -3,1 C 0,0 km/h (0 Bft) 95,65 %
17.12.2018 01:43 23,9 C -3,1 C -5,0 C 2,8 C 56 % 88 % 1020,3 hPa 0,0 l/m 0,0 km/h (0 Bft) N 0 0 min 0,000 mm 0,0 UV-I 0 W/m -4,8 C -3,1 C 0,0 km/h (0 Bft) 86,96 %
17.12.2018 01:42 23,9 C -3,1 C -5,0 C 2,8 C 56 % 88 % 1020,3 hPa 0,0 l/m 0,0 km/h (0 Bft) N 0 0 min 0,000 mm 0,0 UV-I 0 W/m -4,8 C -3,1 C 0,0 km/h (0 Bft) 100,00 %
17.12.2018 01:41 23,9 C -3,1 C -5,0 C 2,8 C 56 % 88 % 1020,3 hPa 0,0 l/m 0,0 km/h (0 Bft) N 0 0 min 0,000 mm 0,0 UV-I 0 W/m -4,8 C -3,1 C 0,0 km/h (0 Bft) 95,65 %
17.12.2018 01:40 23,9 C -3,1 C -5,0 C 2,8 C 56 % 88 % 1020,3 hPa 0,0 l/m 0,0 km/h (0 Bft) N 0 0 min 0,000 mm 0,0 UV-I 0 W/m -4,8 C -3,1 C 0,0 km/h (0 Bft) 95,65 %
17.12.2018 01:39 23,9 C -3,0 C -5,0 C 2,8 C 56 % 88 % 1020,3 hPa 0,0 l/m 0,0 km/h (0 Bft) N 0 0 min 0,000 mm 0,0 UV-I 0 W/m -4,7 C -3,0 C 0,0 km/h (0 Bft) 100,00 %
17.12.2018 01:38 23,9 C -3,0 C -5,0 C 2,8 C 56 % 88 % 1020,3 hPa 0,0 l/m 0,0 km/h (0 Bft) N 0 0 min 0,000 mm 0,0 UV-I 0 W/m -4,7 C -3,0 C 0,0 km/h (0 Bft) 95,65 %
17.12.2018 01:37 23,9 C -3,0 C -5,0 C 2,8 C 56 % 88 % 1020,3 hPa 0,0 l/m 0,0 km/h (0 Bft) N 0 0 min 0,000 mm 0,0 UV-I 0 W/m -4,7 C -3,0 C 0,0 km/h (0 Bft) 95,65 %
17.12.2018 01:36 23,9 C -2,9 C -5,0 C 2,8 C 56 % 89 % 1020,3 hPa 0,0 l/m 0,0 km/h (0 Bft) N 0 0 min 0,000 mm 0,0 UV-I 0 W/m -4,5 C -2,9 C 0,0 km/h (0 Bft) 100,00 %
17.12.2018 01:35 23,9 C -2,9 C -4,4 C 2,8 C 56 % 89 % 1020,3 hPa 0,0 l/m 0,0 km/h (0 Bft) N 0 0 min 0,000 mm 0,0 UV-I 0 W/m -4,5 C -2,9 C 0,0 km/h (0 Bft) 95,65 %
17.12.2018 01:34 23,9 C -2,9 C -4,4 C 2,8 C 56 % 89 % 1020,3 hPa 0,0 l/m 0,0 km/h (0 Bft) N 0 0 min 0,000 mm 0,0 UV-I 0 W/m -4,5 C -2,9 C 0,0 km/h (0 Bft) 91,30 %
17.12.2018 01:33 23,9 C -2,9 C -4,4 C 2,8 C 56 % 89 % 1020,3 hPa 0,0 l/m 0,0 km/h (0 Bft) N 0 0 min 0,000 mm 0,0 UV-I 0 W/m -4,5 C -2,9 C 0,0 km/h (0 Bft) 100,00 %
17.12.2018 01:32 23,9 C -2,9 C -4,4 C 2,8 C 56 % 89 % 1020,3 hPa 0,0 l/m 0,0 km/h (0 Bft) N 0 0 min 0,000 mm 0,0 UV-I 0 W/m -4,5 C -2,9 C 0,0 km/h (0 Bft) 95,65 %
17.12.2018 01:31 23,9 C -2,9 C -4,4 C 2,8 C 56 % 89 % 1020,3 hPa 0,0 l/m 0,0 km/h (0 Bft) N 0 0 min 0,000 mm 0,0 UV-I 0 W/m -4,5 C -2,9 C 0,0 km/h (0 Bft) 95,65 %
17.12.2018 01:30 23,9 C -2,9 C -4,4 C 2,8 C 56 % 89 % 1020,3 hPa 0,0 l/m 0,0 km/h (0 Bft) N 0 0 min 0,000 mm 0,0 UV-I 0 W/m -4,5 C -2,9 C 0,0 km/h (0 Bft) 95,65 %
17.12.2018 01:29 23,9 C -2,8 C -4,4 C 2,8 C 56 % 89 % 1020,3 hPa 0,0 l/m 0,0 km/h (0 Bft) N 0 0 min 0,000 mm 0,0 UV-I 0 W/m -4,4 C -2,8 C 0,0 km/h (0 Bft) 95,65 %
17.12.2018 01:28 23,9 C -2,8 C -4,4 C 2,8 C 56 % 89 % 1020,3 hPa 0,0 l/m 0,0 km/h (0 Bft) N 0 0 min 0,000 mm 0,0 UV-I 0 W/m -4,4 C -2,8 C 0,0 km/h (0 Bft) 95,65 %
17.12.2018 01:27 23,9 C -2,8 C -5,0 C 2,8 C 56 % 89 % 1020,3 hPa 0,0 l/m 0,0 km/h (0 Bft) N 0 0 min 0,000 mm 0,0 UV-I 0 W/m -4,4 C -2,8 C 0,0 km/h (0 Bft) 100,00 %
17.12.2018 01:26 23,9 C -2,8 C -4,4 C 2,8 C 56 % 89 % 1020,3 hPa 0,0 l/m 0,0 km/h (0 Bft) N 0 0 min 0,000 mm 0,0 UV-I 0 W/m -4,4 C -2,8 C 0,0 km/h (0 Bft) 95,65 %
17.12.2018 01:25 23,9 C -2,8 C -4,4 C 2,8 C 56 % 89 % 1020,3 hPa 0,0 l/m 0,0 km/h (0 Bft) N 0 0 min 0,000 mm 0,0 UV-I 0 W/m -4,4 C -2,8 C 0,0 km/h (0 Bft) 95,65 %
17.12.2018 01:24 23,9 C -2,8 C -4,4 C 2,8 C 56 % 89 % 1020,3 hPa 0,0 l/m 0,0 km/h (0 Bft) N 0 0 min 0,000 mm 0,0 UV-I 0 W/m -4,4 C -2,8 C 0,0 km/h (0 Bft) 100,00 %
17.12.2018 01:23 23,9 C -2,8 C -4,4 C 2,8 C 56 % 89 % 1020,3 hPa 0,0 l/m 0,0 km/h (0 Bft) N 0 0 min 0,000 mm 0,0 UV-I 0 W/m -4,4 C -2,8 C 0,0 km/h (0 Bft) 91,30 %
17.12.2018 01:22 23,9 C -2,8 C -4,4 C 2,8 C 56 % 89 % 1020,3 hPa 0,0 l/m 0,0 km/h (0 Bft) N 0 0 min 0,000 mm 0,0 UV-I 0 W/m -4,4 C -2,8 C 0,0 km/h (0 Bft) 95,65 %
17.12.2018 01:21 23,9 C -2,8 C -4,4 C 2,8 C 56 % 89 % 1020,3 hPa 0,0 l/m 0,0 km/h (0 Bft) N 0 0 min 0,000 mm 0,0 UV-I 0 W/m -4,4 C -2,8 C 0,0 km/h (0 Bft) 100,00 %
17.12.2018 01:20 23,9 C -2,7 C -4,4 C 2,8 C 56 % 89 % 1020,3 hPa 0,0 l/m 0,0 km/h (0 Bft) N 0 0 min 0,000 mm 0,0 UV-I 0 W/m -4,3 C -2,7 C 0,0 km/h (0 Bft) 95,65 %
17.12.2018 01:19 23,9 C -2,7 C -4,4 C 2,8 C 56 % 89 % 1020,3 hPa 0,0 l/m 0,0 km/h (0 Bft) N 0 0 min 0,000 mm 0,0 UV-I 0 W/m -4,3 C -2,7 C 0,0 km/h (0 Bft) 95,65 %
17.12.2018 01:18 23,9 C -2,7 C -4,4 C 2,8 C 56 % 89 % 1020,3 hPa 0,0 l/m 0,0 km/h (0 Bft) N 0 0 min 0,000 mm 0,0 UV-I 0 W/m -4,3 C -2,7 C 0,0 km/h (0 Bft) 100,00 %
17.12.2018 01:17 23,9 C -2,7 C -4,4 C 2,8 C 56 % 88 % 1020,3 hPa 0,0 l/m 0,0 km/h (0 Bft) N 0 0 min 0,000 mm 0,0 UV-I 0 W/m -4,4 C -2,7 C 0,0 km/h (0 Bft) 95,65 %
17.12.2018 01:16 23,9 C -2,7 C -4,4 C 2,8 C 56 % 88 % 1020,3 hPa 0,0 l/m 0,0 km/h (0 Bft) N 0 0 min 0,000 mm 0,0 UV-I 0 W/m -4,4 C -2,7 C 0,0 km/h (0 Bft) 95,65 %
17.12.2018 01:15 23,9 C -2,7 C -4,4 C 2,8 C 56 % 88 % 1020,3 hPa 0,0 l/m 0,0 km/h (0 Bft) N 0 0 min 0,000 mm 0,0 UV-I 0 W/m -4,4 C -2,7 C 0,0 km/h (0 Bft) 95,65 %
17.12.2018 01:14 23,9 C -2,7 C -4,4 C 2,8 C 56 % 88 % 1020,2 hPa 0,0 l/m 0,0 km/h (0 Bft) N 0 0 min 0,000 mm 0,0 UV-I 0 W/m -4,4 C -2,7 C 0,0 km/h (0 Bft) 95,65 %
17.12.2018 01:13 23,9 C -2,7 C -4,4 C 2,8 C 56 % 88 % 1020,2 hPa 0,0 l/m 0,0 km/h (0 Bft) N 0 0 min 0,000 mm 0,0 UV-I 0 W/m -4,4 C -2,7 C 0,0 km/h (0 Bft) 95,65 %
17.12.2018 01:12 23,9 C -2,7 C -3,9 C 2,8 C 56 % 88 % 1020,2 hPa 0,0 l/m 0,0 km/h (0 Bft) N 0 0 min 0,000 mm 0,0 UV-I 0 W/m -4,4 C -2,7 C 0,0 km/h (0 Bft) 100,00 %
17.12.2018 01:11 23,9 C -2,6 C -3,9 C 2,8 C 56 % 88 % 1020,2 hPa 0,0 l/m 0,0 km/h (0 Bft) N 0 0 min 0,000 mm 0,0 UV-I 0 W/m -4,3 C -2,6 C 0,0 km/h (0 Bft) 95,65 %
17.12.2018 01:10 23,9 C -2,6 C -3,9 C 2,8 C 56 % 88 % 1020,2 hPa 0,0 l/m 0,0 km/h (0 Bft) N 0 0 min 0,000 mm 0,0 UV-I 0 W/m -4,3 C -2,6 C 0,0 km/h (0 Bft) 95,65 %
17.12.2018 01:09 23,9 C -2,6 C -3,9 C 2,8 C 56 % 88 % 1020,2 hPa 0,0 l/m 0,0 km/h (0 Bft) N 0 0 min 0,000 mm 0,0 UV-I 0 W/m -4,3 C -2,6 C 0,0 km/h (0 Bft) 95,65 %
17.12.2018 01:08 23,9 C -2,6 C -3,9 C 2,8 C 56 % 88 % 1020,2 hPa 0,0 l/m 0,0 km/h (0 Bft) N 0 0 min 0,000 mm 0,0 UV-I 0 W/m -4,3 C -2,6 C 0,0 km/h (0 Bft) 95,65 %
17.12.2018 01:07 23,9 C -2,6 C -3,9 C 2,8 C 56 % 88 % 1020,2 hPa 0,0 l/m 0,0 km/h (0 Bft) N 0 0 min 0,000 mm 0,0 UV-I 0 W/m -4,3 C -2,6 C 0,0 km/h (0 Bft) 95,65 %
17.12.2018 01:06 23,9 C -2,6 C -3,9 C 2,8 C 56 % 88 % 1020,2 hPa 0,0 l/m 0,0 km/h (0 Bft) N 0 0 min 0,000 mm 0,0 UV-I 0 W/m -4,3 C -2,6 C 0,0 km/h (0 Bft) 100,00 %
17.12.2018 01:05 23,9 C -2,6 C -3,9 C 2,8 C 56 % 88 % 1020,2 hPa 0,0 l/m 0,0 km/h (0 Bft) N 0 0 min 0,000 mm 0,0 UV-I 0 W/m -4,3 C -2,6 C 0,0 km/h (0 Bft) 95,65 %
17.12.2018 01:04 23,9 C -2,6 C -3,3 C 2,8 C 56 % 88 % 1020,2 hPa 0,0 l/m 0,0 km/h (0 Bft) N 0 0 min 0,000 mm 0,0 UV-I 0 W/m -4,3 C -2,6 C 0,0 km/h (0 Bft) 95,65 %
17.12.2018 01:03 23,9 C -2,6 C -3,3 C 2,8 C 56 % 88 % 1020,2 hPa 0,0 l/m 0,0 km/h (0 Bft) N 0 0 min 0,000 mm 0,0 UV-I 0 W/m -4,3 C -2,6 C 0,0 km/h (0 Bft) 95,65 %
17.12.2018 01:02 23,9 C -2,6 C -3,3 C 2,8 C 56 % 88 % 1020,2 hPa 0,0 l/m 0,0 km/h (0 Bft) N 0 0 min 0,000 mm 0,0 UV-I 0 W/m -4,3 C -2,6 C 0,0 km/h (0 Bft) 100,00 %
17.12.2018 01:01 23,9 C -2,6 C -3,3 C 2,8 C 56 % 88 % 1020,2 hPa 0,0 l/m 0,0 km/h (0 Bft) N 0 0 min 0,000 mm 0,0 UV-I 0 W/m -4,3 C -2,6 C 0,0 km/h (0 Bft) 86,96 %
17.12.2018 01:00 23,9 C -2,6 C -3,3 C 2,8 C 56 % 88 % 1020,2 hPa 0,0 l/m 0,0 km/h (0 Bft) N 0 0 min 0,000 mm 0,0 UV-I 0 W/m -4,3 C -2,6 C 0,0 km/h (0 Bft) 95,65 %
17.12.2018 00:59 23,9 C -2,6 C -3,3 C 2,8 C 56 % 88 % 1020,3 hPa 0,0 l/m 0,0 km/h (0 Bft) N 0 0 min 0,000 mm 0,0 UV-I 0 W/m -4,3 C -2,6 C 0,0 km/h (0 Bft) 95,65 %
17.12.2018 00:58 23,9 C -2,5 C -3,3 C 2,8 C 56 % 88 % 1020,3 hPa 0,0 l/m 0,0 km/h (0 Bft) N 0 0 min 0,000 mm 0,0 UV-I 0 W/m -4,2 C -2,5 C 0,0 km/h (0 Bft) 95,65 %
17.12.2018 00:57 23,9 C -2,5 C -3,3 C 2,8 C 57 % 88 % 1020,3 hPa 0,0 l/m 0,0 km/h (0 Bft) N 0 0 min 0,000 mm 0,0 UV-I 0 W/m -4,2 C -2,5 C 0,0 km/h (0 Bft) 91,30 %
17.12.2018 00:56 23,9 C -2,5 C -3,3 C 2,8 C 56 % 88 % 1020,3 hPa 0,0 l/m 0,0 km/h (0 Bft) N 0 0 min 0,000 mm 0,0 UV-I 0 W/m -4,2 C -2,5 C 0,0 km/h (0 Bft) 95,65 %
17.12.2018 00:55 23,9 C -2,5 C -3,3 C 2,8 C 56 % 88 % 1020,3 hPa 0,0 l/m 0,0 km/h (0 Bft) N 0 0 min 0,000 mm 0,0 UV-I 0 W/m -4,2 C -2,5 C 0,0 km/h (0 Bft) 95,65 %
17.12.2018 00:54 23,9 C -2,5 C -3,3 C 2,8 C 56 % 88 % 1020,3 hPa 0,0 l/m 0,0 km/h (0 Bft) N 0 0 min 0,000 mm 0,0 UV-I 0 W/m -4,2 C -2,5 C 0,0 km/h (0 Bft) 91,30 %
17.12.2018 00:53 23,9 C -2,4 C -3,3 C 2,8 C 56 % 88 % 1020,3 hPa 0,0 l/m 0,0 km/h (0 Bft) N 0 0 min 0,000 mm 0,0 UV-I 0 W/m -4,1 C -2,4 C 0,0 km/h (0 Bft) 95,65 %
17.12.2018 00:52 23,9 C -2,4 C -3,3 C 2,8 C 56 % 88 % 1020,3 hPa 0,0 l/m 0,0 km/h (0 Bft) N 0 0 min 0,000 mm 0,0 UV-I 0 W/m -4,1 C -2,4 C 0,0 km/h (0 Bft) 91,30 %
17.12.2018 00:51 23,9 C -2,4 C -3,3 C 2,8 C 56 % 88 % 1020,3 hPa 0,0 l/m 0,0 km/h (0 Bft) N 0 0 min 0,000 mm 0,0 UV-I 0 W/m -4,1 C -2,4 C 0,0 km/h (0 Bft) 95,65 %
17.12.2018 00:50 23,9 C -2,4 C -3,3 C 2,8 C 56 % 88 % 1020,3 hPa 0,0 l/m 0,0 km/h (0 Bft) N 0 0 min 0,000 mm 0,0 UV-I 0 W/m -4,1 C -2,4 C 0,0 km/h (0 Bft) 95,65 %
17.12.2018 00:49 23,9 C -2,4 C -3,3 C 2,8 C 56 % 87 % 1020,3 hPa 0,0 l/m 0,0 km/h (0 Bft) N 0 0 min 0,000 mm 0,0 UV-I 0 W/m -4,3 C -2,4 C 0,0 km/h (0 Bft) 95,65 %
17.12.2018 00:48 23,9 C -2,4 C -3,3 C 2,8 C 56 % 87 % 1020,3 hPa 0,0 l/m 0,0 km/h (0 Bft) N 0 0 min 0,000 mm 0,0 UV-I 0 W/m -4,3 C -2,4 C 0,0 km/h (0 Bft) 86,96 %
17.12.2018 00:47 23,9 C -2,4 C -3,3 C 2,8 C 57 % 87 % 1020,3 hPa 0,0 l/m 0,0 km/h (0 Bft) N 0 0 min 0,000 mm 0,0 UV-I 0 W/m -4,3 C -2,4 C 0,0 km/h (0 Bft) 100,00 %
17.12.2018 00:46 23,9 C -2,4 C -3,3 C 2,8 C 57 % 87 % 1020,3 hPa 0,0 l/m 0,0 km/h (0 Bft) N 0 0 min 0,000 mm 0,0 UV-I 0 W/m -4,3 C -2,4 C 0,0 km/h (0 Bft) 86,96 %
17.12.2018 00:45 23,9 C -2,4 C -3,3 C 2,8 C 57 % 87 % 1020,3 hPa 0,0 l/m 0,0 km/h (0 Bft) N 0 0 min 0,000 mm 0,0 UV-I 0 W/m -4,3 C -2,4 C 0,0 km/h (0 Bft) 86,96 %
17.12.2018 00:44 23,9 C -2,3 C -3,3 C 2,8 C 56 % 87 % 1020,3 hPa 0,0 l/m 0,0 km/h (0 Bft) N 0 0 min 0,000 mm 0,0 UV-I 0 W/m -4,2 C -2,3 C 0,0 km/h (0 Bft) 100,00 %
17.12.2018 00:43 23,9 C -2,3 C -3,3 C 2,8 C 56 % 87 % 1020,3 hPa 0,0 l/m 0,0 km/h (0 Bft) N 0 0 min 0,000 mm 0,0 UV-I 0 W/m -4,2 C -2,3 C 0,0 km/h (0 Bft) 91,30 %
17.12.2018 00:42 23,9 C -2,3 C -3,3 C 2,8 C 57 % 87 % 1020,3 hPa 0,0 l/m 0,0 km/h (0 Bft) N 0 0 min 0,000 mm 0,0 UV-I 0 W/m -4,2 C -2,3 C 0,0 km/h (0 Bft) 95,65 %
17.12.2018 00:41 23,9 C -2,3 C -3,3 C 2,8 C 56 % 87 % 1020,3 hPa 0,0 l/m 0,0 km/h (0 Bft) N 0 0 min 0,000 mm 0,0 UV-I 0 W/m -4,2 C -2,3 C 0,0 km/h (0 Bft) 95,65 %
17.12.2018 00:40 23,9 C -2,3 C -3,3 C 2,8 C 56 % 87 % 1020,3 hPa 0,0 l/m 0,0 km/h (0 Bft) N 0 0 min 0,000 mm 0,0 UV-I 0 W/m -4,2 C -2,3 C 0,0 km/h (0 Bft) 91,30 %
17.12.2018 00:39 23,9 C -2,3 C -3,9 C 2,8 C 56 % 87 % 1020,3 hPa 0,0 l/m 0,0 km/h (0 Bft) N 0 0 min 0,000 mm 0,0 UV-I 0 W/m -4,2 C -2,3 C 0,0 km/h (0 Bft) 91,30 %
17.12.2018 00:38 23,9 C -2,3 C -3,9 C 2,8 C 57 % 87 % 1020,3 hPa 0,0 l/m 0,0 km/h (0 Bft) N 0 0 min 0,000 mm 0,0 UV-I 0 W/m -4,2 C -2,3 C 0,0 km/h (0 Bft) 100,00 %
17.12.2018 00:37 23,9 C -2,3 C -3,9 C 2,8 C 56 % 87 % 1020,3 hPa 0,0 l/m 0,0 km/h (0 Bft) N 0 0 min 0,000 mm 0,0 UV-I 0 W/m -4,2 C -2,3 C 0,0 km/h (0 Bft) 91,30 %
17.12.2018 00:36 23,9 C -2,3 C -3,9 C 2,8 C 56 % 87 % 1020,3 hPa 0,0 l/m 0,0 km/h (0 Bft) N 0 0 min 0,000 mm 0,0 UV-I 0 W/m -4,2 C -2,3 C 0,0 km/h (0 Bft) 95,65 %
17.12.2018 00:35 23,9 C -2,2 C -3,9 C 2,8 C 56 % 87 % 1020,3 hPa 0,0 l/m 0,0 km/h (0 Bft) N 0 0 min 0,000 mm 0,0 UV-I 0 W/m -4,1 C -2,2 C 0,0 km/h (0 Bft) 100,00 %
17.12.2018 00:34 23,9 C -2,2 C -3,9 C 2,8 C 57 % 87 % 1020,3 hPa 0,0 l/m 0,0 km/h (0 Bft) N 0 0 min 0,000 mm 0,0 UV-I 0 W/m -4,1 C -2,2 C 0,0 km/h (0 Bft) 91,30 %
17.12.2018 00:33 23,9 C -2,2 C -3,9 C 2,8 C 57 % 87 % 1020,3 hPa 0,0 l/m 0,0 km/h (0 Bft) N 0 0 min 0,000 mm 0,0 UV-I 0 W/m -4,1 C -2,2 C 0,0 km/h (0 Bft) 91,30 %
17.12.2018 00:32 23,9 C -2,2 C -3,9 C 2,8 C 57 % 87 % 1020,3 hPa 0,0 l/m 0,0 km/h (0 Bft) N 0 0 min 0,000 mm 0,0 UV-I 0 W/m -4,1 C -2,2 C 0,0 km/h (0 Bft) 100,00 %
17.12.2018 00:31 23,9 C -2,2 C -3,9 C 2,8 C 57 % 87 % 1020,3 hPa 0,0 l/m 0,0 km/h (0 Bft) N 0 0 min 0,000 mm 0,0 UV-I 0 W/m -4,1 C -2,2 C 0,0 km/h (0 Bft) 95,65 %
17.12.2018 00:30 23,9 C -2,2 C -3,9 C 2,8 C 57 % 87 % 1020,3 hPa 0,0 l/m 0,0 km/h (0 Bft) N 0 0 min 0,000 mm 0,0 UV-I 0 W/m -4,1 C -2,2 C 0,0 km/h (0 Bft) 95,65 %
17.12.2018 00:29 23,9 C -2,2 C -3,9 C 2,8 C 57 % 87 % 1020,4 hPa 0,0 l/m 0,0 km/h (0 Bft) N 0 0 min 0,000 mm 0,0 UV-I 0 W/m -4,1 C -2,2 C 0,0 km/h (0 Bft) 100,00 %
17.12.2018 00:28 23,9 C -2,2 C -3,3 C 2,8 C 57 % 87 % 1020,4 hPa 0,0 l/m 0,0 km/h (0 Bft) N 0 0 min 0,000 mm 0,0 UV-I 0 W/m -4,1 C -2,2 C 0,0 km/h (0 Bft) 95,65 %
17.12.2018 00:27 23,9 C -2,1 C -3,3 C 2,8 C 56 % 87 % 1020,4 hPa 0,0 l/m 0,0 km/h (0 Bft) N 0 0 min 0,000 mm 0,0 UV-I 0 W/m -4,0 C -2,1 C 0,0 km/h (0 Bft) 95,65 %
17.12.2018 00:26 23,9 C -2,1 C -3,3 C 2,8 C 57 % 87 % 1020,4 hPa 0,0 l/m 0,0 km/h (0 Bft) N 0 0 min 0,000 mm 0,0 UV-I 0 W/m -4,0 C -2,1 C 0,0 km/h (0 Bft) 95,65 %
17.12.2018 00:25 23,9 C -2,1 C -3,3 C 2,8 C 57 % 87 % 1020,4 hPa 0,0 l/m 0,0 km/h (0 Bft) N 0 0 min 0,000 mm 0,0 UV-I 0 W/m -4,0 C -2,1 C 0,0 km/h (0 Bft) 95,65 %
17.12.2018 00:24 23,9 C -2,1 C -3,3 C 2,8 C 57 % 87 % 1020,4 hPa 0,0 l/m 0,0 km/h (0 Bft) N 0 0 min 0,000 mm 0,0 UV-I 0 W/m -4,0 C -2,1 C 0,0 km/h (0 Bft) 95,65 %
17.12.2018 00:23 23,9 C -2,1 C -3,3 C 2,8 C 57 % 87 % 1020,4 hPa 0,0 l/m 0,0 km/h (0 Bft) N 0 0 min 0,000 mm 0,0 UV-I 0 W/m -4,0 C -2,1 C 0,0 km/h (0 Bft) 100,00 %
17.12.2018 00:22 23,9 C -2,1 C -3,3 C 2,8 C 57 % 87 % 1020,4 hPa 0,0 l/m 0,0 km/h (0 Bft) N 0 0 min 0,000 mm 0,0 UV-I 0 W/m -4,0 C -2,1 C 0,0 km/h (0 Bft) 95,65 %
17.12.2018 00:21 23,9 C -2,1 C -3,3 C 2,8 C 57 % 87 % 1020,4 hPa 0,0 l/m 0,0 km/h (0 Bft) N 0 0 min 0,000 mm 0,0 UV-I 0 W/m -4,0 C -2,1 C 0,0 km/h (0 Bft) 95,65 %
17.12.2018 00:20 23,9 C -2,1 C -3,3 C 2,8 C 57 % 87 % 1020,4 hPa 0,0 l/m 0,0 km/h (0 Bft) N 0 0 min 0,000 mm 0,0 UV-I 0 W/m -4,0 C -2,1 C 0,0 km/h (0 Bft) 100,00 %
17.12.2018 00:19 23,9 C -2,1 C -3,3 C 2,8 C 57 % 87 % 1020,4 hPa 0,0 l/m 0,0 km/h (0 Bft) N 0 0 min 0,000 mm 0,0 UV-I 0 W/m -4,0 C -2,1 C 0,0 km/h (0 Bft) 95,65 %
17.12.2018 00:18 23,9 C -2,1 C -3,3 C 2,8 C 57 % 87 % 1020,4 hPa 0,0 l/m 0,0 km/h (0 Bft) N 0 0 min 0,000 mm 0,0 UV-I 0 W/m -4,0 C -2,1 C 0,0 km/h (0 Bft) 95,65 %
17.12.2018 00:17 23,9 C -2,0 C -3,3 C 2,8 C 57 % 86 % 1020,4 hPa 0,0 l/m 0,0 km/h (0 Bft) N 0 0 min 0,000 mm 0,0 UV-I 0 W/m -4,0 C -2,0 C 0,0 km/h (0 Bft) 95,65 %
17.12.2018 00:16 23,9 C -2,0 C -3,3 C 2,8 C 57 % 86 % 1020,4 hPa 0,0 l/m 0,0 km/h (0 Bft) N 0 0 min 0,000 mm 0,0 UV-I 0 W/m -4,0 C -2,0 C 0,0 km/h (0 Bft) 95,65 %
17.12.2018 00:15 23,9 C -2,0 C -3,3 C 2,8 C 57 % 86 % 1020,4 hPa 0,0 l/m 0,0 km/h (0 Bft) N 0 0 min 0,000 mm 0,0 UV-I 0 W/m -4,0 C -2,0 C 0,0 km/h (0 Bft) 95,65 %
17.12.2018 00:14 23,9 C -2,0 C -3,3 C 2,8 C 57 % 86 % 1020,4 hPa 0,0 l/m 0,0 km/h (0 Bft) N 0 0 min 0,000 mm 0,0 UV-I 0 W/m -4,0 C -2,0 C 0,0 km/h (0 Bft) 91,30 %
17.12.2018 00:13 23,9 C -2,0 C -3,3 C 2,8 C 57 % 87 % 1020,4 hPa 0,0 l/m 0,0 km/h (0 Bft) N 0 0 min 0,000 mm 0,0 UV-I 0 W/m -3,9 C -2,0 C 0,0 km/h (0 Bft) 100,00 %
17.12.2018 00:12 23,9 C -2,0 C -2,8 C 2,8 C 57 % 87 % 1020,4 hPa 0,0 l/m 0,0 km/h (0 Bft) N 0 0 min 0,000 mm 0,0 UV-I 0 W/m -3,9 C -2,0 C 0,0 km/h (0 Bft) 91,30 %
17.12.2018 00:11 23,9 C -1,9 C -2,8 C 2,8 C 57 % 87 % 1020,4 hPa 0,0 l/m 0,0 km/h (0 Bft) N 0 0 min 0,000 mm 0,0 UV-I 0 W/m -3,8 C -1,9 C 0,0 km/h (0 Bft) 95,65 %
17.12.2018 00:10 23,9 C -1,9 C -2,8 C 2,8 C 57 % 87 % 1020,4 hPa 0,0 l/m 0,0 km/h (0 Bft) N 0 0 min 0,000 mm 0,0 UV-I 0 W/m -3,8 C -1,9 C 0,0 km/h (0 Bft) 100,00 %
17.12.2018 00:09 23,9 C -1,9 C -2,8 C 2,8 C 57 % 87 % 1020,4 hPa 0,0 l/m 0,0 km/h (0 Bft) N 0 0 min 0,000 mm 0,0 UV-I 0 W/m -3,8 C -1,9 C 0,0 km/h (0 Bft) 95,65 %
17.12.2018 00:08 23,9 C -1,9 C -2,8 C 2,8 C 57 % 86 % 1020,4 hPa 0,0 l/m 0,0 km/h (0 Bft) N 0 0 min 0,000 mm 0,0 UV-I 0 W/m -3,9 C -1,9 C 0,0 km/h (0 Bft) 91,30 %
17.12.2018 00:07 23,9 C -1,9 C -2,8 C 2,8 C 57 % 86 % 1020,4 hPa 0,0 l/m 0,0 km/h (0 Bft) N 0 0 min 0,000 mm 0,0 UV-I 0 W/m -3,9 C -1,9 C 0,0 km/h (0 Bft) 95,65 %
17.12.2018 00:06 23,9 C -1,9 C -2,8 C 2,8 C 57 % 86 % 1020,4 hPa 0,0 l/m 0,0 km/h (0 Bft) N 0 0 min 0,000 mm 0,0 UV-I 0 W/m -3,9 C -1,9 C 0,0 km/h (0 Bft) 95,65 %
17.12.2018 00:05 23,9 C -1,9 C -2,8 C 2,8 C 57 % 86 % 1020,4 hPa 0,0 l/m 0,0 km/h (0 Bft) N 0 0 min 0,000 mm 0,0 UV-I 0 W/m -3,9 C -1,9 C 0,0 km/h (0 Bft) 95,65 %
17.12.2018 00:04 23,9 C -1,9 C -2,8 C 2,8 C 57 % 86 % 1020,4 hPa 0,0 l/m 0,0 km/h (0 Bft) N 0 0 min 0,000 mm 0,0 UV-I 0 W/m -3,9 C -1,9 C 0,0 km/h (0 Bft) 100,00 %
17.12.2018 00:03 24,1 C -1,9 C -2,8 C 2,8 C 57 % 86 % 1020,4 hPa 0,0 l/m 0,0 km/h (0 Bft) N 0 0 min 0,000 mm 0,0 UV-I 0 W/m -3,9 C -1,9 C 0,0 km/h (0 Bft) 91,30 %
17.12.2018 00:02 24,1 C -1,9 C -2,8 C 2,8 C 57 % 87 % 1020,4 hPa 0,0 l/m 0,0 km/h (0 Bft) N 0 0 min 0,000 mm 0,0 UV-I 0 W/m -3,8 C -1,9 C 0,0 km/h (0 Bft) 91,30 %
17.12.2018 00:01 24,1 C -1,9 C -2,8 C 2,8 C 57 % 86 % 1020,4 hPa 0,0 l/m 0,0 km/h (0 Bft) N 0 0 min 0,000 mm 0,0 UV-I 0 W/m -3,9 C -1,9 C 0,0 km/h (0 Bft) 82,61 %
17.12.2018 00:00 24,1 C -1,9 C -2,8 C 2,8 C 57 % 86 % 1020,4 hPa 0,0 l/m 0,0 km/h (0 Bft) N 0 0 min 0,000 mm 0,0 UV-I 0 W/m -3,9 C -1,9 C 0,0 km/h (0 Bft) 100,00 %
_ Min-Zeit 08:02 02:20 01:27 00:00 06:44 00:00 01:00 - 00:00 - - - - - - 02:20 02:20 00:00 00:01
Minimum _ 23,0 C -3,7 C -5,0 C 2,8 C 51 % 86 % 1020,2 hPa - 0,0 km/h (0 Bft) - - - - - - -5,2 C -3,7 C 0,0 km/h (0 Bft) 82,61 %
_ Max-Zeit 00:00 10:50 10:45 00:00 00:00 08:35 10:15 00:00 07:41 - - 00:00 10:00 00:00 10:44 10:50 10:50 07:41 00:00
Maximum _ 24,1 C -0,9 C 2,2 C 2,8 C 57 % 94 % 1024,9 hPa 0,0 l/m 6,4 km/h
W (2 Bft)
- - 0 min 0,025 mm 0,0 UV-I 137 W/m -2,0 C -0,9 C 9,7 km/h
W (2 Bft)
100,00 %
Durchschnitt _ 23,6 C -2,5 C -1,8 C 2,8 C 54 % 91 % 1021,7 hPa #0,0 l/m 1,0 km/h (0 Bft) W - #0 min. #0,025 mm 0,0 UV-I 61 W/m -3,7 C -2,5 C 2,0 km/h (1 Bft) 94,61 %